[[{"header":{"parameterUnit":"m.s-1","parameterCategory":1,"la1":30.6,"la2":29.2853,"lo1":-89.7004,"lo2":-87.6739,"dy":0.0162,"dx":0.0183,"nx":112,"ny":82,"refTime":"2024-03-05T06:00:00:Z","depth":0,"parameterNumber":2,"parameterNumberName":"U-component_of_WINDS"},"data":[0.0,0.0,0.0,0.0,0.0,0.0,0.0,0.0,0.0,0.0,0.0,0.0,0.0,0.0,0.0,0.0,0.0,0.0,0.0,0.0,0.0,0.0,0.0,0.0,0.0,0.0,0.0,0.0,0.0,0.0,0.0,0.0,0.0,0.0,0.0,0.0,0.0,0.0,0.0,0.0,0.0,0.0,0.0,0.0,0.0,0.0,0.0,0.0,0.0,0.0,0.0,0.0,0.0,0.0,0.0,0.0,0.0,0.0,0.0,0.0,0.0,0.0,0.0,0.0,0.0,0.0,0.0,0.0,0.0,0.0,0.0,0.0,0.0,0.0,0.0,0.0,0.0,0.0,0.0,0.0,0.0,0.0,0.0,0.0,0.0,0.0,0.0,0.0,0.0,0.0,0.0,-2.9134,-3.1508,-3.2204,-3.0509,-2.9392,-2.8186,-2.6518,0.0,0.0,0.0,0.0,0.0,0.0,0.0,0.0,0.0,0.0,0.0,0.0,0.0,0.0,0.0,0.0,0.0,0.0,0.0,0.0,0.0,0.0,0.0,0.0,0.0,0.0,0.0,0.0,0.0,0.0,0.0,0.0,0.0,0.0,0.0,0.0,0.0,0.0,0.0,0.0,0.0,0.0,0.0,0.0,0.0,0.0,0.0,0.0,0.0,0.0,0.0,0.0,0.0,0.0,0.0,0.0,0.0,0.0,0.0,0.0,0.0,0.0,0.0,0.0,0.0,0.0,0.0,0.0,0.0,0.0,0.0,0.0,0.0,0.0,0.0,0.0,0.0,0.0,0.0,0.0,0.0,0.0,0.0,0.0,0.0,0.0,0.0,0.0,0.0,0.0,0.0,0.0,0.0,0.0,0.0,0.0,0.0,0.0,0.0,0.0,0.0,0.0,0.0,0.0,-2.8799,-3.0842,-3.1845,-3.1418,-2.9235,-2.7538,-2.634,-2.5894,0.0,0.0,0.0,0.0,0.0,0.0,0.0,0.0,0.0,0.0,0.0,0.0,0.0,0.0,0.0,0.0,0.0,0.0,0.0,0.0,0.0,0.0,0.0,0.0,0.0,0.0,0.0,0.0,0.0,0.0,0.0,0.0,0.0,0.0,0.0,0.0,0.0,0.0,0.0,0.0,0.0,0.0,0.0,0.0,0.0,0.0,0.0,0.0,0.0,0.0,0.0,0.0,0.0,0.0,0.0,0.0,0.0,0.0,0.0,0.0,0.0,0.0,0.0,0.0,0.0,0.0,0.0,0.0,0.0,0.0,0.0,0.0,0.0,0.0,0.0,0.0,0.0,0.0,0.0,0.0,0.0,0.0,0.0,0.0,0.0,0.0,0.0,0.0,0.0,0.0,0.0,0.0,0.0,0.0,0.0,0.0,0.0,0.0,0.0,0.0,0.0,0.0,0.0,-2.8737,-2.9935,-3.0834,-3.1461,-3.0783,-2.8177,-2.6963,-2.6057,-2.5445,-2.5022,0.0,0.0,0.0,0.0,0.0,0.0,0.0,0.0,0.0,0.0,0.0,0.0,0.0,0.0,0.0,0.0,0.0,0.0,0.0,0.0,0.0,0.0,0.0,0.0,0.0,0.0,0.0,0.0,0.0,0.0,0.0,0.0,0.0,0.0,0.0,0.0,0.0,0.0,0.0,0.0,0.0,0.0,0.0,0.0,0.0,0.0,0.0,0.0,0.0,0.0,0.0,0.0,0.0,0.0,0.0,0.0,0.0,0.0,0.0,0.0,0.0,0.0,0.0,0.0,0.0,0.0,0.0,0.0,0.0,0.0,0.0,0.0,0.0,0.0,0.0,0.0,0.0,0.0,0.0,0.0,0.0,0.0,0.0,0.0,0.0,0.0,0.0,0.0,0.0,0.0,0.0,0.0,0.0,0.0,0.0,0.0,0.0,0.0,0.0,0.0,0.0,0.0,-2.9899,-3.0547,-3.0435,-3.0884,-3.0204,-2.7653,-2.7067,-2.6572,-2.6003,-2.5295,0.0,0.0,0.0,0.0,0.0,0.0,0.0,0.0,0.0,0.0,0.0,0.0,0.0,0.0,0.0,0.0,0.0,0.0,0.0,0.0,0.0,0.0,0.0,0.0,0.0,0.0,0.0,0.0,0.0,0.0,0.0,0.0,0.0,0.0,0.0,0.0,0.0,0.0,0.0,0.0,0.0,0.0,0.0,0.0,0.0,0.0,0.0,0.0,0.0,0.0,0.0,0.0,0.0,0.0,0.0,0.0,0.0,0.0,0.0,0.0,0.0,0.0,0.0,0.0,0.0,0.0,0.0,0.0,0.0,0.0,0.0,0.0,0.0,0.0,0.0,0.0,0.0,0.0,0.0,0.0,0.0,0.0,0.0,0.0,0.0,0.0,0.0,0.0,0.0,0.0,0.0,0.0,0.0,0.0,0.0,0.0,0.0,0.0,0.0,0.0,0.0,0.0,-3.0306,-3.0696,-2.9907,-3.0357,-2.993,-2.8203,-2.768,-2.7717,-2.8282,-2.7648,0.0,0.0,0.0,0.0,0.0,0.0,0.0,0.0,0.0,0.0,0.0,0.0,0.0,0.0,0.0,0.0,0.0,0.0,0.0,0.0,0.0,0.0,0.0,0.0,0.0,0.0,0.0,0.0,0.0,0.0,0.0,0.0,0.0,0.0,0.0,0.0,0.0,0.0,0.0,0.0,0.0,0.0,0.0,0.0,0.0,0.0,0.0,0.0,0.0,0.0,0.0,0.0,0.0,0.0,0.0,0.0,0.0,0.0,0.0,0.0,0.0,0.0,0.0,0.0,0.0,0.0,0.0,0.0,0.0,0.0,0.0,0.0,0.0,0.0,0.0,0.0,0.0,0.0,0.0,0.0,0.0,0.0,0.0,0.0,0.0,0.0,0.0,0.0,0.0,0.0,0.0,0.0,0.0,0.0,0.0,0.0,0.0,0.0,0.0,0.0,0.0,0.0,-3.0343,-3.034,0.0,-2.998,-2.9588,-2.8187,-2.7997,-2.8186,-2.8802,0.0,0.0,0.0,0.0,0.0,0.0,0.0,0.0,0.0,0.0,0.0,0.0,0.0,0.0,0.0,0.0,0.0,0.0,0.0,0.0,0.0,0.0,0.0,0.0,0.0,0.0,0.0,0.0,0.0,0.0,0.0,0.0,0.0,0.0,0.0,0.0,0.0,0.0,0.0,0.0,0.0,0.0,0.0,0.0,0.0,0.0,0.0,0.0,0.0,0.0,0.0,0.0,0.0,0.0,0.0,0.0,0.0,0.0,0.0,0.0,0.0,0.0,0.0,0.0,0.0,0.0,0.0,0.0,0.0,0.0,0.0,0.0,0.0,0.0,0.0,0.0,0.0,0.0,0.0,0.0,0.0,0.0,0.0,0.0,0.0,0.0,0.0,0.0,0.0,0.0,0.0,0.0,0.0,0.0,0.0,0.0,0.0,0.0,0.0,0.0,0.0,0.0,-3.0624,-3.0337,-3.0024,0.0,-2.9804,-2.9443,-2.8688,-2.8609,-2.9131,-3.0112,0.0,0.0,0.0,0.0,0.0,0.0,0.0,0.0,0.0,0.0,0.0,0.0,0.0,0.0,0.0,0.0,0.0,0.0,0.0,0.0,0.0,0.0,0.0,0.0,0.0,0.0,0.0,0.0,0.0,0.0,0.0,0.0,0.0,0.0,0.0,0.0,0.0,0.0,0.0,0.0,0.0,0.0,0.0,0.0,0.0,0.0,0.0,0.0,0.0,0.0,0.0,0.0,0.0,0.0,0.0,0.0,0.0,0.0,0.0,0.0,0.0,0.0,0.0,0.0,0.0,0.0,0.0,0.0,0.0,0.0,0.0,0.0,0.0,0.0,0.0,0.0,0.0,0.0,0.0,0.0,0.0,0.0,0.0,0.0,0.0,0.0,0.0,0.0,0.0,0.0,0.0,0.0,0.0,0.0,0.0,0.0,0.0,0.0,0.0,0.0,0.0,0.0,-3.1215,-3.0365,-2.9804,-2.9804,-2.9804,-2.9804,-2.9804,-2.9804,-3.0599,0.0,0.0,0.0,0.0,0.0,0.0,0.0,0.0,0.0,0.0,0.0,0.0,0.0,0.0,0.0,0.0,0.0,0.0,0.0,0.0,0.0,0.0,0.0,0.0,0.0,0.0,0.0,0.0,0.0,0.0,0.0,0.0,0.0,0.0,0.0,0.0,0.0,0.0,0.0,0.0,0.0,0.0,0.0,0.0,0.0,0.0,0.0,0.0,0.0,0.0,0.0,0.0,0.0,0.0,0.0,0.0,0.0,0.0,0.0,0.0,0.0,0.0,0.0,0.0,0.0,0.0,0.0,0.0,0.0,0.0,0.0,0.0,0.0,0.0,0.0,0.0,0.0,0.0,0.0,0.0,0.0,0.0,0.0,0.0,0.0,0.0,0.0,0.0,0.0,0.0,0.0,0.0,0.0,0.0,0.0,0.0,0.0,0.0,0.0,0.0,0.0,0.0,0.0,-3.241,-3.088,-2.9804,-2.9804,-2.9804,-2.9804,-2.9804,-2.9804,-3.0649,-3.2593,0.0,0.0,0.0,0.0,0.0,0.0,0.0,0.0,0.0,0.0,0.0,0.0,0.0,0.0,0.0,0.0,0.0,0.0,0.0,0.0,0.0,0.0,0.0,0.0,0.0,0.0,0.0,0.0,0.0,0.0,0.0,0.0,0.0,0.0,0.0,0.0,0.0,0.0,0.0,0.0,0.0,0.0,0.0,0.0,0.0,0.0,0.0,0.0,0.0,0.0,0.0,0.0,0.0,0.0,0.0,0.0,0.0,0.0,0.0,0.0,0.0,0.0,0.0,0.0,0.0,0.0,0.0,0.0,0.0,0.0,0.0,0.0,0.0,0.0,0.0,0.0,0.0,0.0,0.0,0.0,0.0,0.0,0.0,0.0,0.0,0.0,0.0,0.0,0.0,0.0,0.0,0.0,0.0,0.0,0.0,0.0,0.0,0.0,0.0,0.0,0.0,0.0,-3.2856,-3.106,-2.9804,-2.9804,-2.9804,-2.9804,-2.9804,-2.9365,-2.987,-3.1519,0.0,0.0,0.0,0.0,0.0,0.0,0.0,0.0,0.0,0.0,0.0,0.0,0.0,0.0,0.0,0.0,0.0,0.0,0.0,0.0,0.0,0.0,0.0,0.0,0.0,0.0,0.0,0.0,0.0,0.0,0.0,0.0,0.0,0.0,0.0,0.0,0.0,0.0,0.0,0.0,0.0,0.0,0.0,0.0,0.0,0.0,0.0,0.0,0.0,0.0,0.0,0.0,0.0,0.0,0.0,0.0,0.0,0.0,0.0,0.0,0.0,0.0,0.0,0.0,0.0,0.0,0.0,0.0,0.0,0.0,0.0,0.0,0.0,0.0,0.0,0.0,0.0,0.0,0.0,0.0,0.0,0.0,0.0,0.0,0.0,0.0,0.0,0.0,0.0,0.0,0.0,0.0,0.0,0.0,0.0,0.0,0.0,0.0,0.0,0.0,0.0,0.0,-3.2883,-3.106,-2.9804,-2.9804,-2.9702,-2.9624,-2.9624,-2.8609,-2.8482,-2.9658,0.0,0.0,0.0,0.0,0.0,0.0,0.0,0.0,0.0,0.0,0.0,0.0,0.0,0.0,0.0,0.0,0.0,0.0,0.0,0.0,0.0,0.0,0.0,0.0,0.0,0.0,0.0,0.0,0.0,0.0,0.0,0.0,0.0,0.0,0.0,0.0,0.0,0.0,0.0,0.0,0.0,0.0,0.0,0.0,0.0,0.0,0.0,0.0,0.0,0.0,0.0,0.0,0.0,0.0,0.0,0.0,0.0,0.0,0.0,0.0,-2.0145,0.0,0.0,0.0,0.0,0.0,0.0,0.0,0.0,0.0,0.0,0.0,0.0,0.0,0.0,0.0,0.0,0.0,0.0,0.0,0.0,0.0,0.0,0.0,0.0,0.0,0.0,0.0,0.0,0.0,0.0,0.0,0.0,0.0,0.0,0.0,0.0,0.0,0.0,0.0,0.0,0.0,-3.3507,-3.1293,-2.9804,-2.9804,-2.9028,-2.8426,-2.8426,-2.7464,-2.7401,-2.8695,-2.8702,0.0,0.0,0.0,0.0,0.0,0.0,0.0,0.0,0.0,0.0,0.0,0.0,0.0,0.0,0.0,0.0,0.0,0.0,0.0,0.0,0.0,0.0,0.0,0.0,0.0,0.0,0.0,0.0,0.0,0.0,0.0,0.0,0.0,0.0,0.0,0.0,0.0,0.0,0.0,0.0,0.0,0.0,0.0,0.0,0.0,0.0,0.0,0.0,0.0,0.0,0.0,0.0,0.0,0.0,0.0,0.0,0.0,0.0,0.0,0.0,-2.1156,0.0,0.0,0.0,0.0,0.0,0.0,0.0,0.0,0.0,0.0,0.0,0.0,0.0,0.0,0.0,0.0,0.0,0.0,0.0,0.0,0.0,0.0,0.0,0.0,0.0,0.0,0.0,0.0,0.0,0.0,0.0,0.0,0.0,0.0,0.0,0.0,0.0,0.0,0.0,0.0,-3.3489,-3.1318,-2.9804,-2.9804,-2.8767,-2.8084,-2.8084,-2.6603,-2.5994,-2.6645,-2.7257,0.0,0.0,0.0,0.0,0.0,0.0,0.0,0.0,0.0,0.0,0.0,0.0,0.0,0.0,0.0,0.0,0.0,0.0,0.0,0.0,0.0,0.0,0.0,0.0,0.0,0.0,0.0,0.0,0.0,0.0,0.0,0.0,0.0,0.0,0.0,0.0,0.0,0.0,0.0,0.0,0.0,0.0,0.0,0.0,0.0,0.0,0.0,0.0,0.0,0.0,0.0,0.0,0.0,-2.0997,-2.1189,-2.1473,-2.1717,-2.2071,-2.2562,-2.3577,-2.3322,-2.2097,0.0,0.0,0.0,0.0,0.0,0.0,0.0,0.0,0.0,0.0,0.0,0.0,0.0,0.0,0.0,0.0,0.0,0.0,0.0,0.0,0.0,0.0,0.0,0.0,0.0,-3.3506,-3.4041,0.0,0.0,0.0,0.0,0.0,0.0,0.0,0.0,0.0,0.0,0.0,0.0,-3.2658,-3.0792,-2.9443,-2.9209,-2.8371,-2.7763,-2.7522,-2.5692,-2.4532,-2.4532,-2.5872,-2.6715,0.0,0.0,0.0,0.0,0.0,0.0,0.0,0.0,0.0,0.0,0.0,0.0,0.0,0.0,0.0,0.0,0.0,0.0,0.0,0.0,0.0,0.0,0.0,0.0,0.0,0.0,0.0,0.0,0.0,0.0,0.0,0.0,-1.6225,-1.6488,0.0,0.0,0.0,0.0,0.0,0.0,0.0,0.0,0.0,0.0,0.0,0.0,0.0,-2.084,-2.1828,-2.1423,-2.1593,-2.2266,-2.2266,-2.2305,-2.2357,-2.2726,-2.3115,-2.3633,-2.4396,0.0,-2.2906,-2.2858,0.0,0.0,0.0,0.0,0.0,0.0,0.0,0.0,0.0,0.0,0.0,0.0,0.0,0.0,0.0,0.0,0.0,0.0,0.0,0.0,0.0,0.0,-2.9699,-2.9609,-3.0728,-3.1934,0.0,-3.5565,-3.7952,-3.6706,-3.6298,0.0,0.0,0.0,0.0,0.0,0.0,0.0,-3.0518,-2.9132,-2.7947,-2.7058,-2.6812,-2.6295,-2.5273,-2.4039,-2.3299,-2.3299,-2.3573,-2.3859,-2.4266,-2.6737,0.0,0.0,0.0,0.0,0.0,0.0,0.0,0.0,0.0,0.0,0.0,0.0,0.0,0.0,0.0,0.0,0.0,0.0,0.0,0.0,0.0,0.0,0.0,0.0,0.0,0.0,0.0,0.0,0.0,-1.6041,-1.7402,-1.7816,-1.8516,-1.8923,0.0,0.0,0.0,0.0,0.0,0.0,0.0,0.0,0.0,-2.1253,-2.1496,-2.1935,-2.2663,-2.2493,-2.2707,-2.3223,-2.3223,-2.3359,-2.3594,-2.3769,-2.4238,-2.4808,-2.4278,-2.3877,-2.369,-2.4165,-2.3827,-2.3228,0.0,0.0,0.0,0.0,-2.7287,-2.7602,-2.7375,-2.6729,0.0,0.0,0.0,0.0,0.0,0.0,0.0,0.0,0.0,0.0,0.0,0.0,0.0,-2.9451,-2.964,-2.9996,-3.0712,-3.2129,-3.3607,0.0,-3.4015,-3.3619,-3.5331,0.0,0.0,0.0,0.0,-2.9642,-2.8962,-2.7929,-2.7035,-2.6565,-2.5964,-2.5378,-2.4872,-2.38,-2.3144,-2.3144,-2.3144,-2.3223,-2.3418,-2.4886,-2.5805,0.0,0.0,0.0,0.0,0.0,0.0,0.0,0.0,0.0,0.0,0.0,0.0,0.0,0.0,0.0,0.0,0.0,0.0,0.0,0.0,0.0,0.0,0.0,0.0,0.0,0.0,0.0,0.0,-1.6287,-1.7906,-1.8685,-1.9049,-1.9372,0.0,0.0,0.0,0.0,0.0,0.0,-2.0918,-2.1116,-2.1655,-2.2695,-2.3036,-2.3313,-2.3809,-2.3809,-2.3926,-2.4121,-2.4355,-2.4551,-2.4766,-2.498,-2.5508,-2.6131,-2.5077,-2.4517,-2.441,-2.451,-2.3636,-2.239,-2.4197,-2.4329,-2.3721,-2.5126,-2.5931,-2.6444,-2.6941,-2.613,-2.5091,-2.6151,0.0,-2.6128,-2.6546,0.0,0.0,0.0,0.0,-3.0954,-2.9925,-2.9603,-2.9485,-2.9144,-2.8942,-2.8902,-2.9472,-2.8965,-2.9285,0.0,-3.1187,-3.0877,-3.2876,0.0,0.0,0.0,0.0,-2.7697,-2.7278,-2.6594,-2.5964,-2.5652,-2.5126,-2.4702,-2.4382,-2.356,-2.3144,-2.3144,-2.3144,-2.3144,-2.3144,-2.3171,-2.3585,-2.4329,0.0,0.0,0.0,0.0,0.0,0.0,0.0,0.0,0.0,0.0,0.0,0.0,0.0,0.0,0.0,0.0,0.0,0.0,0.0,0.0,0.0,0.0,0.0,0.0,0.0,0.0,0.0,0.0,0.0,-1.7513,-2.0183,0.0,0.0,0.0,0.0,-1.7235,-1.6746,-1.8081,-2.159,-2.0963,-2.1888,-2.4883,-2.4941,-2.5176,-2.5605,-2.5605,-2.541,-2.5019,-2.5859,-2.6055,-2.5703,-2.6504,-2.7129,-2.7578,-2.7559,-2.6702,-2.5218,-2.2959,-2.1788,-2.156,-2.3409,-2.3962,-2.3578,-2.3657,-2.3647,-2.3333,-2.2905,-2.2644,-2.2829,-2.4581,-2.5208,-2.5518,-2.7457,-2.8609,0.0,0.0,-3.2092,-2.9491,-3.0283,-2.8738,-2.7049,-2.7028,-2.8196,-2.9239,-2.8925,-2.8217,-2.7515,0.0,-2.7509,-2.8441,-2.9593,0.0,-2.9053,-2.9508,-2.7872,-2.6189,-2.5147,-2.4893,-2.4467,-2.3387,-2.4211,-2.4382,-2.3299,-2.3144,-2.3144,-2.3144,-2.3144,-2.3144,-2.3144,-2.205,-2.1031,-2.0272,-2.4268,0.0,0.0,0.0,0.0,0.0,0.0,0.0,0.0,0.0,0.0,0.0,0.0,0.0,0.0,0.0,0.0,0.0,0.0,0.0,0.0,0.0,0.0,0.0,0.0,0.0,0.0,0.0,0.0,-1.9659,-2.0644,0.0,-1.9954,-2.0448,-2.0045,-1.8303,-1.9438,-2.084,-2.2351,-2.2673,-2.3772,-2.5898,-2.6172,-2.6406,-2.6562,-2.6562,-2.6484,-2.6328,-2.6641,-2.6719,-2.6562,-2.6875,-2.7246,-2.7656,-2.6673,-2.6188,-2.6062,-2.3989,-2.2108,-2.0659,-2.1841,-2.1692,-2.0985,-2.1778,-2.2868,-2.3755,-2.3565,-2.3993,-2.4507,-2.4598,-2.4648,-2.4795,-2.5542,-2.5924,-2.6403,-2.7757,-2.72,-2.6222,-2.6464,-2.6125,-2.5979,-2.6702,-2.6962,-2.7076,-2.7543,-2.6505,-2.5421,-2.4845,-2.5242,-2.5896,-2.6508,-2.5826,-2.5425,-2.6136,-2.5139,-2.4162,-2.3754,-2.3714,-2.3541,-2.3144,-2.3474,-2.356,-2.3144,-2.3144,-2.3144,-2.3144,-2.3144,-2.3144,-2.3144,-2.2687,-2.168,-1.9931,-2.1386,-2.5079,0.0,0.0,0.0,0.0,0.0,0.0,0.0,0.0,0.0,0.0,0.0,0.0,0.0,0.0,0.0,0.0,0.0,0.0,0.0,0.0,0.0,0.0,0.0,0.0,0.0,0.0,-1.9793,-2.1056,-2.1543,-2.1738,-2.1653,-2.15,-2.0925,-2.0039,-2.1421,-2.2733,-2.3663,-2.4284,-2.5367,-2.7031,-2.7305,-2.7441,-2.7441,-2.7441,-2.7383,-2.7226,-2.7383,-2.7363,-2.7246,-2.7383,-2.7598,-2.7871,-2.6861,-2.6408,-2.6424,-2.5162,-2.3283,-2.1448,-2.1957,-2.127,-2.0121,-2.1474,-2.2703,-2.3738,-2.4271,-2.5144,-2.6055,-2.5312,-2.5078,-2.5059,-2.4902,-2.4863,-2.4902,-2.5039,-2.5078,-2.5117,-2.5254,-2.5508,-2.5877,-2.6561,-2.6304,-2.5976,-2.6194,-2.5265,-2.4297,-2.3867,-2.4121,-2.5113,-2.7285,-2.7091,-2.7527,-3.0004,-3.0056,-2.9806,-2.9965,-2.803,-2.6704,-2.6772,-2.4608,-2.3144,-2.3144,-2.4892,-2.5259,-2.3271,-2.5001,-2.515,-2.3164,-2.4696,-2.4905,-2.3464,-2.4785,-2.822,-3.3695,0.0,0.0,0.0,0.0,0.0,0.0,0.0,0.0,0.0,0.0,0.0,0.0,0.0,0.0,0.0,0.0,0.0,0.0,0.0,0.0,0.0,0.0,0.0,-1.6798,-1.937,-2.112,-2.148,-2.2892,-2.353,-2.2923,-2.2753,-2.2487,-2.2181,-2.2467,-2.3496,-2.5521,-2.5575,-2.6417,-2.8281,-2.8301,-2.8301,-2.8301,-2.8301,-2.8086,-2.7695,-2.8105,-2.8086,-2.7695,-2.8105,-2.8301,-2.8301,-2.8301,-2.7511,-2.6173,-2.6173,-2.5278,-2.3838,-2.3822,-2.272,-2.1329,-2.2873,-2.3187,-2.3207,-2.4578,-2.5947,-2.6973,-2.6543,-2.6406,-2.6328,-2.5898,-2.5781,-2.5859,-2.6388,-2.6406,-2.6504,-2.6914,-2.7012,-2.6914,-2.6484,-2.6387,-2.6152,-2.5273,-2.4727,-2.4297,-2.3887,-2.4121,-2.6085,-3.141,-3.2912,-3.5281,-4.0611,-4.192,0.0,-4.2767,-3.7177,-3.3494,-3.3912,-2.7499,-2.3184,-2.3505,-2.8498,-2.9278,-2.3505,-2.8564,-2.9121,-2.3378,-2.77,-3.0345,-3.0368,-3.4352,-3.4074,-2.9226,0.0,0.0,0.0,0.0,0.0,0.0,0.0,0.0,0.0,0.0,0.0,0.0,0.0,0.0,0.0,0.0,0.0,0.0,0.0,0.0,0.0,0.0,-1.9267,-1.937,-2.0799,-2.2271,-2.3861,-2.4492,-2.4641,-2.4436,-2.4627,-2.4343,-2.3084,-2.3998,-2.5023,-2.5955,-2.5992,-2.6714,-2.8281,-2.8301,-2.8301,-2.8301,-2.8301,-2.8242,-2.8125,-2.8242,-2.8223,-2.8125,-2.8242,-2.8301,-2.8301,-2.8301,-2.8242,-2.8167,-2.8167,-2.7271,-2.5793,-2.4384,-2.3533,-2.3118,-2.3562,-2.4377,-2.5343,-2.6597,-2.7168,-2.7422,-2.6992,-2.6836,-2.6816,-2.6699,-2.666,-2.6881,-2.7962,-2.7603,-2.7058,-2.8145,-2.7683,-2.6914,-2.6484,-2.6387,-2.623,-2.5684,-2.4961,-2.4375,-2.4277,-2.4102,-2.4326,-2.555,-2.5847,-2.652,-2.803,-2.8477,0.0,-2.8701,-2.7101,-2.803,-3.346,-2.7804,-2.5915,-3.1728,-2.9121,-2.6345,-2.4423,-2.5894,-2.5614,-2.3251,-2.4743,-2.5867,-2.6424,-3.2066,-3.4047,0.0,0.0,0.0,0.0,0.0,0.0,0.0,0.0,0.0,0.0,0.0,0.0,0.0,0.0,0.0,0.0,0.0,0.0,0.0,0.0,0.0,0.0,-1.8989,-2.1189,-2.2407,-2.3147,-2.3951,-2.5,-2.5547,-2.5875,-2.5872,-2.6295,-2.6282,-2.5541,-2.6151,-2.6691,-2.7041,-2.7041,-2.7384,-2.8281,-2.8301,-2.8301,-2.8301,-2.8301,-2.8301,-2.8301,-2.8301,-2.8301,-2.8301,-2.8301,-2.8301,0.0,-2.8301,-2.8437,-2.8652,-2.8652,-2.809,0.0,0.0,0.0,0.0,0.0,-2.6282,-2.7131,-2.7776,-2.793,-2.7891,-2.7637,-2.7539,-2.7539,-2.7539,-2.7539,-2.7747,-2.8532,-2.8141,-2.7747,-2.8532,-2.8141,-2.7402,-2.6797,-2.6641,-2.6484,-2.5879,-2.5417,-2.5128,-2.5128,-2.4961,0.0,-2.4615,-2.608,-2.8184,-3.0649,-3.1248,-3.1551,-3.1899,-2.9465,-2.9396,-3.3849,-2.8407,-2.6229,-3.0795,-3.0146,0.0,0.0,0.0,-2.8316,-2.7542,-2.8254,0.0,0.0,0.0,-3.8959,-3.6024,0.0,0.0,0.0,-3.4781,-3.7618,0.0,0.0,0.0,0.0,0.0,0.0,0.0,0.0,0.0,0.0,0.0,0.0,0.0,0.0,0.0,0.0,-1.9634,-2.2236,-2.5314,-2.5898,-2.5801,-2.541,-2.6348,-2.7051,-2.7148,-2.7461,-2.7851,-2.832,-2.8359,-2.8379,-2.8437,0.0,0.0,0.0,0.0,-2.834,-2.8301,-2.8301,-2.8301,-2.8301,-2.8301,-2.8301,-2.8301,-2.8301,-2.8301,-2.8301,-2.8301,-2.832,-2.8359,-2.8359,-2.8398,-2.8476,-2.8789,-2.7891,-2.6573,-2.8164,-2.8573,-2.8601,-2.8767,0.0,0.0,-2.8794,-2.8601,-2.8495,-2.8495,-2.8495,-2.8601,-2.8688,-2.8794,-2.8794,-2.89,-2.89,-2.8489,-2.7574,-2.7235,-2.6979,-2.6173,-2.6133,-2.6187,-2.6367,-2.6519,-2.664,-2.664,-2.9862,-3.423,-3.9453,-4.0829,-4.1459,-4.2108,-3.7102,-3.3909,-3.5075,0.0,0.0,-2.6538,-3.1501,-3.2077,-2.6085,-3.0425,-3.2998,-3.2697,-3.3833,-3.7652,-4.4481,-4.6107,-4.4177,-3.8926,-3.6893,-3.1878,-2.4571,-3.3504,-3.5315,0.0,0.0,0.0,0.0,0.0,0.0,0.0,0.0,0.0,0.0,0.0,0.0,0.0,0.0,0.0,-2.032,-2.3361,-2.5747,-2.6173,-2.6855,-2.7266,-2.7168,-2.707,-2.7285,-2.7988,-2.7812,-2.7988,-2.875,-2.8789,-2.8945,-2.9297,-2.9316,0.0,-2.8809,-2.8789,-2.8633,-2.8301,-2.8301,-2.8301,-2.8301,0.0,0.0,-2.8301,-2.8301,-2.8301,-2.8301,-2.8301,-2.8476,-2.8789,-2.8789,-2.9004,-2.9297,-2.9023,-2.8649,-2.8591,-3.0452,-3.066,-3.0162,-3.1689,-3.1973,-3.152,-3.152,-3.0824,-2.9911,-2.9911,-2.9911,0.0,-3.1214,-3.152,-3.1825,-3.2955,-3.2353,-3.1084,-2.9534,-2.8936,-2.84,-2.7883,-2.7223,-2.7034,-2.8098,-2.7986,-2.7843,-2.7843,-2.777,-2.8218,-2.9338,-3.0028,-3.0383,-3.0541,-2.9834,-3.1574,-3.7508,-3.2112,-3.0655,-3.6999,-3.3694,-3.0209,-2.7567,-2.7104,-2.7013,-2.7201,-2.7841,-3.0013,-3.3815,-3.452,-3.442,-3.3594,-3.1739,-2.8422,-2.4038,-2.4419,-2.3414,0.0,0.0,0.0,0.0,0.0,0.0,0.0,0.0,0.0,0.0,0.0,-1.8657,-1.8864,0.0,-2.296,-2.3431,-2.614,-2.8466,-2.8993,-2.9463,-2.9166,-2.757,-2.7519,-2.7812,-2.8262,-2.8301,-2.8555,-2.9199,-2.9238,-2.9336,-2.9551,-2.957,-2.9473,-2.9258,-2.9238,-2.9141,-2.8926,-2.8926,-2.8828,-2.8613,-2.8613,-2.8496,-2.8301,-2.8301,-2.8301,-2.8301,-2.8516,-2.873,-2.8945,-2.916,-2.9917,-3.0944,-3.0701,-3.0498,-3.0404,-3.1141,-3.1593,-3.1891,-3.2508,-3.2555,-3.2331,-3.2331,-3.1825,-3.1316,-3.1316,-3.1316,-3.1418,-3.2129,-3.2331,-3.2431,-3.3155,-3.2855,-3.2018,-3.0952,-3.0547,-3.0242,-2.9763,-2.9267,-2.9286,-3.0281,-3.0044,-2.9833,-3.0095,-2.9499,-2.8563,-2.7476,-2.7509,-2.7757,-2.8004,-2.8251,-2.9885,-3.3547,-3.1359,-3.1089,-3.4847,-3.1874,-2.9463,-2.8589,-2.626,-2.5419,-2.6267,-2.6423,-2.7982,-3.1233,-3.2629,-3.3306,-3.3374,-3.1759,-2.9209,-2.5778,-2.3843,-2.1713,0.0,0.0,0.0,0.0,0.0,0.0,0.0,0.0,-1.9812,-2.0805,-2.0974,-2.1123,-2.181,-2.3577,-2.5303,-2.6389,-2.8701,-3.0646,-3.1555,-3.1802,-3.0965,-2.8513,-2.881,-2.9273,-2.9353,-2.9675,-3.0057,-3.052,-3.054,-3.0489,-3.0254,-3.0254,-3.0102,-2.9687,-2.9687,-2.9648,-2.957,-2.957,-2.9355,-2.8926,-2.8926,-2.875,-2.8418,-2.8418,-2.8457,-2.8555,-2.8984,-2.9231,-2.9501,-2.9937,-3.1187,-3.2806,-3.2806,-3.2855,-3.2879,-3.2383,-3.2818,-3.3561,-3.3444,-3.3292,-3.3155,-3.3247,-3.3024,-3.2778,-3.2959,-3.2959,-3.2891,-3.3005,-3.3161,-3.3292,-3.3292,-3.3201,-3.2941,-3.2355,-3.2173,-3.1991,-3.1581,-3.153,-3.1741,-3.2466,-3.2339,-3.219,-3.2616,-3.234,-3.128,-2.9044,-2.881,-2.893,-2.9078,-2.9215,-2.9194,-2.8925,-2.988,-3.0524,-3.0459,-2.9757,-2.9346,-2.9346,-2.6504,-2.5626,-2.7026,-2.6782,-2.8147,-3.1748,-3.3654,-3.4627,-3.4726,-3.3134,-3.0866,-2.7827,-2.5635,-2.33,-1.2976,-1.2404,-1.2935,-1.2395,-1.4904,-1.8201,0.0,0.0,-2.3421,-2.65,-2.6795,-2.6694,-2.7184,-2.8763,-2.9809,-2.9308,-3.1344,-3.2791,-3.1788,-3.1995,-3.2297,-3.2494,-3.2627,-3.2871,-3.3271,-3.336,-3.3604,-3.3984,-3.4029,-3.3682,-3.2797,-3.2705,-3.1953,-3.0137,-3.0137,-2.9941,-2.957,-2.957,-2.9355,-2.8926,-2.8926,-2.8906,-2.8848,-2.8848,-2.9062,-2.9453,-2.9863,-3.061,-3.1563,-3.1892,-3.2983,-3.4333,-3.4333,-3.542,-3.6838,-3.6791,-3.6001,-3.517,-3.6825,-3.6773,-3.6028,-3.6525,-3.5551,-3.4355,-3.5331,-3.5283,-3.5023,-3.5473,-3.6109,-3.6674,-3.6674,-3.6326,-3.5642,-3.4412,-3.374,-3.3481,-3.3315,-3.2936,-3.3044,-3.4148,-3.4385,-3.4374,-3.4424,-3.4399,-3.3583,-3.1332,-3.1456,-3.1357,-3.0351,-3.0667,-3.0504,-2.942,-3.0415,-3.1568,-3.261,-3.1038,-2.9952,-2.9952,-2.7055,-2.6051,-2.7598,-2.6705,-2.8114,-3.2141,-3.2931,-3.3801,-3.4726,-3.2779,-3.0583,-2.7923,-2.5452,-2.3687,-1.7419,-1.605,-1.5642,-1.889,-2.025,-2.1635,-2.504,-2.6432,-2.7457,-2.9174,-2.9667,-3.0084,-3.12,-3.1797,-3.2451,0.0,-3.4139,-3.4576,-3.4486,-3.4607,-3.4726,-3.5064,-3.5893,-3.5985,-3.4464,-3.4342,-3.4544,-3.493,-3.4975,-3.4845,-3.4403,-3.4403,-3.3982,-3.3231,-3.3231,-3.3125,-3.2934,-3.2064,-3.1391,-3.0942,-3.0095,-2.9531,-2.9297,-2.9297,-2.9687,-3.0332,-3.0234,-3.1264,-3.2889,-3.2805,-3.4208,-3.627,-3.627,-3.7287,-3.8638,-3.746,-3.6946,-3.6949,-3.7717,-3.7487,-3.6935,-3.7487,-3.7096,-3.6579,-3.7022,-3.6997,-3.6874,-3.7095,-3.7419,-3.7663,-3.7663,-3.7487,-3.7139,-3.6209,-3.5866,-3.562,-3.5276,-3.4809,-3.47,-3.5512,-3.5152,-3.4826,-3.5152,-3.4926,-3.4399,-3.347,-3.2882,-3.2268,-3.1817,-3.0973,-3.0262,-2.9441,-3.0485,-3.1543,-3.2414,-3.1228,-3.0577,-3.0868,-2.7643,-2.6569,-2.8379,-2.7103,-2.8544,-3.3079,-3.3383,-3.4006,-3.5203,-3.2932,-3.0882,-2.9102,-2.6923,-2.5806,-1.9519,-1.8364,-1.7822,-2.3466,-2.4667,-2.5228,-2.8425,-2.9729,-3.0357,-3.0758,-3.126,-3.2041,-3.3539,-3.3752,-3.435,-3.6061,-3.6363,-3.6365,-3.6175,-3.6667,-3.6867,-3.637,-3.7665,-3.7706,-3.5656,-3.5944,-3.6332,-3.6464,-3.6487,-3.6402,-3.5945,-3.5945,-3.5727,-3.5288,-3.5288,-3.5288,-3.5288,-3.4292,-3.3497,-3.3026,-3.194,-3.1014,-3.0398,-3.0089,-3.0351,-3.1035,-3.0586,-3.1917,-3.4282,-3.3813,-3.5508,-3.8137,-3.8137,-3.8792,-3.9519,-3.8038,-3.7857,-3.8241,-3.8241,-3.7889,-3.7513,-3.8065,-3.814,-3.8065,-3.8366,-3.8366,-3.8166,-3.789,-3.8041,-3.8141,-3.7717,-3.7817,-3.7864,-3.7312,-3.7287,-3.7211,-3.6508,-3.6157,-3.6056,-3.6307,-3.583,-3.5479,-3.573,-3.5554,-3.5353,-3.5203,-3.3715,-3.2534,-3.2253,-3.0466,-2.9159,-2.9189,-2.9984,-3.0882,-3.1646,-3.0881,-3.0548,-3.0899,-2.8027,-2.7012,-2.8797,-2.7549,-2.9011,-3.3704,-3.3582,-3.4292,-3.578,-3.3441,-3.1855,-3.0918,-2.9162,-2.8513,-1.6687,-1.6911,-1.7259,-2.1981,-2.5997,-2.89,-2.9628,-3.0583,-3.1361,-3.1361,-3.1813,-3.2498,-3.3592,-3.4703,-3.5621,-3.62,-3.7709,-3.8027,-3.5831,-3.744,-3.8156,-3.635,-3.7048,-3.7763,0.0,-3.9364,-4.0223,-3.9647,-3.9569,-3.8921,-3.7477,-3.7453,-3.6811,-3.5288,-3.5288,-3.5288,-3.5288,-3.5288,-3.5042,-3.4549,-3.4441,-3.3661,-3.2253,-3.1317,-3.1094,-3.1484,-3.1055,-3.2777,-3.5736,-3.5379,-3.6942,-3.9594,-3.9594,-3.9697,-3.9697,-3.9672,-3.932,-3.8843,-3.8843,-3.8467,-3.8065,-3.8668,-3.8467,-3.8216,-3.9295,-3.927,-3.8741,-3.7709,-3.8142,-3.8515,-3.7108,-3.736,-3.7864,-3.7312,-3.7588,-3.7688,-3.6609,-3.6759,-3.6985,-3.6458,-3.6759,-3.6935,-3.6433,-3.6759,-3.6935,-3.6383,-3.4095,-3.195,-3.1105,-2.8645,-2.7562,-2.8703,-2.888,-2.9373,-3.066,-3.002,-2.9513,-2.9534,-2.7714,-2.7327,-2.8816,-2.7827,-2.9322,-3.3704,-3.3317,-3.414,-3.6332,-3.4484,-3.3529,-3.3315,-3.2179,-3.1761,-1.9533,-2.0264,-2.1112,-2.5828,-2.8498,-3.0181,-3.0733,-3.1135,-3.1386,-3.1386,-3.0418,-2.9642,-3.0267,-2.8797,-2.8641,-3.232,-3.2635,-3.3162,-3.5236,-3.6544,-3.6496,-3.4408,-3.6087,0.0,0.0,0.0,0.0,-3.9146,-3.9145,-3.9091,-3.9,-3.8921,-3.8687,-3.8267,-3.8267,-3.8267,-3.8267,-3.7263,-3.6717,-3.6554,-3.5586,-3.4823,-3.4295,-3.3215,-3.2998,-3.3407,-3.1939,-3.3252,-3.6317,-3.5624,-3.7049,-3.9697,-3.9697,-3.9697,-3.9697,-3.9697,-3.9572,-3.9421,-3.9421,-3.9044,-3.8668,-3.9245,-3.9295,-3.9195,-3.9572,-3.9572,-3.9343,-3.908,-3.9212,-3.9318,-3.8856,-3.8938,-3.8994,-3.8442,-3.8442,-3.8366,-3.7613,-3.7588,-3.7688,-3.7487,-3.7613,-3.7563,-3.701,-3.7061,-3.638,-3.4017,-3.2932,-3.1403,-2.9104,-2.8041,-2.753,-2.7622,-2.8366,-2.9147,-2.9963,-2.9905,-3.0119,-3.0433,-2.9312,-2.9007,-2.9746,-2.943,-3.0942,-3.4687,-3.4635,-3.5389,-3.691,-3.5575,-3.4646,-3.41,-3.246,-3.2319,-2.0715,-2.2193,-2.3667,-2.8071,-3.0164,-3.121,-3.1361,-3.1863,-3.1686,-2.9776,-2.8548,-2.7416,-2.6282,-2.4695,-2.4915,-2.9173,-3.0094,-3.1369,-3.447,-3.5776,-3.5745,-3.4075,-3.57,-3.6267,0.0,0.0,0.0,-3.8516,-3.8944,-3.932,-3.9672,-3.9697,-3.9697,-3.9697,-3.9697,-3.9697,-3.9697,-3.8792,-3.8243,-3.8243,-3.6811,-3.6145,-3.6329,-3.5084,-3.455,-3.4673,-3.3191,-3.4156,-3.6831,-3.5848,-3.7308,-3.9973,-3.9772,-3.9697,-3.9697,-3.9697,-3.9697,-3.9697,-3.9697,-3.9471,-3.922,-3.9572,-3.9697,-3.9697,-3.9697,-3.9697,-3.9569,-3.9025,-3.9258,-3.9569,-3.9025,-3.9258,-3.9546,-3.8994,-3.9019,-3.8842,-3.7542,-3.7417,-3.729,-3.6565,-3.6584,-3.6536,-3.6006,-3.5909,-3.5118,-3.2994,-3.2192,-3.0909,-2.8246,-2.7891,-2.7773,-2.75,-2.8144,-2.8819,-2.9393,-2.9574,-2.9921,-3.0499,-3.0087,-2.9922,-3.0176,-3.0351,-3.2014,-3.5288,-3.5352,-3.6199,-3.7789,-3.71,-3.6351,-3.5623,-3.4477,-3.4534,-2.0308,-2.2908,-2.4894,-2.8654,-3.0954,-3.2064,-3.1593,-3.2137,-3.1442,-2.6847,-2.6123,-2.5241,0.0,0.0,-2.447,-2.7115,-2.9982,-3.2359,-3.3795,-3.5402,-3.6143,0.0,0.0,0.0,0.0,0.0,0.0,-3.7937,0.0,-3.9647,-3.9697,-3.9697,-3.9697,-3.9697,-3.9697,-3.9697,-3.9697,-3.9697,-3.9697,-3.9722,-3.8291,-3.7893,-3.8394,-3.6989,-3.6038,-3.5452,-3.477,-3.566,-3.7417,-3.6295,-3.7692,-4.045,-3.9898,-3.9697,-3.9697,-3.9697,-3.9697,-3.9697,-3.9697,-3.9697,-3.9697,-3.9697,-3.9697,-3.9697,-3.9697,-3.9697,-3.9362,-3.8007,-3.8582,-3.9362,-3.8031,-3.8687,-3.9572,-3.9044,-3.932,-3.896,-3.6422,-3.6383,-3.6156,-3.4072,-3.4129,-3.4285,-3.371,-3.3599,-3.3548,-3.3205,-3.1887,-3.0364,-2.8554,-2.8301,-2.8281,-2.8174,-2.8301,-2.8476,-2.8777,-2.8855,-2.916,-2.957,-3.0019,-3.0273,-3.0273,-3.0684,-3.2363,-3.5223,-3.5457,-3.6638,-3.8868,-3.8921,-3.8661,-3.804,-3.8015,-3.804,-2.4402,-2.6513,-2.7892,-2.9738,-3.1223,-3.223,-3.2432,-2.5831,-2.1275,-2.6892,-1.9813,-1.4258,0.0,0.0,0.0,-2.5903,-2.7836,0.0,-3.452,-3.5876,0.0,-3.5022,0.0,-3.616,-3.5694,-3.681,0.0,0.0,-3.8266,-3.8793,-3.9647,-3.9697,-3.9697,-3.9697,-3.9697,-3.9697,-3.9697,-3.9697,-3.9898,-4.03,-3.996,-4.0021,-4.0458,-3.9372,-3.8754,-3.8505,-3.6059,-3.6648,-3.9031,-3.6748,-3.7692,-4.045,-3.9898,-3.9697,-3.9697,-3.9697,-3.9697,-3.9697,-3.9697,-3.9697,-3.9697,-3.9697,-3.9697,-3.9697,-3.9697,-3.9697,-3.9594,-3.9233,-3.9362,-3.9594,-3.9258,-3.9465,-3.9672,-3.9521,-3.9597,-3.9183,-3.746,-3.7168,-3.6791,-3.5147,-3.4598,-3.4374,-3.4263,-3.3821,-3.3237,-3.2169,-3.174,-3.0694,-2.8593,-2.8301,-2.7833,-2.6825,-2.7886,-2.8353,-2.7327,-2.8821,-2.9922,-3.0039,-3.0762,-3.1172,-3.1172,-3.1289,-3.2697,-3.5714,-3.6335,-3.7444,-3.8868,-3.9814,-3.9694,-3.8642,-3.8216,-3.8467,-2.528,-2.7158,-2.8495,-2.9347,-3.0524,-3.1298,-3.0701,-2.633,-2.2649,-2.3546,-1.9208,-1.5687,-1.7013,-1.8112,0.0,0.0,0.0,0.0,-3.3357,-3.491,-3.5469,0.0,-3.6023,0.0,-3.6634,-3.7462,-3.7792,0.0,-3.829,-3.9019,-3.9672,-3.9129,-3.9025,-3.9697,-3.8477,-3.8031,-3.8687,-3.8687,-3.9297,-4.0526,-4.0526,-4.1053,-4.2057,-4.1201,-4.0296,-3.943,0.0,-3.815,-3.9013,-3.7768,-3.8704,-4.0802,-3.9998,-3.9697,-3.9697,-3.9697,-3.9697,-3.9697,-3.9697,-3.9697,-3.9697,-3.9697,-3.9697,-3.9697,-3.9697,-3.9697,-3.9697,-3.9697,-3.9697,-3.9697,-3.9697,-3.9258,-3.8687,-3.8687,-3.8243,-3.737,-3.5922,-3.5595,-3.5156,-3.3642,-3.3092,-3.3014,-3.3768,-3.3023,-3.2107,-3.1064,-3.0398,-2.942,-2.8009,-2.8391,-2.8501,-2.7713,-2.8603,-2.8925,-2.8314,-2.9449,-3.0371,-3.0762,-3.125,-3.1601,-3.1797,-3.1621,-3.286,-3.5893,-3.7012,-3.8067,-3.922,-4.0736,-4.0668,-3.922,-3.8894,-3.9094,-2.4629,-2.6364,-2.7755,-2.8431,-2.9362,-2.9797,-2.8217,-2.8365,-2.672,-1.9215,-2.0176,-2.0667,-1.5091,-1.7718,-2.1554,-2.4113,0.0,-2.9201,-3.175,-3.3735,-3.504,-3.525,-3.653,-3.7638,-3.8165,-3.8241,-3.7789,-3.6868,-3.8417,-3.9362,-3.9129,-3.7926,-3.7796,-3.9025,-3.6619,-3.5945,-3.724,-3.7311,-3.8179,-3.9964,-4.0014,-4.0988,-4.2725,-4.2363,-4.1118,-3.9424,0.0,0.0,-3.8512,-3.8594,-3.9782,-4.1229,-4.0199,-3.9747,-3.9697,-3.9697,-3.9747,-3.9798,-3.9722,-3.9747,-3.9798,-3.9722,-3.9697,-3.9697,-3.9697,-3.9697,-3.9697,-3.9697,-3.9697,-3.9697,-3.954,-3.8575,-3.7572,-3.7334,-3.6254,-3.4914,-3.3417,-3.2964,-3.2416,-3.1112,-3.0898,-3.1325,-3.2644,-3.1767,-3.0703,-3.0176,-2.8779,-2.7795,-2.7682,-2.8597,-2.9215,-2.9327,-2.9497,-2.9711,-3.0006,-3.0217,-3.0742,-3.1641,-3.1738,-3.1973,-3.2402,-3.2234,-3.3437,-3.6275,-3.7733,-3.9095,-4.016,-4.1785,-4.1593,-3.9981,-3.98,-3.9697,-2.541,-2.6607,-2.7755,-2.8431,-2.8833,-2.8979,-2.8394,-1.9933,0.0,-1.9079,-1.3172,-0.9624,-1.8051,-2.1203,-2.3997,-2.8413,-2.9886,-3.1198,-3.2935,-3.4932,-3.6007,0.0,0.0,0.0,0.0,0.0,0.0,0.0,0.0,-3.737,-3.6162,-3.5836,-3.5836,-3.6054,-3.5617,-3.5398,-3.5727,-3.6024,-3.6589,-3.7314,-3.7725,-3.9198,-4.1725,-4.1629,-4.1327,-4.0881,-3.9836,0.0,-4.0082,-3.8412,-3.909,-4.1279,-4.0626,-4.0099,-3.9697,-3.9697,-3.9973,-4.03,-3.9848,-3.9998,-4.03,-3.9848,-3.9697,-3.9697,-3.9697,-3.9697,-3.9697,-3.9697,-3.9697,-3.9461,-3.8645,-3.8203,-3.7637,-3.6428,-3.5983,-3.5334,-3.348,-3.2092,-3.1228,-3.0995,-3.0898,-3.0995,-3.1208,-3.1112,-3.0859,-3.0742,-2.9399,-2.8792,-3.0064,-2.8611,-2.7596,-2.771,-2.9165,-2.9776,-2.9009,-3.0348,-3.166,-3.2519,-3.2891,-3.3281,-3.373,-3.4634,-3.6156,-3.8498,-3.9873,-4.132,-4.2834,-4.2614,-4.2072,-4.1219,-4.016,-3.9697,-2.3055,-2.4465,-2.6676,-2.7153,-2.7364,-2.734,-2.7209,0.0,0.0,-1.9197,-1.6153,-1.4543,-1.9517,-2.3206,0.0,-2.917,-3.0336,-3.1216,-3.207,-3.4102,0.0,-3.592,0.0,0.0,0.0,0.0,0.0,0.0,0.0,-3.5288,-3.5288,-3.5288,-3.4648,-3.3098,-3.399,-3.4437,-3.4437,-3.4891,-3.5845,-3.7389,-3.7635,-3.9231,-4.2161,-4.1614,-4.1022,-4.0634,-4.0125,0.0,-3.8015,-3.7278,-3.8225,-3.9989,-3.9585,-3.9668,-4.0149,-4.045,-4.0727,-4.0902,-4.0651,-4.0727,-4.0902,-4.0651,-4.0149,-3.9747,-4.0023,-4.0124,-4.0124,-4.0124,-4.0325,-4.0259,-3.8899,-3.7956,-3.6951,-3.5474,-3.4402,-3.3298,-3.2194,-3.1441,-3.0898,-3.0898,-3.0898,-3.0898,-3.0898,-3.0898,-3.0645,-2.9766,-2.8902,-2.8737,-2.983,-2.8902,-2.8454,-2.9085,-3.0912,-3.1596,-3.0187,-3.2097,-3.3719,-3.439,-3.4001,-3.4799,-3.6981,-3.6308,-3.7295,-4.0352,-4.1209,-4.2262,-4.3504,-4.3882,-4.3509,-4.2544,-4.2278,-4.2239,-2.2127,-2.3963,-2.6561,-2.6913,-2.6667,-2.6225,-2.5931,-2.4216,-2.187,-1.9023,-1.9885,-2.106,-2.0606,-2.423,-2.7751,0.0,-3.0158,-3.0828,-3.1144,-3.3259,-3.5125,0.0,-3.8152,0.0,0.0,0.0,0.0,0.0,0.0,0.0,-3.4444,-3.4444,-3.3515,-3.127,-3.2606,-3.3334,-3.3334,-3.3788,-3.5008,-3.7023,-3.711,-3.8953,-4.2409,-4.1349,-4.0657,-4.0372,-4.0693,0.0,0.0,-3.7215,-3.8152,-3.9248,-3.8864,-3.9496,-4.0576,-4.1003,-4.1304,-4.1505,-4.1379,-4.1404,-4.1505,-4.1505,-4.0852,-4.0124,-4.0551,-4.0701,-4.0701,-4.0701,-4.1003,-4.0898,-3.903,-3.7702,-3.6324,-3.447,-3.2754,-3.1562,-3.123,-3.1172,-3.1172,-3.1172,-3.1094,-3.1035,-3.1035,-3.0957,-3.043,-2.9268,-2.8792,-2.8853,-2.9831,-2.9642,-2.9934,-3.1326,-3.312,-3.3872,-3.3051,-3.4847,-3.6146,-3.635,-3.5889,-3.6728,-3.9316,-3.8209,-3.9033,-4.2225,-4.3069,-4.3764,-4.4546,-4.543,-4.5246,-4.4077,-4.4497,-4.4678,-2.6238,-2.8738,-2.9192,-2.9899,-2.8456,-2.6648,-2.5425,0.0,-1.9484,-1.7884,-1.7859,-1.9068,-2.1972,-2.423,-2.6793,-3.0417,-3.0598,-3.0656,-3.1704,-3.3763,-3.5478,-3.5968,0.0,0.0,0.0,0.0,0.0,0.0,0.0,0.0,-3.19,-3.1801,-3.186,-3.2031,-3.2211,-3.2332,-3.2332,-3.2765,-3.3198,-3.3776,-3.4318,-3.6728,-4.0671,-4.013,-4.064,-4.2018,-4.1567,0.0,0.0,-3.9443,-3.9878,-4.0364,-4.0315,-4.0395,-4.0526,-4.0576,-4.1229,-4.2007,-4.1505,-4.1656,-4.2082,-4.2082,-4.1681,-4.1204,-4.1254,-4.1254,-4.1254,-4.1254,-4.1304,-4.0755,-3.8229,-3.7417,-3.6596,-3.3679,-3.2525,-3.209,-3.2051,-3.2051,-3.2051,-3.2051,-3.1738,-3.1465,-3.1465,-3.1133,-3.1016,-3.1149,-2.9953,-2.9867,-3.2189,-3.1127,-3.0988,-3.3019,-3.4411,-3.5896,-3.7599,-3.8372,-3.8473,-3.7782,-3.9147,-3.9318,-3.8101,-4.1392,-4.3589,-4.4144,-4.6439,-4.7717,-4.7911,-4.7415,-4.68,-4.6067,-4.5621,-4.5413,-2.1368,-2.6109,-2.9849,-2.9507,-2.8291,-2.6924,-2.6353,0.0,-1.9888,-2.0709,-1.9386,-1.9208,-2.2935,-2.5766,-2.8152,-2.9908,-3.1117,-3.1796,-3.1578,-3.2638,-3.4172,0.0,0.0,0.0,0.0,0.0,0.0,0.0,0.0,0.0,-3.2656,-3.2187,-3.1992,-3.2168,-3.2422,-3.2539,-3.2539,-3.3223,-3.3769,-3.4199,-3.4648,-3.6436,-3.9325,-3.8549,-3.9081,-4.064,-3.9836,0.0,0.0,-3.8206,-3.8812,-4.0074,-3.9758,-4.04,-4.153,-4.1882,-4.2283,-4.261,-4.2409,-4.2459,-4.266,-4.266,-4.2509,-4.2258,-4.1932,-4.1831,-4.1831,-4.1831,-4.2308,-4.2164,-3.9049,-3.681,-3.4984,-3.3282,-3.2676,-3.248,-3.2226,-3.2168,-3.2168,-3.2168,-3.2031,-3.1914,-3.1914,-3.1777,-3.1719,-3.1894,-3.1604,-3.1818,-3.3457,-3.3239,-3.3902,-3.6152,-3.7061,-3.7483,-3.7436,-3.9878,-4.1376,-4.1046,-4.0964,-4.1696,-4.353,-4.3894,-4.5089,-4.7086,-4.7885,-4.8377,-4.8865,-4.8652,-4.8617,-4.8673,-4.8822,-4.9126,-1.9002,-2.5103,-3.0226,-3.0616,-2.9528,-2.8135,-2.7354,0.0,-2.1187,-2.2377,-2.1204,-2.0869,-2.3986,-2.7371,-2.978,-3.0034,-3.1823,-3.2907,-3.2082,-3.2378,-3.3632,0.0,0.0,0.0,0.0,0.0,0.0,0.0,0.0,0.0,0.0,-3.3099,-3.2598,-3.2734,-3.2891,-3.3047,-3.3164,-3.3769,-3.4277,-3.4707,-3.5039,-3.6242,-3.8157,-3.738,-3.8114,-4.0167,0.0,0.0,0.0,-3.8478,-3.8901,-4.0241,-3.9685,-4.0586,-4.2208,-4.2585,-4.2836,-4.2986,-4.2986,-4.2986,-4.2986,-4.2986,-4.2986,-4.3022,-4.3034,-4.2713,-4.2409,-4.2409,-4.2725,-4.2616,-4.0495,-3.7459,-3.4812,-3.4198,-3.3539,-3.3066,-3.2637,-3.2539,-3.2539,-3.2539,-3.2539,-3.2539,-3.2539,-3.2539,-3.2578,-3.2715,-3.3086,-3.3672,-3.4531,-3.5019,-3.5949,-3.7881,-3.939,-3.9877,-3.911,-4.235,-4.4082,-4.3569,-4.3583,-4.45,-4.6668,-4.6604,-4.7433,-4.9638,-4.9698,-4.9875,-5.0122,-5.0331,-5.0571,-5.084,-5.1498,-5.2037,-2.1777,-2.7842,-3.0835,-3.4337,-3.3246,-3.0677,-2.8165,-2.5523,-2.3149,-2.1617,-2.2587,-2.4024,-2.5074,-2.8576,-3.1294,-3.1389,-3.279,-3.3792,-3.3505,-3.3456,0.0,0.0,0.0,0.0,0.0,0.0,0.0,0.0,0.0,0.0,0.0,-3.4238,-3.3613,-3.4043,-3.3633,-3.3633,-3.4062,-3.4062,-3.4277,-3.4707,-3.4707,-3.5581,-3.7318,-3.675,-3.8253,0.0,0.0,0.0,0.0,-4.1447,-4.1222,-4.1171,-4.0727,-4.1178,-4.2158,-4.2158,-4.2509,-4.2986,-4.2986,-4.2986,-4.2986,-4.2986,-4.2986,-4.3295,-4.4509,-4.3991,-4.2961,-4.2961,-4.2291,-4.1496,-4.2162,-3.9803,-3.7192,-3.6729,-3.5281,-3.3945,-3.3496,-3.3418,-3.3418,-3.3418,-3.3418,-3.3418,-3.3418,-3.3418,-3.3555,-3.3984,-3.4414,-3.5,-3.5879,-3.6387,-3.6816,-3.7246,-4.089,-4.3595,-4.4309,-4.6511,-4.6884,-4.469,-4.7536,-4.7951,-4.5288,-4.9473,-5.1696,-5.1135,-5.2398,-5.2815,-5.2187,-5.2815,-5.2815,-5.2187,-5.2845,-5.3174,-1.566,-2.2757,-2.8017,-2.9798,-2.9828,-2.9082,-2.7717,-2.605,-2.5113,-2.609,-2.6504,-2.732,-2.9185,-3.2355,-3.413,-3.26,-3.46,-3.5812,0.0,0.0,0.0,0.0,0.0,0.0,0.0,0.0,0.0,0.0,0.0,0.0,0.0,-3.4103,-3.3789,-3.3633,-3.3789,-3.3789,-3.3633,-3.4199,-3.4434,-3.4277,-3.457,-3.4949,-3.5561,-3.5012,0.0,0.0,0.0,0.0,0.0,-4.0483,-4.1176,-4.2409,-4.1856,-4.2082,-4.271,-4.271,-4.2836,-4.2986,-4.2986,-4.2986,-4.3184,-4.4126,-4.4318,-4.4643,-4.5978,-4.5449,-4.4692,-4.6516,-4.552,-4.3993,-4.4284,-4.1958,-3.9056,-3.7466,-3.6728,-3.5942,-3.4575,-3.4297,-3.4297,-3.4297,-3.4297,-3.4394,-3.4707,-3.4766,-3.4902,-3.5332,-3.5762,-3.6348,-3.7207,-3.7695,-3.8262,-3.9004,-4.255,-4.4481,-4.3208,-4.6439,-4.8459,-4.8564,-4.8968,-5.0027,-5.164,-5.2676,-5.3396,-5.3793,-5.4202,-5.3952,-5.2875,-5.3084,-5.3324,-5.3593,-5.47,-5.497,-1.2939,-1.925,-2.5031,-2.7746,-2.8625,-2.8515,-2.7419,-2.7211,-2.7291,-2.7529,-2.8469,-2.9551,-3.0695,-3.3376,-3.4963,-3.3427,-3.5652,-3.6908,0.0,0.0,0.0,0.0,0.0,0.0,0.0,0.0,0.0,0.0,0.0,0.0,0.0,-3.3828,-3.3691,-3.3437,-3.3691,-3.3769,-3.3672,-3.4199,-3.4336,-3.4082,-3.4336,-3.4375,-3.4199,-3.3945,0.0,0.0,0.0,0.0,0.0,-3.9105,-4.0116,-4.2076,-4.1533,-4.2016,-4.2986,-4.2986,-4.3112,-4.3263,-4.3062,-4.3112,-4.335,-4.4094,-4.4941,-4.5978,-4.6785,-4.6637,-4.649,-4.8401,-4.7943,-4.682,-4.6618,-4.4519,-4.1862,-3.9182,-3.7954,-3.7037,-3.51,-3.4707,-3.4707,-3.4707,-3.4961,-3.5293,-3.5586,-3.5898,-3.625,-3.668,-3.7109,-3.7637,-3.832,-3.8789,-3.9297,-3.9844,-4.3465,-4.5281,-4.387,-4.7461,-5.0104,-5.0838,-5.1287,-5.2602,-5.5048,-5.5047,-5.5272,-5.5721,-5.5282,-5.477,-5.3952,-5.4192,-5.4521,-5.497,-5.5471,-5.5424,0.0,-1.7448,-2.2071,-2.7465,-2.8925,-2.8704,-2.7468,-2.8689,0.0,-2.7091,-2.9134,-3.1175,-3.0549,-3.2698,-3.4404,-3.3987,-3.6007,0.0,0.0,0.0,0.0,0.0,0.0,0.0,0.0,0.0,0.0,0.0,0.0,0.0,0.0,-3.3418,-3.3418,-3.3418,-3.3418,-3.3613,-3.4023,-3.4062,-3.4062,-3.4023,-3.4023,-3.3809,-3.3418,-3.3418,0.0,0.0,0.0,0.0,0.0,-3.7495,-3.8501,-4.0429,-3.9841,-4.0894,-4.2675,-4.2675,-4.3024,-4.3422,-4.2899,-4.3049,-4.3348,-4.3137,-4.4807,-4.6991,-4.715,-4.7799,-4.8618,-4.907,-4.9681,-4.9885,-4.8946,-4.7353,-4.513,-4.1433,-3.9343,-3.7582,-3.5297,-3.4844,-3.4844,-3.4883,-3.5547,-3.6113,-3.6152,-3.6836,-3.7539,-3.7949,-3.8379,-3.8828,-3.9238,-3.9668,-3.9961,-3.998,-4.3805,-4.62,-4.5729,-4.9334,-5.1714,-5.2245,-5.4167,-5.5467,-5.5927,-5.6751,-5.7149,-5.7053,-5.588,-5.5269,-5.5329,-5.5825,-5.6153,-5.6109,-5.5205,-5.4672,-1.457,0.0,-2.0267,-2.3332,-2.525,-2.6832,0.0,-2.8842,-2.9688,-3.282,-3.3722,0.0,0.0,-3.6906,-3.7263,-3.5148,0.0,0.0,0.0,0.0,0.0,0.0,0.0,0.0,0.0,0.0,0.0,0.0,0.0,0.0,0.0,-3.3418,-3.3418,-3.3418,-3.3418,-3.3476,-3.3574,-3.3906,-3.3906,-3.3574,-3.3574,-3.3516,-3.3418,-3.3418,0.0,0.0,0.0,0.0,-3.6396,-3.6289,-3.7156,-3.8794,-3.868,-3.9072,-3.9864,-3.9864,-4.0186,-4.0479,-4.0364,-4.0158,-4.0313,-4.2125,-4.3868,-4.5633,-4.7174,-4.9677,-5.2023,-5.217,-5.2178,-5.1988,-5.0574,-4.9026,-4.6764,-4.2143,-4.0746,-3.9671,-3.6813,-3.6211,-3.6309,-3.6621,-3.6855,-3.709,-3.7422,-3.793,-3.8418,-3.8828,-3.9297,-3.9746,-4.0156,-4.0312,-4.0508,-4.084,-4.4465,-4.6827,-4.6715,-5.1061,-5.399,-5.4406,-5.6592,-5.8188,-5.8899,-5.9096,-5.8781,-5.7797,-5.6607,-5.6166,-5.6645,-5.5683,-5.5329,-5.5684,-5.4346,-5.3689,-1.8236,-1.9383,-2.0419,-2.3086,-2.5308,-2.7444,-2.9534,-3.0634,-3.1866,-3.4113,-3.4864,0.0,0.0,0.0,0.0,0.0,0.0,0.0,0.0,0.0,0.0,0.0,0.0,0.0,0.0,0.0,0.0,0.0,0.0,0.0,0.0,-3.3418,-3.3418,-3.3418,-3.3418,-3.3418,-3.3418,-3.3652,-3.3652,-3.3418,-3.3418,-3.3418,-3.3418,-3.3418,-3.3418,0.0,0.0,0.0,-3.4736,-3.4736,-3.5704,-3.7122,-3.7122,-3.7659,-3.8649,-3.8774,-3.9154,-3.9556,-3.9556,-3.94,-3.9209,-3.9817,-4.1413,-4.3538,-4.4678,-4.7514,-5.0777,-5.2209,-5.2289,-5.1727,-5.0933,-4.8973,-4.6339,-4.2431,-4.0868,-3.9683,-3.7391,-3.6953,-3.7031,-3.7246,-3.7617,-3.7949,-3.8184,-3.875,-3.9316,-3.9746,-4.0019,-4.0332,-4.0762,-4.082,-4.0918,-4.1152,-4.4699,-4.7276,-4.8056,-5.3088,-5.598,-5.5618,-5.7739,-5.9304,-5.9858,-5.9562,-5.8837,-5.7647,-5.6967,-5.6571,-5.6417,-5.5916,-5.5566,-5.5359,-5.4074,-5.3484,-2.2622,-2.241,-2.2366,-2.4475,-2.6622,-2.8666,-3.0213,-3.2386,-3.4014,-3.3825,-3.4846,-3.5836,0.0,-3.5124,0.0,0.0,0.0,0.0,0.0,0.0,0.0,0.0,0.0,0.0,0.0,0.0,0.0,0.0,0.0,0.0,0.0,-3.3379,-3.3418,-3.3418,-3.3418,-3.3418,-3.3418,-3.3418,-3.3418,-3.3418,-3.3418,-3.3418,-3.3418,-3.3418,-3.3418,-3.3418,0.0,0.0,-3.332,-3.3398,-3.4218,-3.5354,-3.5417,-3.638,-3.7648,-3.8065,-3.8379,-3.8499,-3.814,-3.7909,-3.7804,-3.6748,-3.8276,-4.0652,-4.1322,-4.3688,-4.6882,-4.9912,-5.0791,-5.0602,-5.0211,-4.8105,-4.5257,-4.2243,-4.049,-3.9081,-3.7806,-3.7539,-3.7617,-3.7676,-3.8281,-3.8769,-3.8769,-3.9453,-4.0117,-4.0469,-4.0586,-4.0781,-4.1211,-4.1211,-4.1347,-4.1697,-4.4891,-4.7813,-4.9886,-5.4919,-5.7633,-5.6593,-5.8752,-6.0076,-6.0113,-5.9417,-5.8563,-5.7393,-5.7513,-5.7065,-5.6105,-5.6394,-5.6007,-5.4937,-5.3774,-5.3269,-2.527,-2.6437,-2.7004,-2.4655,-2.5579,-2.7602,-2.9647,-3.0887,-3.255,-3.5816,-3.6953,-3.7052,-3.611,-3.5117,-3.408,0.0,0.0,0.0,0.0,0.0,0.0,0.0,0.0,0.0,0.0,0.0,0.0,0.0,0.0,0.0,0.0,-3.3223,-3.3418,-3.3418,-3.3418,-3.3418,-3.3418,-3.3418,-3.3418,-3.3418,-3.3418,-3.3418,-3.3418,-3.3418,-3.3418,-3.3418,0.0,-3.3223,-3.293,-3.3281,-3.3328,-3.3282,-3.3638,-3.4358,-3.5251,-3.5331,-3.4673,-3.3476,-3.146,-3.1025,-3.1643,-3.3915,-3.4953,-3.6105,-3.9941,-4.142,-4.2418,-4.4546,-4.7808,-5.0099,-4.7844,-4.6894,-4.5427,-4.1172,-4.0288,-3.9873,-3.8695,-3.8652,-3.9023,-3.9414,-3.9609,-3.9687,-3.9687,-4.0098,-4.0449,-4.0508,-4.084,-4.123,-4.1641,-4.1387,-4.1892,-4.3875,-4.5791,-4.839,-5.1792,-5.5655,-5.8327,-5.8937,-6.1665,-6.2531,-6.0927,-6.0244,-5.9555,-5.88,-5.9338,-5.9103,-5.8059,-5.6845,-5.5744,-5.4569,-5.2565,-5.1899,-2.6802,-2.8101,-2.8665,-2.5873,-2.7537,-3.0107,-3.1146,-3.1987,-3.3215,-3.5476,-3.6157,-3.5978,0.0,0.0,0.0,0.0,0.0,0.0,0.0,0.0,0.0,0.0,0.0,0.0,0.0,0.0,0.0,0.0,0.0,0.0,0.0,0.0,-3.2988,-3.2754,-3.2734,-3.2734,-3.2734,-3.2734,-3.2969,-3.3418,-3.2969,-3.2871,-3.3086,-3.3086,-3.2969,-3.2754,0.0,-3.2851,-3.248,-3.2656,-3.2773,-3.2812,-3.3008,-3.3457,-3.3914,-3.3198,-3.2721,-3.2129,-2.9028,-2.8927,-3.0343,-3.1999,-3.3258,-3.4618,-3.8024,-3.9601,-4.0536,-4.1463,-4.3857,-4.6044,-4.5353,-4.3206,-4.0865,-3.9269,-3.7336,-3.6091,-3.5869,-3.6004,-3.6489,-3.7796,-3.8326,-3.8802,-4.0082,-4.0586,-4.0879,-4.0879,-4.1035,-4.1328,-4.1758,-4.1621,-4.2325,-4.444,-4.6374,-4.9078,-5.351,-5.6434,-5.8879,-6.0735,-6.1868,-6.2038,-6.1095,-6.0776,-6.0505,-6.0206,-6.0475,-5.9621,-5.7659,-5.6926,-5.5788,-5.3971,-5.281,-5.2452,-2.7599,-2.8739,-2.9252,-2.7129,-2.9099,-3.1548,-3.1554,-3.2246,-3.313,-3.3918,-3.4296,-3.4127,0.0,0.0,0.0,0.0,0.0,0.0,0.0,0.0,0.0,0.0,0.0,0.0,0.0,0.0,0.0,0.0,0.0,0.0,0.0,0.0,-3.25,-3.2187,-3.2168,-3.2168,-3.2168,-3.207,-3.2383,-3.3125,-3.248,-3.2344,-3.2656,-3.2656,-3.248,-3.2187,-3.2519,-3.2402,-3.2031,-3.2226,-3.2441,-3.2676,-3.2871,-3.3203,-3.3339,-3.1538,-3.1202,-3.1305,-2.7599,-2.7417,-2.9218,-3.0496,-3.1936,-3.3678,-3.6425,-3.8307,-3.9461,-3.9461,-4.0467,-4.1743,-4.2951,-4.0188,-3.7074,-3.741,-3.4963,-3.2879,-3.3421,-3.3618,-3.4317,-3.6528,-3.7246,-3.8108,-4.0356,-4.1401,-4.1907,-4.1907,-4.1907,-4.2106,-4.2644,-4.2171,-4.2781,-4.5524,-4.6852,-4.9888,-5.526,-5.7459,-5.9672,-6.2216,-6.1852,-6.1493,-6.1343,-6.1493,-6.1493,-6.1343,-6.1642,-6.0531,-5.8035,-5.7799,-5.6551,-5.4555,-5.3759,-5.3532,-2.7589,-2.8552,-2.9251,-2.7779,-2.8236,-2.892,-2.8463,-2.932,-3.0479,-3.1214,-3.2074,-3.1997,0.0,0.0,0.0,0.0,0.0,0.0,0.0,0.0,0.0,0.0,0.0,0.0,0.0,0.0,0.0,0.0,0.0,0.0,0.0,0.0,0.0,-3.2168,-3.2168,-3.2168,-3.2168,-3.1758,-3.1797,-3.2266,-3.2207,-3.2187,-3.2207,-3.2207,-3.2207,-3.2168,-3.2207,-3.1973,-3.1621,-3.2422,-3.2539,-3.2285,-3.3066,-3.3633,-3.3618,-3.0293,-2.9427,-2.9314,-2.5413,-2.4444,-2.5639,-2.9202,-3.0717,-3.1929,-3.5982,-3.77,-3.8014,-3.8014,-3.8452,-3.9206,-4.0375,-3.9354,-3.7594,-3.6399,-3.4917,-3.3848,-3.3898,-3.4338,-3.5231,-3.7329,-3.7842,-3.8511,-4.0802,-4.2616,-4.3945,-4.3945,-4.3945,-4.4127,-4.5024,-4.3255,-4.3609,-4.8256,-4.8177,-5.0485,-5.7213,-5.9352,-6.111,-6.2874,-6.2959,-6.266,-6.2061,-6.26,-6.266,-6.2032,-6.3199,-6.2943,-6.1192,-6.0102,-5.8744,-5.6999,-5.5255,-5.4461,-2.7574,-2.8122,-2.8087,-2.757,-2.8189,-2.917,-3.0023,-3.0199,-3.0452,-3.1268,-3.1818,-3.164,0.0,0.0,0.0,0.0,0.0,0.0,0.0,0.0,0.0,0.0,0.0,0.0,0.0,0.0,0.0,0.0,0.0,0.0,0.0,0.0,0.0,-3.1387,-3.1367,-3.1367,-3.1367,-3.1211,-3.1211,-3.1367,-3.1367,-3.1504,-3.1758,-3.1758,-3.1621,-3.1387,-3.166,-3.1523,-3.1152,-3.1484,-3.1836,-3.2246,-3.3086,-3.3516,-3.3398,-3.1006,-3.0432,-3.0668,-2.8063,-2.763,-2.8644,-3.1571,-3.2771,-3.375,-3.6808,-3.7988,-3.832,-3.832,-3.7524,-3.6773,-3.6903,-3.5907,-3.4381,-3.2797,-3.1213,-3.017,-3.036,-3.0505,-3.1241,-3.3512,-3.4975,-3.6602,-3.8724,-4.1962,-4.4096,-4.4096,-4.5127,-4.6111,-4.6789,-4.6354,-4.716,-5.0238,-5.238,-5.4842,-5.82,-6.007,-6.172,-6.3531,-6.3288,-6.2959,-6.272,-6.3318,-6.3528,-6.3288,-6.4186,-6.4067,-6.2765,-6.1053,-5.9805,-5.8911,-5.6698,-5.5767,-2.6169,-2.67,-2.6873,-2.6944,-2.7261,-2.8168,-3.0599,-3.0665,-3.0322,-3.0726,-3.0269,-3.0013,-3.0477,0.0,0.0,0.0,0.0,0.0,0.0,0.0,0.0,0.0,0.0,0.0,0.0,0.0,0.0,0.0,0.0,0.0,0.0,0.0,0.0,0.0,-3.0898,-3.1112,-3.1556,-3.1112,-3.1112,-3.1556,-3.1112,-3.1035,-3.1328,-3.1328,-3.1172,-3.0918,-3.1191,-3.1152,-3.0898,-3.1035,-3.1223,-3.1665,-3.2874,-3.3116,-3.2573,-3.1377,-3.1475,-3.189,-3.0088,-2.9798,-3.066,-3.3038,-3.416,-3.4865,-3.7201,-3.8223,-3.8574,-3.8574,-3.7734,-3.6237,-3.461,-3.3195,-3.1732,-3.0656,-2.9072,-2.7896,-2.8096,-2.8136,-2.8796,-3.091,-3.3186,-3.5298,-3.7578,-4.1902,-4.4977,-4.4977,-4.6735,-4.8086,-4.8611,-4.8381,-4.9101,-5.119,-5.5076,-5.7892,-5.8989,-6.0722,-6.2477,-6.4487,-6.4246,-6.3917,-6.3707,-6.4306,-6.4635,-6.4635,-6.5503,-6.5644,-6.4881,-6.3204,-6.1847,-6.1004,-5.8693,-5.7486,-2.3217,-2.4249,-2.572,-2.5879,-2.5179,-2.5463,-2.9349,-3.0108,-2.9859,-2.9098,-2.7201,-2.6577,-2.9283,0.0,0.0,0.0,0.0,0.0,0.0,0.0,0.0,0.0,0.0,0.0,0.0,0.0,0.0,0.0,0.0,0.0,0.0,0.0,0.0,0.0,-3.0898,-3.1652,-3.3077,-3.1652,-3.1652,-3.3077,-3.1536,-3.0898,-3.0898,-3.0898,-3.0898,-3.0898,-3.0898,-3.0898,-3.0918,-3.1348,-3.1001,-3.0483,-3.2593,-3.263,-3.1402,-3.1402,-3.1889,-3.2284,-3.0615,-3.0153,-3.0801,-3.3038,-3.416,-3.5009,-3.7182,-3.8223,-3.8574,-3.8574,-3.8867,-3.8269,-3.3958,-3.159,-3.0349,-3.0676,-2.9395,-2.8136,-2.8136,-2.8136,-2.8796,-3.091,-3.3186,-3.5298,-3.7578,-4.2932,-4.7051,-4.7051,-4.8817,-5.0175,-5.053,-4.8974,-4.8714,-5.1166,-5.5431,-5.8615,-5.9725,-6.15,-6.3502,-6.586,-6.6011,-6.5742,-6.5084,-6.5682,-6.6041,-6.6041,-6.7298,-6.7986,-6.8016,-6.6896,-6.5383,-6.3446,-6.1648,-5.9705,-2.339,-2.4656,0.0,-2.6526,0.0,0.0,-3.1265,-3.0385,-2.9542,-3.085,-2.8783,-2.7122,-2.8553,0.0,0.0,0.0,0.0,0.0,0.0,0.0,0.0,0.0,0.0,0.0,0.0,0.0,0.0,0.0,0.0,0.0,0.0,0.0,0.0,0.0,-3.0898,-3.1652,-3.3077,-3.1652,-3.1652,-3.3077,-3.1536,-3.0898,-3.0898,-3.0898,-3.0898,-3.0898,-3.0898,-3.0898,-3.0957,-3.168,-3.2041,-3.221,-3.3467,-3.3688,-3.3306,-3.3593,-3.4051,-3.4412,-3.3989,-3.396,-3.4452,-3.5154,-3.5826,-3.6521,-3.695,-3.7754,-3.8516,-3.8203,-3.7359,-3.6421,-3.5616,-3.4121,-3.1935,-2.9236,-2.8411,-2.8136,-2.8136,-2.8136,-2.8796,-3.091,-3.3186,-3.5544,-3.7935,-4.3556,-4.7701,-4.8037,-5.1079,-5.336,-5.3903,-5.3519,-5.357,-5.4719,-5.7152,-5.9093,-6.0226,-6.2422,-6.461,-6.6547,-6.7148,-6.7089,-6.643,-6.7029,-6.7388,-6.7388,-6.8256,-6.9123,-7.0021,-6.8414,-6.7695,-6.7972,-6.4679,-6.2798,-2.2509,-2.4075,0.0,-2.6738,-2.835,-3.0287,-3.2521,0.0,0.0,0.0,-2.987,-2.789,-2.8566,0.0,0.0,0.0,0.0,0.0,0.0,0.0,0.0,0.0,0.0,0.0,0.0,0.0,0.0,0.0,0.0,0.0,0.0,0.0,0.0,0.0,-3.0898,-3.1652,-3.3077,-3.1652,-3.1652,-3.3077,-3.1536,-3.0898,-3.0898,-3.0898,-3.0898,-3.0898,-3.0157,-2.953,-2.8975,-2.98,-3.0277,-3.0714,-3.2335,-3.3103,-3.3424,-3.4541,-3.5254,-3.5644,-3.5644,-3.5801,-3.6055,-3.623,-3.6738,-3.7285,-3.7187,-3.7832,-3.8661,-3.9086,-3.8806,-3.8432,-3.8744,-3.7718,-3.5398,-3.136,-3.0612,-3.0759,-3.0759,-3.0759,-3.1076,-3.2546,-3.4489,-3.6563,-3.824,-4.3762,-4.797,-4.844,-5.1993,-5.4687,-5.5013,-5.5265,-5.5591,-5.6143,-5.8717,-6.0699,-6.1654,-6.4438,-6.6892,-6.8495,-6.8914,-6.9183,-6.9333,-6.8974,-6.8884,-6.9123,-6.9812,-7.0649,-7.1697,-7.0577,-7.0088,-6.9984,-6.7647,-6.5735,-2.1187,-2.3226,-2.5492,-2.6785,-2.794,0.0,-3.3406,-3.41,-3.365,-3.3037,0.0,0.0,0.0,0.0,0.0,0.0,0.0,0.0,0.0,0.0,0.0,0.0,0.0,0.0,0.0,0.0,0.0,0.0,0.0,0.0,0.0,0.0,0.0,-3.0898,-3.0898,-3.1652,-3.3077,-3.1652,-3.1652,-3.3077,-3.1536,-3.0898,-3.0898,-3.0898,-3.0762,-3.0528,-2.892,-2.7366,-2.6133,-2.681,-2.7267,-2.7671,-3.0467,-3.1806,-3.2588,-3.472,-3.5684,-3.6016,-3.6016,-3.6016,-3.6094,-3.6523,-3.6953,-3.7363,-3.7754,-3.8328,-3.9116,-4.0737,-4.2057,-4.2855,-4.2583,-4.1861,-4.0086,-3.6657,-3.5282,-3.4651,-3.4651,-3.4651,-3.4813,-3.512,-3.6887,-3.8481,-3.924,-4.4286,-4.8508,-4.9224,-5.2549,-5.4863,-5.4863,-5.5315,-5.5817,-5.6319,-6.0074,-6.2811,-6.3363,-6.6985,-6.9662,-7.0829,-7.1009,-7.1637,-7.2864,-7.1188,-7.05,-7.1068,-7.1667,-7.2325,-7.3013,-7.3013,-7.2146,-7.0576,-7.0296,-6.8393,-2.2326,-2.4587,0.0,-2.8774,-3.1539,-3.4082,-3.4703,-3.5099,-3.5473,-3.5973,0.0,0.0,0.0,0.0,0.0,0.0,0.0,0.0,0.0,0.0,0.0,0.0,0.0,0.0,0.0,0.0,0.0,0.0,0.0,0.0,0.0,0.0,0.0,-3.0898,-3.0898,-3.1652,-3.3077,-3.1652,-3.1652,0.0,-3.1536,-3.0898,-3.0898,-3.0898,-3.0157,-2.8902,-2.7194,-2.6683,-2.6859,-2.7024,-2.8188,-3.0095,-3.1379,-3.2858,-3.4258,-3.5451,-3.5937,-3.6016,-3.6016,-3.6016,-3.6094,-3.6523,-3.6953,-3.7324,-3.7402,-3.8908,-4.0717,-4.0766,-4.2301,-4.4029,-4.4759,-4.3745,-4.2941,-4.4039,-3.9462,-3.4651,-3.4651,-3.4651,-3.5587,-3.8817,-3.991,-4.1424,-4.5699,-4.8779,-5.1816,-5.4719,-5.6253,-5.7173,-5.7173,-5.7298,-5.7399,-5.7524,-6.0927,-6.3253,-6.3391,-6.777,-7.062,-7.0889,-7.1906,-7.2624,-7.2894,-7.2505,-7.2355,-7.2475,-7.2624,-7.3013,-7.3672,-7.3672,-7.3806,-7.3842,-7.2191,-7.0994,-2.2171,0.0,0.0,-3.0939,0.0,-3.5644,-3.5917,-3.5761,-3.5646,0.0,0.0,0.0,0.0,0.0,0.0,0.0,0.0,0.0,0.0,0.0,0.0,0.0,0.0,0.0,0.0,0.0,0.0,0.0,0.0,0.0,0.0,-3.0898,-3.0898,-3.0898,-3.0898,-3.1208,-3.2092,-3.1325,-3.1325,-3.2092,-3.1208,-3.0509,-2.9648,-2.9648,-2.8426,-2.6122,-2.5269,-2.4704,-2.4449,-2.46,-2.608,-2.8477,-3.0169,-3.1953,-3.386,-3.5355,-3.6016,-3.6016,-3.6016,-3.6152,-3.6367,-3.6601,-3.709,-3.7598,-3.7598,-3.9273,-4.1425,-4.215,-4.425,-4.6426,-4.7785,-4.6957,-4.6608,-4.9203,-4.4657,-3.9793,-4.0395,-4.0531,-4.1148,-4.3304,-4.3757,-4.4848,-4.8027,-5.0781,-5.3804,-5.695,-5.77,-5.7901,-5.7901,-5.8127,-5.8378,-5.8629,-6.2285,-6.4827,-6.5103,-6.9312,-7.1996,-7.2325,-7.2984,-7.3522,-7.3851,-7.3851,-7.3702,-7.3402,-7.3373,-7.3702,-7.436,-7.436,-7.454,-7.4869,-7.3812,-7.277,-2.1486,-2.4279,-2.7705,-3.2431,-3.4525,0.0,-3.6818,-3.594,-3.5211,0.0,0.0,0.0,0.0,0.0,0.0,0.0,0.0,0.0,0.0,0.0,0.0,0.0,0.0,0.0,0.0,0.0,0.0,0.0,0.0,0.0,-3.0898,-3.0898,-3.0898,-3.0898,-3.0898,-3.0898,-3.0898,-3.0898,-3.0898,-3.0898,-3.0645,-2.9648,-2.7931,-2.7692,-2.6122,-2.3574,-2.3325,-2.2553,-2.1643,-2.1884,-2.3364,-2.5712,-2.7924,-3.0327,-3.2657,-3.4755,-3.5724,-3.6133,-3.6522,-3.6935,-3.7332,-3.7786,-3.8307,-3.8888,-3.8969,-4.0489,-4.243,-4.4094,-4.6721,-4.9092,-5.0348,-5.0108,-5.0101,-5.2302,-4.9937,-4.6961,-4.7029,-4.7299,-4.7568,-4.7858,-4.8696,-4.9427,-5.0179,-5.2957,-5.5746,-5.7775,-5.8202,-5.8303,-5.8303,-5.9085,-5.9896,-6.0327,-6.4264,-6.7062,-6.7564,-7.0934,-7.3313,-7.3851,-7.4001,-7.43,-7.4869,-7.4869,-7.4629,-7.4061,-7.4061,-7.433,-7.4869,-7.4869,-7.4869,-7.4869,-7.4869,-7.3981,-2.0923,0.0,-2.9415,0.0,-3.3646,-3.5122,0.0,0.0,0.0,0.0,0.0,0.0,0.0,0.0,0.0,0.0,0.0,0.0,0.0,0.0,0.0,0.0,0.0,0.0,0.0,0.0,0.0,0.0,0.0,0.0,-3.0898,-3.0898,-3.0898,-3.0898,-3.0898,-3.0898,-3.0898,-3.0898,-3.0898,-3.0898,-2.9412,-2.7931,-2.6227,-2.4901,-2.407,-2.3574,-2.2104,-2.1673,-2.1937,-2.1977,-2.3364,-2.5547,-2.633,-2.8853,-3.2258,-3.2929,-3.4652,-3.6858,-3.8418,-3.925,-3.9962,-4.1825,-4.2588,-4.2764,-4.3184,-4.4186,-4.5457,-4.6264,-4.8331,-5.0456,-5.0695,-5.103,-5.1668,-5.2616,-5.3868,-5.3419,-4.8148,-4.8177,-4.9769,-5.1403,-5.5221,-5.8,-5.7562,-5.8693,-5.9463,-5.8656,-5.9408,-5.9985,-5.9985,-6.1942,-6.3507,-6.3586,-6.7162,-6.9588,-6.9674,-7.2228,-7.3791,-7.3881,-7.442,-7.4779,-7.4869,-7.4869,-7.4839,-7.4749,-7.4749,-7.4779,-7.4869,-7.4869,-7.4869,-7.4869,-7.4869,-7.4731,-2.0396,-2.4396,-2.8272,0.0,-3.2062,-3.3481,-3.4305,0.0,0.0,0.0,0.0,0.0,0.0,0.0,0.0,0.0,0.0,0.0,0.0,0.0,0.0,0.0,0.0,0.0,0.0,0.0,0.0,0.0,0.0,-3.0898,-3.0898,-3.0644,-3.0625,-3.0879,-3.0644,-3.0508,-3.0508,-3.0762,-3.0393,-2.931,-2.7493,-2.5807,-2.4374,-2.2864,-2.2215,-2.2215,-2.1475,-2.1349,-2.175,-2.1924,-2.2859,-2.4238,-2.581,-2.826,-3.0977,-3.248,-3.5196,-3.8385,-3.9155,-4.0565,-4.2005,-4.225,-4.2945,-4.3825,-4.4049,-4.5186,-4.6264,-4.5457,-4.8753,-5.2595,-5.3567,-5.4076,-5.4787,-5.6283,-5.7496,-5.7287,-5.3881,-5.3829,-5.4733,-5.5921,-5.8069,-6.0034,-6.0892,-6.2031,-6.2714,-6.2925,-6.3628,-6.416,-6.416,-6.542,-6.6372,-6.6372,-6.9185,-7.1191,-7.1191,-7.3221,-7.445,-7.445,-7.4719,-7.4869,-7.4869,-7.4869,-7.4869,-7.4869,-7.4869,-7.4869,-7.4869,-7.4869,-7.4869,-7.4869,-7.4869,-7.4869,0.0,0.0,-2.6115,-2.8086,-3.0158,-3.1877,0.0,0.0,0.0,0.0,0.0,0.0,0.0,0.0,0.0,0.0,0.0,0.0,0.0,0.0,0.0,0.0,0.0,0.0,0.0,0.0,0.0,0.0,0.0,-3.084,-3.0723,-3.0391,-3.0312,-3.0547,-3.0215,-3.0039,-3.0039,-3.0391,-2.9718,-2.7948,-2.6152,-2.4531,-2.3215,-2.1742,-2.1109,-2.1109,-2.1109,-2.1283,-2.1577,-2.1871,-2.2285,-2.3079,-2.5564,-2.7802,-3.0098,-3.2311,-3.5859,-3.9593,-4.011,-4.2059,-4.4186,-4.3669,-4.4391,-4.548,-4.548,-4.6422,-4.7245,-4.5885,-5.0081,-5.5068,-5.6114,-5.6565,-5.724,-5.9256,-5.9749,-5.9626,-5.8884,-5.8746,-5.9179,-6.03,-6.1161,-6.1976,-6.3264,-6.4439,-6.5279,-6.6103,-6.6795,-6.7238,-6.7404,-6.8399,-6.8937,-6.8937,-7.1137,-7.2599,-7.2599,-7.3981,-7.4869,-7.4869,-7.4869,-7.4869,-7.4869,-7.4869,-7.4869,-7.4869,-7.4869,-7.4869,-7.4869,-7.4869,-7.4869,-7.4869,-7.4869,-7.4869,0.0,-2.0677,0.0,-2.5317,-2.8027,0.0,0.0,0.0,0.0,0.0,0.0,0.0,0.0,0.0,0.0,0.0,0.0,0.0,0.0,0.0,0.0,0.0,0.0,0.0,0.0,0.0,0.0,0.0,0.0,-3.0703,-3.0254,-3.0215,-3.0019,-2.9648,-2.9609,-2.9609,-2.9609,-2.9629,-2.9013,-2.7831,-2.6152,-2.4658,-2.3544,-2.1839,-2.1109,-2.1109,-2.1109,-2.1283,-2.1577,-2.1871,-2.2164,-2.2633,-2.5242,-2.7579,-2.9713,-3.1903,-3.5801,-4.035,-4.2038,-4.4423,-4.6908,-4.8558,-4.9282,-4.9307,-4.9307,-4.9332,-4.9461,-4.9307,-5.3343,-5.7492,-5.6581,-5.7066,-5.8257,-5.938,-6.0116,-6.048,-6.0359,-6.0847,-6.2,-6.4188,-6.5739,-6.6494,-6.6026,-6.6538,-6.6828,-6.6247,-6.6623,-6.723,-6.7838,-7.0214,-7.1654,-7.1654,-7.3503,-7.4731,-7.4731,-7.4869,-7.4869,-7.4869,-7.4869,-7.4869,-7.4869,-7.4869,-7.4869,-7.4869,-7.4869,-7.4869,-7.4869,-7.4869,-7.4869,-7.4869,-7.4869,-7.4869,0.0,0.0,0.0,-2.1858,-2.3871,-2.5456,0.0,0.0,0.0,0.0,0.0,0.0,0.0,0.0,0.0,0.0,0.0,0.0,0.0,0.0,0.0,0.0,0.0,0.0,0.0,0.0,0.0,0.0,0.0,0.0,-2.9805,-2.9531,-2.9434,-2.957,-2.9297,-2.9297,-2.957,-2.9023,-2.8309,-2.7452,-2.6742,-2.5881,-2.4811,-2.4423,-2.4271,-2.4163,-2.3201,-2.216,-2.1309,-2.179,-2.269,-2.4043,-2.5754,-2.8301,-3.1361,-3.3699,-3.7685,-4.2082,-4.3802,-4.6227,-4.8763,-4.9332,-4.959,-4.959,-4.959,-4.959,-5.0844,-5.6632,-5.7327,-5.6883,-5.9937,-6.0163,-5.9994,-6.1555,-6.2057,-6.2175,-6.2175,-6.2677,-6.3446,-6.4755,-6.5742,-6.6663,-6.7855,-6.8879,-6.9737,-7.0458,-7.14,-7.2158,-7.2391,-7.3216,-7.3812,-7.3812,-7.4426,-7.4869,-7.4869,-7.4869,-7.4869,-7.4869,-7.4869,-7.4869,-7.4869,-7.4869,-7.4869,-7.4869,-7.4869,-7.4869,-7.4869,-7.4869,-7.5108,-7.5527,-7.5527,-7.5736,-1.3733,0.0,0.0,0.0,0.0,-2.1658,0.0,0.0,0.0,0.0,0.0,0.0,0.0,0.0,0.0,0.0,0.0,0.0,0.0,0.0,0.0,0.0,0.0,0.0,0.0,0.0,0.0,0.0,0.0,0.0,-2.9355,-2.9082,-2.9043,-2.9355,-2.8926,-2.8906,-2.9355,-2.8652,-2.7929,-2.7236,-2.7122,-2.658,-2.5758,-2.5869,-2.5984,-2.5984,-2.4901,-2.3867,-2.2889,-2.2919,-2.3956,-2.5856,-2.7781,-2.9919,-3.2472,-3.5488,-3.9221,-4.2786,-4.4689,-4.7012,-4.9264,-4.9515,-4.959,-4.9741,-5.0494,-5.0193,-5.1024,-5.7812,-5.7113,-5.5203,-5.8744,-6.0508,-6.1644,-6.2817,-6.3228,-6.3378,-6.3378,-6.3887,-6.4485,-6.4934,-6.6101,-6.7448,-6.8764,-7.0231,-7.1607,-7.2744,-7.3851,-7.4629,-7.4839,-7.4869,-7.4869,-7.4869,-7.4869,-7.4869,-7.4869,-7.4869,-7.4869,-7.4869,-7.4869,-7.4869,-7.4869,-7.4869,-7.4869,-7.4869,-7.4869,-7.5112,-7.5728,-7.5112,-7.5108,-7.5557,-7.5557,-7.5916,0.0,0.0,0.0,0.0,0.0,0.0,-2.0239,0.0,0.0,0.0,0.0,0.0,0.0,0.0,0.0,0.0,0.0,0.0,0.0,0.0,0.0,0.0,0.0,0.0,0.0,0.0,0.0,0.0,0.0,-2.9355,-2.8926,-2.8906,-2.8926,-2.8926,-2.8516,-2.8516,-2.8906,-2.8516,-2.7948,-2.7122,-2.714,-2.6836,-2.6106,-2.6106,-2.6106,-2.6106,-2.6106,-2.6305,-2.6653,-2.5277,-2.5892,-2.814,-3.0981,-3.2132,-3.2777,-3.7055,-4.0082,-4.2271,-4.4701,-4.6846,-4.8661,-4.9364,-4.959,-4.9992,-5.2176,-5.1373,-5.0142,-5.2327,-5.2929,-5.2929,-5.2929,-5.8005,-6.3079,-6.3109,-6.3558,-6.4006,-6.4036,-6.4605,-6.5084,-6.5084,-6.7178,-6.8974,-6.916,-7.062,-7.2116,-7.2834,-7.3492,-7.4151,-7.4809,-7.4869,-7.4869,-7.4869,-7.4869,-7.4869,-7.4869,-7.4869,-7.4869,-7.4869,-7.4869,-7.4869,-7.4869,-7.4869,-7.4869,-7.4869,-7.4869,-7.5728,-7.729,-7.5728,-7.5006,-7.5036,-7.4958,-7.5318,-1.0559,0.0,0.0,0.0,0.0,0.0,-1.763,-1.8762,0.0,0.0,0.0,0.0,0.0,0.0,0.0,0.0,0.0,0.0,0.0,0.0,0.0,0.0,0.0,0.0,0.0,0.0,0.0,0.0,-2.9606,-2.8594,-2.8476,-2.875,-2.8926,-2.8926,-2.8809,-2.8809,-2.8926,-2.8809,-2.8784,-2.8878,-2.9165,-2.9373,-2.953,-2.953,-2.953,-2.953,-2.8289,-2.8643,-2.9925,-2.7428,-2.7838,-3.0201,-3.1504,-3.3137,-3.4968,-3.9021,-4.0541,-4.1281,-4.5614,-4.8106,-4.9314,-4.9515,-4.959,-4.9715,-5.0318,-5.1222,-5.2126,-5.2754,-5.2929,-5.2929,-5.2929,-5.8005,-6.3228,-6.3857,-6.4006,-6.4276,-6.5233,-6.5981,-6.6764,-6.7862,-6.8183,-6.905,-7.1659,-7.1934,-7.2295,-7.3462,-7.418,-7.4659,-7.4869,-7.4869,-7.4869,-7.4869,-7.4869,-7.4869,-7.4869,-7.4869,-7.4869,-7.4869,-7.4869,-7.4869,-7.4869,-7.4869,-7.4869,-7.4869,-7.4869,-7.5728,-7.729,-7.68,-7.6844,-7.7366,-7.7072,-7.7352,0.0,0.0,0.0,0.0,0.0,0.0,-1.3773,-1.5241,0.0,0.0,0.0,0.0,0.0,0.0,0.0,0.0,0.0,0.0,0.0,0.0,0.0,0.0,0.0,0.0,0.0,0.0,0.0,-3.0116,-2.9011,-2.8301,-2.8301,-2.8691,-2.8578,-2.8009,-2.8752,-2.8848,-2.8274,-2.8848,-2.9414,-2.9824,-3.0078,-3.0449,-3.0898,-3.0898,-3.0898,-3.0898,-3.0073,-3.0515,-3.1696,-3.008,-3.0501,-3.2075,-3.288,-3.4032,-3.583,-3.8954,-3.9969,-4.0252,-4.4254,-4.6577,-4.7824,-4.9207,-4.959,-4.9766,-5.0695,-4.9589,-4.8673,-5.205,-5.2929,-5.2929,-5.2929,-5.8005,-6.3288,-6.4156,-6.4605,-6.5144,-6.6191,-6.7148,-6.7964,-6.8664,-6.906,-6.9923,-7.1895,-7.253,-7.2984,-7.3762,-7.445,-7.4869,-7.4869,-7.4869,-7.4869,-7.4869,-7.4869,-7.4869,-7.4869,-7.4869,-7.4869,-7.4869,-7.4869,-7.4869,-7.4869,-7.4869,-7.4869,-7.4869,-7.4869,-7.5966,-7.8313,-7.7676,-7.7507,-7.781,-7.753,-7.7592,0.0,0.0,0.0,0.0,0.0,0.0,-1.0173,-1.2431,-1.5563,0.0,0.0,0.0,0.0,0.0,0.0,0.0,0.0,0.0,0.0,0.0,0.0,0.0,0.0,0.0,0.0,-3.1685,-3.0888,-2.9737,-2.887,-2.8301,-2.8301,-2.873,-2.8416,-2.7066,-2.8726,-2.9048,-2.7651,-2.8935,-2.9824,-3.0195,-3.0254,-3.0488,-3.0898,-3.0898,-3.0995,-3.1132,-3.1505,-3.1919,-3.2352,-3.2785,-3.3172,-3.3633,-3.4394,-3.5019,-3.5776,-3.781,-3.88,-3.9281,-4.1816,-4.3462,-4.503,-4.7987,-4.8936,-4.9381,-5.1569,-4.7344,-4.338,-5.0857,-5.2929,-5.3117,-5.4253,-5.8815,-6.3528,-6.4455,-6.5353,-6.6221,-6.7059,-6.8226,-6.8974,-6.8495,-6.9752,-7.0979,-7.1418,-7.2907,-7.4001,-7.4001,-7.4569,-7.4958,-7.4899,-7.4869,-7.4869,-7.4869,-7.4869,-7.4869,-7.4869,-7.4958,-7.4988,-7.4988,-7.4988,-7.4988,-7.4988,-7.4929,-7.4869,-7.4869,-7.5142,-7.673,-7.9803,-7.8534,-7.7836,-7.7672,-7.7229,-7.6984,0.0,0.0,0.0,0.0,0.0,0.0,-1.1767,-1.1152,-1.1489,0.0,0.0,0.0,0.0,0.0,0.0,0.0,0.0,0.0,0.0,0.0,0.0,0.0,0.0,0.0,0.0,-3.146,-3.0066,-2.9572,-2.8745,-2.8301,-2.8301,-2.9023,-2.9322,-2.8988,-2.9731,-2.9945,-2.9603,-2.9964,-3.0117,-3.0195,-3.0586,-3.0801,-3.0898,-3.0898,-3.1556,-3.2644,-3.2727,-3.3016,-3.3472,-3.3927,-3.4205,-3.4473,-3.4629,-3.5195,-3.6034,-3.7934,-3.8221,-3.8107,-4.139,-4.2628,-4.272,-4.3947,-4.4671,-4.5412,-4.7485,-4.7029,-4.6904,-5.1607,-5.2929,-5.4602,-6.2224,-6.4386,-6.4964,-6.6191,-6.6251,-6.649,-6.8226,-6.9243,-7.0051,-7.0949,-7.1009,-7.1758,-7.4697,-7.491,-7.4689,-7.4689,-7.5258,-7.5497,-7.4958,-7.4869,-7.4869,-7.4869,-7.4869,-7.4869,-7.4869,-7.5377,-7.5707,-7.5707,-7.5707,-7.5707,-7.5707,-7.5168,-7.4869,-7.4869,-7.6202,-7.7804,-7.9803,-8.0766,-8.0786,-7.9983,-7.9227,-7.8384,0.0,0.0,0.0,-0.6648,0.0,0.0,0.0,-0.9418,-1.0109,0.0,0.0,0.0,0.0,0.0,0.0,0.0,0.0,0.0,0.0,0.0,0.0,0.0,0.0,0.0,0.0,-3.1603,-3.0538,-2.9551,-2.8545,-2.8066,-2.8281,-2.9101,-2.9119,-2.8219,-2.9736,-3.0065,-2.9144,-3.0065,-3.0547,-3.0547,-3.0781,-3.0898,-3.0898,-3.0898,-3.1325,-3.1998,-3.2986,-3.3665,-3.4127,-3.4491,-3.5149,-3.584,-3.4949,-3.5234,-3.6171,-3.73,-3.7548,-3.7626,-3.9811,-4.0554,-4.0983,-4.2979,-4.3778,-4.4457,-4.6411,-4.8361,-5.041,-5.2327,-5.2929,-5.5112,-6.456,-6.649,-6.6161,-6.6819,-6.6999,-6.7358,-6.8704,-7.0021,-7.1218,-7.2206,-7.2385,-7.295,-7.481,-7.4932,-7.4988,-7.5347,-7.5377,-7.5377,-7.5377,-7.5078,-7.4869,-7.4869,-7.4869,-7.4869,-7.4869,-7.5497,-7.5916,-7.5916,-7.6185,-7.6215,-7.5916,-7.5587,-7.5228,-7.4899,-7.6436,-7.7676,-7.8565,-8.0135,-8.0689,-8.016,-7.8429,-7.7469,0.0,0.0,0.0,0.0,0.0,-0.6383,0.0,0.0,0.0,0.0,0.0,0.0,0.0,0.0,0.0,0.0,0.0,0.0,0.0,0.0,0.0,0.0,0.0,0.0,0.0,-3.1673,-3.1458,-2.9827,-2.9086,-2.877,-2.9212,-2.9997,-2.9616,-2.7884,-3.012,-3.0451,-2.856,-3.0102,-3.0898,-3.0898,-3.0898,-3.0898,-3.0898,-3.0898,-3.0995,-3.146,-3.3004,-3.4001,-3.4484,-3.4847,-3.5603,-3.6465,-3.521,-3.5293,-3.6191,-3.6543,-3.7051,-3.7637,-3.8754,-3.9513,-4.0552,-4.3592,-4.5143,-4.6123,-4.7918,-5.0993,-5.381,-5.381,-5.477,-5.7144,-6.3854,-6.6268,-6.6846,-6.6421,-6.714,-6.8196,-6.9004,-7.062,-7.2116,-7.2954,-7.3642,-7.4091,-7.4091,-7.4629,-7.5228,-7.5647,-7.5347,-7.5228,-7.5647,-7.5228,-7.4869,-7.4869,-7.4869,-7.4869,-7.4869,-7.5497,-7.5916,-7.5916,-7.6365,-7.6425,-7.5916,-7.5766,-7.5437,-7.4899,-7.6202,-7.6931,-7.729,-7.8313,-7.9065,-7.9281,-7.7458,-7.6584,0.0,0.0,0.0,0.0,-0.7447,0.0,0.0,0.0,0.0,0.0,0.0,0.0,0.0,0.0,0.0,0.0,0.0,0.0,0.0,0.0,0.0,0.0,0.0,0.0,0.0,-3.1069,-3.2089,-3.0868,-3.1374,-3.2059,-3.2568,-3.3099,-3.2814,-3.1754,-3.2446,-3.2166,-3.0568,-3.0743,-3.0898,-3.0898,-3.0898,-3.0898,-3.0898,-3.0898,-3.1652,-3.2892,-3.3445,-3.4001,-3.4484,-3.4847,-3.5003,-3.4949,-3.4818,-3.5469,-3.6601,-3.666,-3.7422,-3.8728,-4.0473,-4.2042,-4.3426,-4.5543,-4.8615,-5.183,-5.3541,-5.5705,-5.7369,-5.7369,-6.1216,-6.4744,-6.167,-6.3854,-6.6451,-6.4376,-6.5978,-6.8315,-6.9602,-7.0919,-7.2265,-7.3522,-7.43,-7.4779,-7.4779,-7.5318,-7.5617,-7.5078,-7.5437,-7.5587,-7.5048,-7.4929,-7.4869,-7.4869,-7.4869,-7.4869,-7.4869,-7.5497,-7.5916,-7.5916,-7.5976,-7.5976,-7.5916,-7.5318,-7.4958,-7.4869,-7.5142,-7.5832,-7.729,-7.6099,-7.6233,-7.7579,-7.8522,-7.8155,0.0,0.0,0.0,0.0,0.0,0.0,0.0,0.0,-0.6942,0.0,0.0,0.0,0.0,0.0,0.0,0.0,0.0,0.0,0.0,0.0,0.0,0.0,0.0,0.0,0.0,0.0,0.0,0.0,-2.8012,-2.8545,-2.958,-3.332,-3.4886,-3.3727,-3.4245,-3.381,-3.2501,-3.2501,-3.2627,-3.2902,-3.2902,-3.3141,-3.3417,-3.253,-3.253,-3.3098,-3.356,-3.4001,-3.4484,-3.5118,-3.5603,-3.601,-3.5653,-3.5957,-3.6699,-3.6953,-3.8206,-4.0105,-4.1728,-4.3981,-4.6603,-4.9036,-5.2573,-5.5916,-5.7277,-5.8272,-5.9256,-6.0537,-6.3914,-6.5967,-6.1655,-6.0124,-6.0551,-6.3408,-6.556,-6.7301,-6.8079,-6.9412,-7.0584,-7.1522,-7.2226,-7.3091,-7.4642,-7.5108,-7.5347,-7.5467,-7.5377,-7.5347,-7.5467,-7.5138,-7.4869,-7.4869,-7.4869,-7.4869,-7.4869,-7.5497,-7.5916,-7.5916,-7.5916,-7.5916,-7.5916,-7.5258,-7.4869,-7.4869,-7.4869,-7.5248,-7.5966,-7.5248,-7.5248,-7.5996,-7.6439,-7.6727,-1.8095,0.0,0.0,0.0,0.0,0.0,0.0,0.0,0.0,0.0,0.0,0.0,0.0,0.0,0.0,0.0,0.0,0.0,0.0,0.0,0.0,0.0,0.0,0.0,0.0,0.0,0.0,-2.45,-2.5006,-2.6229,-2.8936,-3.3573,-3.6007,-3.5991,-3.6332,-3.5872,-3.4613,-3.4613,-3.4774,-3.5143,-3.5281,-3.5474,-3.5563,-3.4604,-3.4026,-3.3776,-3.424,-3.4477,-3.4526,-3.5474,-3.6123,-3.6439,-3.6068,-3.6622,-3.7688,-3.8127,-4.0173,-4.2922,-4.4538,-4.7353,-5.0787,-5.3469,-5.6251,-5.8759,-6.0144,-6.0658,-6.1048,-6.2701,-6.4455,-6.4896,-6.0354,-5.6976,-5.6147,-6.208,-6.449,-6.5822,-6.6826,-6.7702,-6.851,-6.9109,-7.0191,-7.1644,-7.3458,-7.4445,-7.5048,-7.5557,-7.5198,-7.5048,-7.5557,-7.5198,-7.4869,-7.4869,-7.4869,-7.4869,-7.4869,-7.5347,-7.5617,-7.5617,-7.5617,-7.5617,-7.5617,-7.5138,-7.4869,-7.4869,-7.4869,-7.4869,-7.4869,-7.4689,-7.4689,-7.4869,-7.5078,-7.5677,0.0,0.0,0.0,-2.1275,0.0,0.0,0.0,0.0,-0.4974,0.0,0.0,0.0,0.0,0.0,0.0,0.0075,0.0,0.0,0.0,0.0,0.0,0.0,0.0,0.0,0.0,0.0,0.0,-2.2994,-2.4236,-2.7673,-3.3991,-3.4743,-3.6236,-3.9102,-3.9155,-3.8434,-3.6948,-3.6948,-3.6973,-3.6998,-3.7717,-3.7311,-3.6143,-3.6767,-3.6433,-3.5245,-3.6183,-3.5801,-3.4547,-3.5953,-3.5799,-3.4916,-3.5664,-3.7582,-4.0025,-4.0465,-4.368,-4.81,-5.0132,-5.3085,-5.6413,-5.8731,-5.9503,-6.0022,-6.2321,-6.2963,-6.2963,-6.3079,-6.3139,-6.1935,-5.6243,-5.4678,-5.5625,-5.9909,-6.2228,-6.4137,-6.6557,-6.6706,-6.6463,-6.7218,-6.9307,-7.1076,-7.1104,-7.326,-7.4899,-7.4899,-7.4899,-7.4899,-7.4899,-7.4899,-7.4869,-7.4869,-7.4869,-7.4869,-7.4869,-7.4899,-7.4899,-7.4899,-7.4899,-7.4899,-7.4899,-7.4899,-7.4869,-7.4869,-7.4869,-7.4869,-7.4869,-7.424,-7.424,-7.4899,-7.5557,-7.5886,0.0,0.0,-2.8155,-2.593,0.0,0.0,0.0,0.0,0.0,0.0,0.0,0.0,0.0,0.0,0.0,-0.2144,-0.1182,0.0,0.0,0.0,0.0,0.0,0.0,0.0,0.0,0.0,0.0,-1.8627,-2.0152,-2.3746,-3.0629,-3.4729,-3.8129,-4.0737,-4.0793,-4.0239,-3.8959,-3.8959,-3.9146,-3.9493,-3.9707,-4.0027,-4.0342,-3.8718,-3.7995,-3.7992,-3.6695,-3.6112,-3.6027,-3.7046,-3.774,-3.8081,-3.9344,-4.1397,-4.3344,-4.1431,-4.4483,-5.0212,-5.5024,-5.748,-5.8884,-6.1168,-6.1939,-6.2057,-6.2817,-6.3079,-6.3079,-6.3079,-6.1436,-5.9233,-5.6957,-5.611,-5.6387,-5.8977,-6.0602,-6.1898,-6.3204,-6.3533,-6.3875,-6.4614,-6.6331,-6.8483,-7.062,-7.2738,-7.436,-7.4809,-7.4869,-7.4869,-7.4869,-7.4869,-7.4869,-7.4869,-7.4869,-7.4869,-7.4869,-7.4869,-7.4869,-7.4869,-7.4869,-7.4869,-7.4869,-7.4869,-7.4869,-7.4869,-7.4869,-7.4659,-7.424,-7.4001,-7.3791,-7.3582,-7.2915,-7.3057,-3.574,-3.5295,0.0,-3.0719,-2.7582,0.0,-2.0893,0.0,0.0,0.0,0.0,0.0,0.0,0.0,0.0,-0.4518,-0.1836,-0.0497,0.0,-0.3102,0.0,0.0,0.0,0.0,0.0,0.0,-0.8761,-1.5222,-1.7654,-2.1952,0.0,0.0,-3.7202,-4.0859,-4.1,-4.0831,-4.049,-4.049,-4.097,-4.1995,-4.2223,-4.2612,-4.3146,-4.1543,-4.0671,-4.0083,-3.8761,-3.7926,-3.761,-3.8501,-3.9145,-3.9837,-4.1008,-4.3074,-4.5243,-4.3714,-4.7194,-5.3514,-5.8994,-6.0938,-6.1168,-6.2555,-6.3079,-6.3079,-6.3079,-6.3079,-6.3079,-6.3079,-6.0928,-5.8226,-5.6849,-5.6072,-5.6276,-5.8569,-5.9215,-5.9643,-6.0948,-6.111,-6.1262,-6.1806,-6.3697,-6.6111,-6.8796,-7.1173,-7.3112,-7.4582,-7.4869,-7.4869,-7.4869,-7.4869,-7.4869,-7.4869,-7.4869,-7.4564,-7.3812,-7.3812,-7.3533,-7.277,-7.277,-7.3082,-7.3812,-7.3812,-7.4238,-7.5228,-7.4988,-7.4659,-7.424,-7.3762,-7.3462,-7.3253,-7.14,-7.0822]},{"header":{"parameterUnit":"m.s-1","parameterCategory":1,"la1":30.6,"la2":29.2853,"lo1":-89.7004,"lo2":-87.6739,"dy":0.0162,"dx":0.0183,"nx":112,"ny":82,"refTime":"2024-03-05T06:00:00:Z","depth":0,"parameterNumber":3,"parameterNumberName":"V-component_of_WINDS"},"data":[0.0,0.0,0.0,0.0,0.0,0.0,0.0,0.0,0.0,0.0,0.0,0.0,0.0,0.0,0.0,0.0,0.0,0.0,0.0,0.0,0.0,0.0,0.0,0.0,0.0,0.0,0.0,0.0,0.0,0.0,0.0,0.0,0.0,0.0,0.0,0.0,0.0,0.0,0.0,0.0,0.0,0.0,0.0,0.0,0.0,0.0,0.0,0.0,0.0,0.0,0.0,0.0,0.0,0.0,0.0,0.0,0.0,0.0,0.0,0.0,0.0,0.0,0.0,0.0,0.0,0.0,0.0,0.0,0.0,0.0,0.0,0.0,0.0,0.0,0.0,0.0,0.0,0.0,0.0,0.0,0.0,0.0,0.0,0.0,0.0,0.0,0.0,0.0,0.0,0.0,0.0,3.3368,3.6891,3.9415,3.9761,4.0641,4.0254,3.8226,0.0,0.0,0.0,0.0,0.0,0.0,0.0,0.0,0.0,0.0,0.0,0.0,0.0,0.0,0.0,0.0,0.0,0.0,0.0,0.0,0.0,0.0,0.0,0.0,0.0,0.0,0.0,0.0,0.0,0.0,0.0,0.0,0.0,0.0,0.0,0.0,0.0,0.0,0.0,0.0,0.0,0.0,0.0,0.0,0.0,0.0,0.0,0.0,0.0,0.0,0.0,0.0,0.0,0.0,0.0,0.0,0.0,0.0,0.0,0.0,0.0,0.0,0.0,0.0,0.0,0.0,0.0,0.0,0.0,0.0,0.0,0.0,0.0,0.0,0.0,0.0,0.0,0.0,0.0,0.0,0.0,0.0,0.0,0.0,0.0,0.0,0.0,0.0,0.0,0.0,0.0,0.0,0.0,0.0,0.0,0.0,0.0,0.0,0.0,0.0,0.0,0.0,0.0,0.0,3.417,3.6432,3.7784,3.9146,4.061,3.8607,3.7969,3.9495,0.0,0.0,0.0,0.0,0.0,0.0,0.0,0.0,0.0,0.0,0.0,0.0,0.0,0.0,0.0,0.0,0.0,0.0,0.0,0.0,0.0,0.0,0.0,0.0,0.0,0.0,0.0,0.0,0.0,0.0,0.0,0.0,0.0,0.0,0.0,0.0,0.0,0.0,0.0,0.0,0.0,0.0,0.0,0.0,0.0,0.0,0.0,0.0,0.0,0.0,0.0,0.0,0.0,0.0,0.0,0.0,0.0,0.0,0.0,0.0,0.0,0.0,0.0,0.0,0.0,0.0,0.0,0.0,0.0,0.0,0.0,0.0,0.0,0.0,0.0,0.0,0.0,0.0,0.0,0.0,0.0,0.0,0.0,0.0,0.0,0.0,0.0,0.0,0.0,0.0,0.0,0.0,0.0,0.0,0.0,0.0,0.0,0.0,0.0,0.0,0.0,0.0,0.0,3.2625,3.4741,3.6746,3.7494,3.8354,3.9686,3.8152,3.7737,3.9182,3.7449,0.0,0.0,0.0,0.0,0.0,0.0,0.0,0.0,0.0,0.0,0.0,0.0,0.0,0.0,0.0,0.0,0.0,0.0,0.0,0.0,0.0,0.0,0.0,0.0,0.0,0.0,0.0,0.0,0.0,0.0,0.0,0.0,0.0,0.0,0.0,0.0,0.0,0.0,0.0,0.0,0.0,0.0,0.0,0.0,0.0,0.0,0.0,0.0,0.0,0.0,0.0,0.0,0.0,0.0,0.0,0.0,0.0,0.0,0.0,0.0,0.0,0.0,0.0,0.0,0.0,0.0,0.0,0.0,0.0,0.0,0.0,0.0,0.0,0.0,0.0,0.0,0.0,0.0,0.0,0.0,0.0,0.0,0.0,0.0,0.0,0.0,0.0,0.0,0.0,0.0,0.0,0.0,0.0,0.0,0.0,0.0,0.0,0.0,0.0,0.0,0.0,0.0,3.3944,3.4986,3.6111,3.6806,3.7466,3.8236,3.7599,3.7425,3.8012,3.5792,0.0,0.0,0.0,0.0,0.0,0.0,0.0,0.0,0.0,0.0,0.0,0.0,0.0,0.0,0.0,0.0,0.0,0.0,0.0,0.0,0.0,0.0,0.0,0.0,0.0,0.0,0.0,0.0,0.0,0.0,0.0,0.0,0.0,0.0,0.0,0.0,0.0,0.0,0.0,0.0,0.0,0.0,0.0,0.0,0.0,0.0,0.0,0.0,0.0,0.0,0.0,0.0,0.0,0.0,0.0,0.0,0.0,0.0,0.0,0.0,0.0,0.0,0.0,0.0,0.0,0.0,0.0,0.0,0.0,0.0,0.0,0.0,0.0,0.0,0.0,0.0,0.0,0.0,0.0,0.0,0.0,0.0,0.0,0.0,0.0,0.0,0.0,0.0,0.0,0.0,0.0,0.0,0.0,0.0,0.0,0.0,0.0,0.0,0.0,0.0,0.0,0.0,3.4105,3.4543,3.5484,3.6178,3.6632,3.6754,3.6073,3.5797,3.6199,3.4759,0.0,0.0,0.0,0.0,0.0,0.0,0.0,0.0,0.0,0.0,0.0,0.0,0.0,0.0,0.0,0.0,0.0,0.0,0.0,0.0,0.0,0.0,0.0,0.0,0.0,0.0,0.0,0.0,0.0,0.0,0.0,0.0,0.0,0.0,0.0,0.0,0.0,0.0,0.0,0.0,0.0,0.0,0.0,0.0,0.0,0.0,0.0,0.0,0.0,0.0,0.0,0.0,0.0,0.0,0.0,0.0,0.0,0.0,0.0,0.0,0.0,0.0,0.0,0.0,0.0,0.0,0.0,0.0,0.0,0.0,0.0,0.0,0.0,0.0,0.0,0.0,0.0,0.0,0.0,0.0,0.0,0.0,0.0,0.0,0.0,0.0,0.0,0.0,0.0,0.0,0.0,0.0,0.0,0.0,0.0,0.0,0.0,0.0,0.0,0.0,0.0,0.0,3.5215,3.5681,0.0,3.5729,3.6054,3.6569,3.6322,3.6076,3.5887,0.0,0.0,0.0,0.0,0.0,0.0,0.0,0.0,0.0,0.0,0.0,0.0,0.0,0.0,0.0,0.0,0.0,0.0,0.0,0.0,0.0,0.0,0.0,0.0,0.0,0.0,0.0,0.0,0.0,0.0,0.0,0.0,0.0,0.0,0.0,0.0,0.0,0.0,0.0,0.0,0.0,0.0,0.0,0.0,0.0,0.0,0.0,0.0,0.0,0.0,0.0,0.0,0.0,0.0,0.0,0.0,0.0,0.0,0.0,0.0,0.0,0.0,0.0,0.0,0.0,0.0,0.0,0.0,0.0,0.0,0.0,0.0,0.0,0.0,0.0,0.0,0.0,0.0,0.0,0.0,0.0,0.0,0.0,0.0,0.0,0.0,0.0,0.0,0.0,0.0,0.0,0.0,0.0,0.0,0.0,0.0,0.0,0.0,0.0,0.0,0.0,0.0,3.5074,3.5836,3.6099,0.0,3.5519,3.5718,3.6228,3.629,3.5973,3.5413,0.0,0.0,0.0,0.0,0.0,0.0,0.0,0.0,0.0,0.0,0.0,0.0,0.0,0.0,0.0,0.0,0.0,0.0,0.0,0.0,0.0,0.0,0.0,0.0,0.0,0.0,0.0,0.0,0.0,0.0,0.0,0.0,0.0,0.0,0.0,0.0,0.0,0.0,0.0,0.0,0.0,0.0,0.0,0.0,0.0,0.0,0.0,0.0,0.0,0.0,0.0,0.0,0.0,0.0,0.0,0.0,0.0,0.0,0.0,0.0,0.0,0.0,0.0,0.0,0.0,0.0,0.0,0.0,0.0,0.0,0.0,0.0,0.0,0.0,0.0,0.0,0.0,0.0,0.0,0.0,0.0,0.0,0.0,0.0,0.0,0.0,0.0,0.0,0.0,0.0,0.0,0.0,0.0,0.0,0.0,0.0,0.0,0.0,0.0,0.0,0.0,0.0,3.5751,3.571,3.5519,3.5519,3.5519,3.5519,3.5519,3.5519,3.52,0.0,0.0,0.0,0.0,0.0,0.0,0.0,0.0,0.0,0.0,0.0,0.0,0.0,0.0,0.0,0.0,0.0,0.0,0.0,0.0,0.0,0.0,0.0,0.0,0.0,0.0,0.0,0.0,0.0,0.0,0.0,0.0,0.0,0.0,0.0,0.0,0.0,0.0,0.0,0.0,0.0,0.0,0.0,0.0,0.0,0.0,0.0,0.0,0.0,0.0,0.0,0.0,0.0,0.0,0.0,0.0,0.0,0.0,0.0,0.0,0.0,0.0,0.0,0.0,0.0,0.0,0.0,0.0,0.0,0.0,0.0,0.0,0.0,0.0,0.0,0.0,0.0,0.0,0.0,0.0,0.0,0.0,0.0,0.0,0.0,0.0,0.0,0.0,0.0,0.0,0.0,0.0,0.0,0.0,0.0,0.0,0.0,0.0,0.0,0.0,0.0,0.0,0.0,3.5681,3.568,3.5519,3.5519,3.5519,3.5519,3.5519,3.5519,3.557,3.5725,0.0,0.0,0.0,0.0,0.0,0.0,0.0,0.0,0.0,0.0,0.0,0.0,0.0,0.0,0.0,0.0,0.0,0.0,0.0,0.0,0.0,0.0,0.0,0.0,0.0,0.0,0.0,0.0,0.0,0.0,0.0,0.0,0.0,0.0,0.0,0.0,0.0,0.0,0.0,0.0,0.0,0.0,0.0,0.0,0.0,0.0,0.0,0.0,0.0,0.0,0.0,0.0,0.0,0.0,0.0,0.0,0.0,0.0,0.0,0.0,0.0,0.0,0.0,0.0,0.0,0.0,0.0,0.0,0.0,0.0,0.0,0.0,0.0,0.0,0.0,0.0,0.0,0.0,0.0,0.0,0.0,0.0,0.0,0.0,0.0,0.0,0.0,0.0,0.0,0.0,0.0,0.0,0.0,0.0,0.0,0.0,0.0,0.0,0.0,0.0,0.0,0.0,3.5856,3.5731,3.5519,3.5519,3.5519,3.5519,3.5519,3.5782,3.6075,3.6419,0.0,0.0,0.0,0.0,0.0,0.0,0.0,0.0,0.0,0.0,0.0,0.0,0.0,0.0,0.0,0.0,0.0,0.0,0.0,0.0,0.0,0.0,0.0,0.0,0.0,0.0,0.0,0.0,0.0,0.0,0.0,0.0,0.0,0.0,0.0,0.0,0.0,0.0,0.0,0.0,0.0,0.0,0.0,0.0,0.0,0.0,0.0,0.0,0.0,0.0,0.0,0.0,0.0,0.0,0.0,0.0,0.0,0.0,0.0,0.0,0.0,0.0,0.0,0.0,0.0,0.0,0.0,0.0,0.0,0.0,0.0,0.0,0.0,0.0,0.0,0.0,0.0,0.0,0.0,0.0,0.0,0.0,0.0,0.0,0.0,0.0,0.0,0.0,0.0,0.0,0.0,0.0,0.0,0.0,0.0,0.0,0.0,0.0,0.0,0.0,0.0,0.0,3.6043,3.5731,3.5519,3.5519,3.5554,3.5619,3.5619,3.629,3.6786,3.6953,0.0,0.0,0.0,0.0,0.0,0.0,0.0,0.0,0.0,0.0,0.0,0.0,0.0,0.0,0.0,0.0,0.0,0.0,0.0,0.0,0.0,0.0,0.0,0.0,0.0,0.0,0.0,0.0,0.0,0.0,0.0,0.0,0.0,0.0,0.0,0.0,0.0,0.0,0.0,0.0,0.0,0.0,0.0,0.0,0.0,0.0,0.0,0.0,0.0,0.0,0.0,0.0,0.0,0.0,0.0,0.0,0.0,0.0,0.0,0.0,3.2873,0.0,0.0,0.0,0.0,0.0,0.0,0.0,0.0,0.0,0.0,0.0,0.0,0.0,0.0,0.0,0.0,0.0,0.0,0.0,0.0,0.0,0.0,0.0,0.0,0.0,0.0,0.0,0.0,0.0,0.0,0.0,0.0,0.0,0.0,0.0,0.0,0.0,0.0,0.0,0.0,0.0,3.5463,3.5527,3.5519,3.5519,3.6006,3.6384,3.6384,3.7115,3.7888,3.878,3.7405,0.0,0.0,0.0,0.0,0.0,0.0,0.0,0.0,0.0,0.0,0.0,0.0,0.0,0.0,0.0,0.0,0.0,0.0,0.0,0.0,0.0,0.0,0.0,0.0,0.0,0.0,0.0,0.0,0.0,0.0,0.0,0.0,0.0,0.0,0.0,0.0,0.0,0.0,0.0,0.0,0.0,0.0,0.0,0.0,0.0,0.0,0.0,0.0,0.0,0.0,0.0,0.0,0.0,0.0,0.0,0.0,0.0,0.0,0.0,0.0,3.4864,0.0,0.0,0.0,0.0,0.0,0.0,0.0,0.0,0.0,0.0,0.0,0.0,0.0,0.0,0.0,0.0,0.0,0.0,0.0,0.0,0.0,0.0,0.0,0.0,0.0,0.0,0.0,0.0,0.0,0.0,0.0,0.0,0.0,0.0,0.0,0.0,0.0,0.0,0.0,0.0,3.6228,3.5869,3.5519,3.5519,3.6165,3.66,3.66,3.7642,3.8537,3.9134,3.8567,0.0,0.0,0.0,0.0,0.0,0.0,0.0,0.0,0.0,0.0,0.0,0.0,0.0,0.0,0.0,0.0,0.0,0.0,0.0,0.0,0.0,0.0,0.0,0.0,0.0,0.0,0.0,0.0,0.0,0.0,0.0,0.0,0.0,0.0,0.0,0.0,0.0,0.0,0.0,0.0,0.0,0.0,0.0,0.0,0.0,0.0,0.0,0.0,0.0,0.0,0.0,0.0,0.0,3.6185,3.6886,3.8342,3.8384,3.8812,3.9476,3.81,3.6785,3.5708,0.0,0.0,0.0,0.0,0.0,0.0,0.0,0.0,0.0,0.0,0.0,0.0,0.0,0.0,0.0,0.0,0.0,0.0,0.0,0.0,0.0,0.0,0.0,0.0,0.0,3.7375,3.7313,0.0,0.0,0.0,0.0,0.0,0.0,0.0,0.0,0.0,0.0,0.0,0.0,3.7239,3.6373,3.5718,3.591,3.6477,3.6843,3.7024,3.827,3.9069,3.9069,3.9649,3.9606,0.0,0.0,0.0,0.0,0.0,0.0,0.0,0.0,0.0,0.0,0.0,0.0,0.0,0.0,0.0,0.0,0.0,0.0,0.0,0.0,0.0,0.0,0.0,0.0,0.0,0.0,0.0,0.0,0.0,0.0,0.0,0.0,2.3829,2.6132,0.0,0.0,0.0,0.0,0.0,0.0,0.0,0.0,0.0,0.0,0.0,0.0,0.0,3.5915,3.7057,3.7293,3.778,3.8565,3.8565,3.8633,3.8918,3.9562,4.0239,4.0933,4.1211,0.0,3.9277,3.7669,0.0,0.0,0.0,0.0,0.0,0.0,0.0,0.0,0.0,0.0,0.0,0.0,0.0,0.0,0.0,0.0,0.0,0.0,0.0,0.0,0.0,0.0,3.717,3.7391,3.7443,3.7555,0.0,3.8139,3.7952,3.6546,3.6457,0.0,0.0,0.0,0.0,0.0,0.0,0.0,3.6857,3.6624,3.6753,3.7413,3.7589,3.7905,3.8547,3.942,3.9952,3.9952,4.0019,4.0303,4.0788,3.9826,0.0,0.0,0.0,0.0,0.0,0.0,0.0,0.0,0.0,0.0,0.0,0.0,0.0,0.0,0.0,0.0,0.0,0.0,0.0,0.0,0.0,0.0,0.0,0.0,0.0,0.0,0.0,0.0,0.0,2.4235,2.7448,2.9215,3.0664,3.1649,0.0,0.0,0.0,0.0,0.0,0.0,0.0,0.0,0.0,3.6262,3.7611,3.8574,3.9057,3.9156,3.9528,4.0223,4.0223,4.046,4.0865,4.117,4.1982,4.3186,4.3799,4.3975,4.3632,4.1437,4.005,3.9042,0.0,0.0,0.0,0.0,3.3696,3.4546,3.4726,3.5958,0.0,0.0,0.0,0.0,0.0,0.0,0.0,0.0,0.0,0.0,0.0,0.0,0.0,3.8209,3.8803,3.9268,3.8611,3.9325,3.9875,0.0,3.9476,3.9712,3.9412,0.0,0.0,0.0,0.0,3.8111,3.8434,3.7744,3.7381,3.7764,3.8133,3.8525,3.8854,3.961,4.0087,4.0087,4.0087,4.0223,4.0561,4.0413,3.9926,0.0,0.0,0.0,0.0,0.0,0.0,0.0,0.0,0.0,0.0,0.0,0.0,0.0,0.0,0.0,0.0,0.0,0.0,0.0,0.0,0.0,0.0,0.0,0.0,0.0,0.0,0.0,0.0,2.6578,2.98,3.1564,3.316,3.4415,0.0,0.0,0.0,0.0,0.0,0.0,3.605,3.8094,3.9268,3.9309,4.051,4.1206,4.1238,4.1238,4.1441,4.1779,4.2185,4.2523,4.2895,4.3267,4.4181,4.549,4.5946,4.66,4.7141,4.5142,4.3306,4.167,4.0875,3.9701,3.8332,3.7426,3.7729,3.8656,3.8836,3.9667,4.0745,4.1049,0.0,4.0042,3.8444,0.0,0.0,0.0,0.0,3.7053,3.7789,3.8929,3.9847,3.9566,4.0388,4.0896,3.9468,4.042,4.1247,0.0,4.1013,4.1539,4.1331,0.0,0.0,0.0,0.0,3.8829,3.9505,3.8695,3.8133,3.839,3.869,3.8962,3.9209,3.9799,4.0087,4.0087,4.0087,4.0087,4.0087,4.0747,4.0645,3.9701,0.0,0.0,0.0,0.0,0.0,0.0,0.0,0.0,0.0,0.0,0.0,0.0,0.0,0.0,0.0,0.0,0.0,0.0,0.0,0.0,0.0,0.0,0.0,0.0,0.0,0.0,0.0,0.0,0.0,3.1113,3.3261,0.0,0.0,0.0,0.0,3.696,3.8977,4.061,4.1695,4.2275,4.2728,4.3098,4.32,4.3606,4.435,4.435,4.4012,4.3335,4.479,4.5128,4.4519,4.5906,4.6989,4.7767,4.7733,4.8172,4.8702,4.7864,4.6991,4.6236,4.5942,4.5303,4.4578,4.4492,4.401,4.3425,4.3078,4.3039,4.3162,4.3226,4.3225,4.268,3.9951,3.9376,0.0,0.0,3.9808,4.0037,4.1491,4.2009,4.2052,4.2019,4.1999,4.1757,4.0928,4.2032,4.2168,0.0,3.9106,3.969,3.8741,0.0,4.0357,3.8805,3.9806,4.0328,3.9095,3.8887,3.9156,3.9901,3.9315,3.9209,3.9952,4.0087,4.0087,4.0087,4.0087,4.0087,4.0087,4.0611,4.1499,4.2741,4.246,0.0,0.0,0.0,0.0,0.0,0.0,0.0,0.0,0.0,0.0,0.0,0.0,0.0,0.0,0.0,0.0,0.0,0.0,0.0,0.0,0.0,0.0,0.0,0.0,0.0,0.0,0.0,0.0,3.371,3.5757,0.0,3.9373,3.8456,3.8712,4.1109,4.1924,4.2728,4.3631,4.4739,4.5183,4.4857,4.5331,4.5737,4.6007,4.6007,4.5872,4.5602,4.6143,4.6278,4.6007,4.6549,4.7192,4.7902,4.8367,4.9252,5.0332,5.0013,4.9078,4.7797,4.6838,4.6519,4.6585,4.6177,4.5865,4.5632,4.5511,4.4888,4.3985,4.3037,4.2692,4.2517,4.1477,4.1286,4.1445,4.1541,4.1488,4.1559,4.2146,4.2632,4.2812,4.2319,4.294,4.333,4.201,4.2212,4.21,4.0346,4.079,4.1442,4.1609,4.0932,4.0492,4.0828,4.0624,4.0213,3.9729,3.9662,3.9765,4.0087,3.985,3.9799,4.0087,4.0087,4.0087,4.0087,4.0087,4.0087,4.0087,4.0303,4.1207,4.2987,4.2894,4.2576,0.0,0.0,0.0,0.0,0.0,0.0,0.0,0.0,0.0,0.0,0.0,0.0,0.0,0.0,0.0,0.0,0.0,0.0,0.0,0.0,0.0,0.0,0.0,0.0,0.0,0.0,3.5163,3.6106,3.8078,4.0246,4.2497,4.1081,4.129,4.4227,4.4659,4.5102,4.5944,4.6898,4.721,4.6819,4.7293,4.753,4.753,4.753,4.7428,4.7158,4.7428,4.7394,4.7192,4.7428,4.78,4.8274,4.8709,4.9666,5.076,5.0745,5.0216,4.9328,4.8461,4.834,4.8576,4.795,4.7597,4.7352,4.7125,4.6309,4.5128,4.3842,4.3436,4.3403,4.3132,4.3064,4.3132,4.3369,4.3436,4.3504,4.3741,4.4181,4.4373,4.3556,4.4212,4.4541,4.2956,4.2467,4.2083,4.1339,4.1779,4.2421,4.2828,4.2118,4.1787,4.2652,4.2137,4.1595,4.1433,4.1168,4.0925,4.0834,4.0354,4.0087,4.0087,4.0226,4.0227,4.0104,4.0204,4.0249,4.0121,4.03,4.1042,4.233,4.2929,4.3248,4.3322,0.0,0.0,0.0,0.0,0.0,0.0,0.0,0.0,0.0,0.0,0.0,0.0,0.0,0.0,0.0,0.0,0.0,0.0,0.0,0.0,0.0,0.0,0.0,3.0304,3.4236,3.733,3.8159,4.0052,4.1801,4.3113,4.3247,4.4133,4.6244,4.7104,4.7908,4.8765,4.8868,4.8908,4.8984,4.9018,4.9018,4.9018,4.9018,4.8646,4.797,4.868,4.8646,4.797,4.868,4.9018,4.9018,4.9018,4.9376,5.0011,5.0011,5.0425,5.1121,5.1086,5.103,5.0865,5.019,4.9442,4.8655,4.7977,4.7295,4.6718,4.5974,4.5737,4.5602,4.4857,4.4654,4.479,4.5476,4.5737,4.5906,4.6616,4.6786,4.6616,4.5872,4.5703,4.5297,4.3775,4.2828,4.2083,4.1373,4.1779,4.2152,4.1872,4.3086,4.396,4.3741,4.4174,0.0,4.3901,4.3146,4.2487,4.2254,4.0961,4.0155,4.0104,4.0511,4.0483,4.0104,4.0417,4.0452,4.0087,4.0684,4.1009,4.1041,4.2802,4.4607,4.6546,0.0,0.0,0.0,0.0,0.0,0.0,0.0,0.0,0.0,0.0,0.0,0.0,0.0,0.0,0.0,0.0,0.0,0.0,0.0,0.0,0.0,0.0,3.371,3.4236,3.7331,4.0178,4.1748,4.2422,4.3776,4.6201,4.5123,4.5543,4.867,4.8662,4.8846,4.9595,4.9664,4.9457,4.8984,4.9018,4.9018,4.9018,4.9018,4.8917,4.8714,4.8917,4.8883,4.8714,4.8917,4.9018,4.9018,4.9018,4.9413,5.0039,5.0039,5.0488,5.1172,5.1123,5.1047,5.1022,5.0819,5.0259,4.9472,4.823,4.7776,4.7496,4.6752,4.6481,4.6447,4.6244,4.6177,4.6094,4.5629,4.5939,4.6397,4.5929,4.6301,4.6616,4.5872,4.5703,4.5432,4.4485,4.3234,4.2219,4.2049,4.1745,4.1298,4.069,4.0965,4.1231,4.1168,4.1241,0.0,4.118,4.0945,4.1168,4.2065,4.1415,4.0875,4.0793,4.0452,3.9993,3.9276,3.9308,3.9631,4.0071,4.0775,4.1598,4.2493,4.2747,4.2995,0.0,0.0,0.0,0.0,0.0,0.0,0.0,0.0,0.0,0.0,0.0,0.0,0.0,0.0,0.0,0.0,0.0,0.0,0.0,0.0,0.0,0.0,3.3734,3.6886,3.9205,4.112,4.255,4.3301,4.4248,4.5501,4.7158,4.6476,4.6931,4.9326,4.9183,4.9159,4.9546,4.9546,4.9402,4.8984,4.9018,4.9018,4.9018,4.9018,4.9018,4.9018,4.9018,4.9018,4.9018,4.9018,4.9018,0.0,4.9018,4.9255,4.9627,4.9627,4.9903,0.0,0.0,0.0,0.0,0.0,4.9953,4.9453,4.8599,4.8376,4.8308,4.7868,4.7699,4.7699,4.7699,4.7699,4.7578,4.702,4.7301,4.7578,4.702,4.7301,4.7462,4.6413,4.6143,4.5872,4.4823,4.3149,4.182,4.182,4.0733,0.0,3.9202,4.0352,4.1394,4.161,4.1847,4.206,4.214,4.1885,4.1981,4.2554,4.1526,4.0582,4.0132,3.9645,0.0,0.0,0.0,4.0066,4.1026,4.111,0.0,0.0,0.0,4.1596,4.2179,0.0,0.0,0.0,4.5739,4.5432,0.0,0.0,0.0,0.0,0.0,0.0,0.0,0.0,0.0,0.0,0.0,0.0,0.0,0.0,0.0,0.0,3.5788,3.9302,4.4067,4.4857,4.4688,4.4012,4.5635,4.6853,4.7022,4.7564,4.824,4.9052,4.912,4.9154,4.9255,0.0,0.0,0.0,0.0,4.9086,4.9018,4.9018,4.9018,4.9018,4.9018,4.9018,4.9018,4.9018,4.9018,4.9018,4.9018,4.9052,4.912,4.912,4.9187,4.9323,4.9864,5.0059,4.9976,4.9277,4.8996,4.8798,4.8837,0.0,0.0,4.8639,4.8798,4.8861,4.8861,4.8861,4.8798,4.8702,4.8639,4.8639,4.8576,4.8576,4.8366,4.7046,4.6701,4.6262,4.4879,4.2856,4.1304,4.119,3.9502,3.8046,3.8046,4.0541,4.265,4.3056,4.3592,4.4072,4.4372,4.3826,4.3402,4.3122,0.0,0.0,3.9159,3.8728,3.8913,3.9977,4.056,4.1484,4.2612,4.1967,4.2,4.2955,4.0792,4.0658,4.248,4.3388,4.5107,4.7453,4.6971,4.7293,0.0,0.0,0.0,0.0,0.0,0.0,0.0,0.0,0.0,0.0,0.0,0.0,0.0,0.0,0.0,3.6659,3.9463,4.2222,4.5105,4.6515,4.7225,4.7056,4.6887,4.7259,4.8477,4.8173,4.8477,4.9796,4.9864,5.0135,5.0744,5.0777,0.0,4.9898,4.9864,4.9593,4.9018,4.9018,4.9018,4.9018,0.0,0.0,4.9018,4.9018,4.9018,4.9018,4.9018,4.9323,4.9864,4.9864,5.0236,5.0744,5.027,5.0125,5.0023,4.9693,4.8828,4.7803,4.7651,4.7179,4.673,4.673,4.7239,4.7868,4.7868,4.7868,0.0,4.6936,4.673,4.6523,4.5778,4.6205,4.6741,4.6583,4.6083,4.545,4.4622,4.3145,4.1829,4.1074,4.0155,3.9396,3.9396,3.9113,3.8839,3.8933,3.9489,3.9955,3.9982,4.0318,4.0962,4.2024,4.1287,4.068,4.0377,3.9801,3.9548,3.9923,4.1737,4.323,4.4171,4.4556,4.4496,4.3871,4.2063,4.1385,4.1858,4.2504,4.4187,4.6673,4.8977,5.05,0.0,0.0,0.0,0.0,0.0,0.0,0.0,0.0,0.0,0.0,0.0,2.8592,2.9898,0.0,3.5019,3.8235,4.0639,4.2805,4.5074,4.6026,4.6676,4.7275,4.7665,4.8173,4.8951,4.9018,4.9458,5.0574,5.0642,5.0811,5.1183,5.1217,5.1048,5.0676,5.0642,5.0473,5.0101,5.0101,4.9932,4.956,4.956,4.9357,4.9018,4.9018,4.9018,4.9018,4.939,4.9763,5.0135,5.0507,5.0789,5.0994,5.0593,5.0259,4.9859,4.9356,4.8417,4.7281,4.6859,4.6493,4.6173,4.6173,4.6523,4.6867,4.6867,4.6867,4.6799,4.6314,4.6173,4.6103,4.5634,4.585,4.6153,4.5888,4.5502,4.5048,4.4334,4.2783,4.1438,4.1299,3.9869,3.8704,3.9044,3.8271,3.7904,3.8699,3.9106,3.9457,3.9809,4.016,4.0572,4.1243,4.0684,4.0152,3.9736,4.0431,4.0927,4.102,4.392,4.5623,4.5727,4.5998,4.5663,4.4605,4.1576,4.0583,4.1584,4.1017,4.2302,4.5331,4.8085,4.9937,0.0,0.0,0.0,0.0,0.0,0.0,0.0,0.0,2.8426,2.9303,3.0234,3.1316,3.2642,3.4465,3.6644,3.9307,4.118,4.2964,4.4857,4.5208,4.5691,4.6758,4.7948,4.8718,4.8852,4.9387,5.0024,5.0794,5.0827,5.0994,5.1361,5.1361,5.136,5.142,5.142,5.1352,5.1217,5.1217,5.0845,5.0101,5.0101,4.9796,4.9221,4.9221,4.9289,4.9458,5.0202,5.0375,5.0082,5.0823,5.0892,5.0517,5.0517,5.0112,4.944,4.8926,4.7974,4.6834,4.6244,4.5823,4.5634,4.576,4.5873,4.5953,4.6207,4.6207,4.6112,4.6271,4.6063,4.5823,4.5823,4.5697,4.5547,4.5151,4.4897,4.4643,4.4071,4.2416,4.1179,4.1555,3.9758,3.8362,3.8871,3.8542,3.8455,3.9251,3.9472,3.9819,4.0579,4.0769,4.0928,4.1118,4.0381,3.9601,3.8811,4.0956,4.2302,4.2302,4.5906,4.7692,4.7048,4.7097,4.6614,4.5341,4.1559,4.0186,4.1384,4.0016,4.0961,4.4103,4.6486,4.8307,2.4024,2.3577,2.3824,2.4592,2.5946,2.763,0.0,0.0,3.1652,3.2725,3.3989,3.5105,3.591,3.7654,3.9557,4.1279,4.2748,4.3912,4.4979,4.5693,4.634,4.7059,4.7252,4.7605,4.8184,4.8312,4.8666,4.9447,4.9512,5.0172,5.1729,5.1834,5.1888,5.2198,5.2198,5.186,5.1217,5.1217,5.0845,5.0101,5.0101,5.0067,4.9965,4.9965,5.0338,5.1014,5.1725,5.1195,4.9783,5.0545,5.0308,4.9491,4.9491,4.9202,4.8885,4.8823,4.7559,4.5835,4.5475,4.4609,4.3705,4.4308,4.4694,4.5179,4.6253,4.6191,4.5849,4.6439,4.5598,4.4489,4.4489,4.4067,4.3819,4.4644,4.4371,4.3831,4.3811,4.3117,4.2294,4.161,4.116,4.0965,4.1025,4.0995,4.0201,3.8008,3.8159,3.8895,3.9734,4.0329,4.1037,4.1821,4.1103,4.0224,3.9384,4.1565,4.2975,4.2975,4.6625,4.8483,4.78,4.8929,4.845,4.6115,4.41,4.2493,4.1384,4.1209,4.2094,4.4042,4.5917,4.7508,2.6695,2.6449,2.6556,2.7874,2.8786,3.0054,3.2485,3.3529,3.4211,3.5078,3.5989,3.6658,3.6692,3.8232,3.9718,0.0,4.197,4.3274,4.3943,4.4295,4.4648,4.488,4.4721,4.5646,4.8541,4.8818,4.9106,4.9885,4.9949,5.0229,5.1005,5.1005,5.1099,5.1172,5.1172,5.1008,5.0713,5.1313,5.1225,5.0492,5.1092,5.115,5.0744,5.0744,5.142,5.2536,5.2367,5.2033,5.1625,5.1493,5.0477,4.9016,4.9016,4.8593,4.7927,4.8163,4.7077,4.5425,4.535,4.4676,4.4018,4.4676,4.5001,4.5172,4.5718,4.5688,4.5536,4.5809,4.5393,4.4885,4.4885,4.4676,4.4458,4.4516,4.4291,4.3988,4.3563,4.2986,4.247,4.2509,4.1893,4.1504,4.1893,4.1624,4.0995,3.9888,4.0425,4.1115,4.1465,4.1857,4.2037,4.2045,4.1198,4.0739,4.0751,4.259,4.3872,4.4289,4.7639,4.9447,4.9154,5.0179,4.969,4.7461,4.5321,4.3525,4.1953,4.1587,4.2118,4.3555,4.5707,4.7283,2.8533,2.8549,2.8661,3.0443,3.129,3.229,3.433,3.5429,3.6178,3.6656,3.7255,3.7515,3.6924,3.815,3.9341,3.97,4.0742,4.1833,4.2921,4.2554,4.2225,4.2396,4.1831,4.2996,4.6889,4.77,4.8434,4.9504,4.9536,4.9647,4.9931,4.9931,5.0087,5.0397,5.0397,5.0397,5.0397,5.108,5.1092,5.0373,5.1115,5.1362,5.1094,5.1594,5.257,5.3754,5.2976,5.2597,5.2539,5.1819,5.0242,4.8377,4.8377,4.7904,4.7306,4.7607,4.675,4.5574,4.5574,4.5155,4.4706,4.5364,4.5454,4.5364,4.5723,4.5723,4.5687,4.6169,4.5943,4.5657,4.5958,4.5672,4.5125,4.4466,4.4436,4.4347,4.3509,4.309,4.297,4.3269,4.2701,4.2282,4.2581,4.2372,4.2132,4.1953,4.2959,4.3568,4.3192,4.3712,4.3846,4.3072,4.2427,4.2118,4.2379,4.3898,4.5077,4.5594,4.8545,5.0273,5.013,5.1004,5.0503,4.8359,4.6434,4.4489,4.2641,4.223,4.2466,4.3345,4.5337,4.6758,2.8614,2.871,2.8867,3.1246,3.3126,3.4595,3.531,3.6447,3.7375,3.7375,3.7913,3.805,3.6982,3.7872,3.9044,3.9679,3.9391,3.9898,4.2138,4.0502,3.934,4.0018,3.9211,3.9448,0.0,4.3718,4.5464,4.7249,4.7366,4.7849,4.8841,4.881,4.9296,5.0397,5.0397,5.0397,5.0397,5.0397,5.0045,4.9341,4.9416,4.9904,5.0872,5.2639,5.3856,5.4532,5.3788,5.271,5.1513,5.0762,4.9247,4.7396,4.7396,4.7309,4.7309,4.7279,4.686,4.6292,4.6292,4.5843,4.5364,4.6082,4.5843,4.5544,4.683,4.68,4.6581,4.8266,4.7524,4.6515,4.7496,4.6549,4.5125,4.4466,4.4796,4.4915,4.3629,4.3808,4.4077,4.3449,4.3808,4.4018,4.3419,4.3808,4.4018,4.3359,4.4837,4.5629,4.4218,4.5619,4.6327,4.5491,4.5332,4.5014,4.4196,4.5571,4.655,4.6583,4.9487,5.0858,5.0164,5.152,5.1044,4.8359,4.7581,4.5927,4.3299,4.3547,4.3696,4.3811,4.47,4.5571,2.9371,3.0761,3.2354,3.3357,3.4725,3.5968,3.6626,3.7105,3.7404,3.7404,3.6737,3.5959,3.5126,3.6041,3.7157,3.7842,3.9414,4.0952,4.2179,4.204,4.1251,3.9756,3.9729,0.0,0.0,0.0,0.0,4.6446,4.6651,4.7001,4.7734,4.7849,4.7988,4.8324,4.8324,4.8324,4.8324,4.9004,4.9171,4.8951,4.966,5.0197,5.0607,5.2389,5.3584,5.425,5.4222,5.3473,5.2108,5.0877,4.9166,4.7309,4.7309,4.7309,4.7309,4.7309,4.716,4.698,4.698,4.6531,4.6082,4.677,4.683,4.6711,4.716,4.716,4.7096,4.7619,4.7357,4.7066,4.7347,4.7026,4.6471,4.5813,4.5813,4.5723,4.4825,4.4796,4.4915,4.4676,4.4825,4.4766,4.4107,4.4167,4.4527,4.5142,4.5746,4.6338,4.6576,4.7133,4.7207,4.6428,4.5839,4.5532,4.5702,4.6717,4.7506,4.8001,5.0012,5.1269,5.1522,5.2017,5.1497,4.9769,4.789,4.5912,4.3988,4.2965,4.3168,4.444,4.4883,4.5943,3.1446,3.3372,3.4923,3.5769,3.6592,3.7195,3.7375,3.7307,3.7099,3.6607,3.589,3.5091,3.3944,3.4781,3.5915,3.684,3.8004,3.9436,4.1445,4.1155,4.0403,3.9372,3.9131,3.9406,0.0,0.0,0.0,4.5699,4.6411,4.686,4.7279,4.7309,4.7309,4.7309,4.7309,4.7309,4.7309,4.7904,4.8293,4.8293,4.9296,4.9979,5.0232,5.1771,5.3203,5.4425,5.4428,5.3874,5.2845,5.1435,4.9509,4.7638,4.7399,4.7309,4.7309,4.7309,4.7309,4.7309,4.7309,4.704,4.6741,4.716,4.7309,4.7309,4.7309,4.7309,4.7366,4.7764,4.7624,4.7366,4.7764,4.7624,4.713,4.6471,4.6501,4.6496,4.5949,4.6001,4.6255,4.6383,4.6616,4.6555,4.5878,4.5756,4.5973,4.647,4.684,4.737,4.8192,4.8308,4.8105,4.7631,4.7072,4.7028,4.773,4.8261,4.8827,4.9526,5.0824,5.1826,5.2266,5.257,5.1988,5.0397,4.7995,4.6124,4.5035,4.3057,4.313,4.4986,4.5135,4.5828,3.4823,3.6307,3.6734,3.8372,3.8568,3.8212,3.7485,3.6969,3.633,3.4988,3.5143,3.5062,0.0,0.0,3.5273,3.6644,3.5574,3.5938,3.9921,3.813,3.7102,0.0,0.0,0.0,0.0,0.0,0.0,4.5012,0.0,4.7249,4.7309,4.7309,4.7309,4.7309,4.7309,4.7309,4.7309,4.7309,4.7309,4.7339,4.8355,4.9161,4.9811,5.0911,5.2681,5.4853,5.4316,5.3877,5.3437,5.2076,5.0247,4.8207,4.7549,4.7309,4.7309,4.7309,4.7309,4.7309,4.7309,4.7309,4.7309,4.7309,4.7309,4.7309,4.7309,4.7309,4.7538,4.8429,4.8072,4.7538,4.846,4.7988,4.716,4.6531,4.686,4.7262,4.704,4.7415,4.798,4.8435,4.8968,4.9192,4.8593,4.8432,4.8134,4.7421,4.8176,4.8829,4.8962,4.9018,4.8984,4.9046,4.9018,4.9323,5.0096,5.0232,5.0507,5.1217,5.1995,5.2435,5.2435,5.3145,5.2553,5.0538,4.7917,4.6475,4.6322,4.3799,4.3507,4.5334,4.5304,4.5334,3.7576,3.894,3.9649,3.9464,3.8903,3.8072,3.6658,3.4435,3.276,3.3061,3.11,2.9726,0.0,0.0,0.0,3.5982,3.7277,0.0,4.1505,4.1636,0.0,4.0825,0.0,4.1597,4.1793,4.3099,0.0,0.0,4.5603,4.6232,4.7249,4.7309,4.7309,4.7309,4.7309,4.7309,4.7309,4.7309,4.7549,4.8027,4.826,4.8766,4.9519,5.1079,5.2135,5.2755,5.4222,5.3825,5.2269,5.1757,5.0247,4.8207,4.7549,4.7309,4.7309,4.7309,4.7309,4.7309,4.7309,4.7309,4.7309,4.7309,4.7309,4.7309,4.7309,4.7309,4.7396,4.7593,4.7538,4.7396,4.7624,4.7452,4.7279,4.71,4.7189,4.7533,4.8163,4.8438,4.8823,4.9732,4.9641,4.932,4.916,4.8753,4.8587,4.9066,4.9345,4.936,4.9029,4.9018,4.9195,4.9664,4.9794,5.0113,5.0858,5.1464,5.1826,5.2029,5.3281,5.3991,5.3991,5.4194,5.3356,5.1243,4.7353,4.5626,4.6322,4.2882,4.2941,4.6052,4.5544,4.5843,4.026,4.1422,4.1655,4.0578,3.9601,3.8137,3.5007,3.0423,2.6169,2.3961,2.2993,2.2824,2.3851,2.8293,0.0,0.0,0.0,0.0,4.1748,4.2349,4.2647,0.0,4.3506,0.0,4.3658,4.4646,4.5642,0.0,4.6244,4.6501,4.7279,4.7679,4.7764,4.7309,4.8157,4.846,4.7988,4.7988,4.8097,4.8297,4.8297,4.8925,5.0122,5.0879,5.2043,5.353,0.0,5.3732,5.2964,5.1745,5.0213,4.8626,4.7668,4.7309,4.7309,4.7309,4.7309,4.7309,4.7309,4.7309,4.7309,4.7309,4.7309,4.7309,4.7309,4.7309,4.7309,4.7309,4.7309,4.7309,4.7309,4.7624,4.7988,4.7988,4.8293,4.8922,4.9899,5.0133,5.0442,5.1557,5.1448,5.108,5.0538,5.0609,5.0641,5.0692,5.1094,5.1214,5.053,5.0181,5.0119,5.0514,5.0555,5.0866,5.161,5.2051,5.2604,5.3281,5.4126,5.4735,5.5074,5.4769,5.3623,5.1499,4.7373,4.577,4.6741,4.3304,4.3421,4.6741,4.6352,4.6591,4.2658,4.3447,4.2944,4.1367,4.0229,3.8138,3.3332,2.5765,1.8364,1.3145,1.304,1.4204,1.496,2.2987,3.0782,3.4759,0.0,3.8056,4.1565,4.1845,4.2697,4.5526,4.5111,4.4855,4.5484,4.5574,4.6252,4.7831,4.7654,4.7538,4.7679,4.8543,4.8594,4.7764,4.9487,4.9931,4.8973,4.9066,4.9088,4.8914,4.8974,4.9944,5.16,5.0936,5.2393,5.5271,0.0,0.0,5.4242,5.2156,5.0463,4.9134,4.7908,4.7369,4.7309,4.7309,4.7369,4.7429,4.7339,4.7369,4.7429,4.7339,4.7309,4.7309,4.7309,4.7309,4.7309,4.7309,4.7309,4.7309,4.7542,4.8279,4.8965,4.9097,4.99,5.08,5.1704,5.1993,5.2383,5.3348,5.3518,5.3179,5.2241,5.287,5.3179,5.2266,5.3004,5.3394,5.2615,5.1856,5.1376,5.1312,5.1349,5.1722,5.2499,5.2603,5.3247,5.4803,5.4972,5.5378,5.6122,5.5272,5.3772,5.1566,4.765,4.5977,4.6814,4.4032,4.4214,4.7019,4.7222,4.7309,4.4012,4.3848,4.2944,4.1367,3.9503,3.7092,3.354,2.2629,0.0,1.2929,0.5557,0.2068,1.1722,1.7017,2.3173,3.3268,3.6416,3.8872,4.2922,4.3138,4.3874,0.0,0.0,0.0,0.0,0.0,0.0,0.0,0.0,4.8922,4.9773,5.0009,5.0009,4.9852,5.0165,5.032,5.0087,5.0738,5.1296,5.1833,5.2403,5.2973,5.3406,5.3283,5.3616,5.4251,5.483,0.0,5.319,5.3112,5.1639,4.9194,4.8416,4.7788,4.7309,4.7309,4.7638,4.8027,4.7489,4.7668,4.8027,4.7489,4.7309,4.7309,4.7309,4.7309,4.7309,4.7309,4.7309,4.7658,4.9021,4.9563,4.9946,5.0835,5.1151,5.1411,5.1802,5.2627,5.328,5.3416,5.3518,5.3416,5.3247,5.3348,5.345,5.3247,5.3866,5.4149,5.3409,5.2695,5.2175,5.2114,5.2077,5.2629,5.3989,5.419,5.4837,5.6325,5.6968,5.7645,5.8423,5.6796,5.4626,5.179,4.7519,4.4895,4.4163,4.3176,4.3758,4.5779,4.6814,4.7309,4.2243,4.3022,4.3531,4.1612,3.9445,3.5792,2.7809,0.0,0.0,-0.0922,-0.6526,-0.8481,-0.2267,0.6929,0.0,2.5921,3.087,3.5595,4.1418,4.2301,0.0,4.6391,0.0,0.0,0.0,0.0,0.0,0.0,0.0,5.0397,5.0397,5.0397,5.0887,5.1954,5.1843,5.1782,5.1782,5.2465,5.3142,5.3646,5.3999,5.4496,5.4946,5.4233,5.4438,5.5165,5.4473,0.0,5.4544,5.3486,5.1894,5.0049,4.9321,4.8551,4.7848,4.8207,4.8536,4.8745,4.8446,4.8536,4.8745,4.8446,4.7848,4.7369,4.7698,4.7818,4.7818,4.7818,4.8057,4.8621,5.0013,5.0829,5.1565,5.2592,5.2974,5.303,5.2794,5.311,5.3518,5.3518,5.3518,5.3518,5.3518,5.3518,5.3618,5.3977,5.4356,5.462,5.4655,5.4356,5.3798,5.3014,5.2741,5.3109,5.4459,5.4763,5.5295,5.6396,5.7722,5.8203,5.7771,5.6718,5.4519,5.0958,4.7405,4.4926,4.3504,4.2562,4.2943,4.4442,4.5338,4.5694,4.0124,4.214,4.3556,4.1442,3.9166,3.4333,2.2147,1.003,-0.1913,-1.3758,-1.767,-1.7987,-1.4834,-0.3298,0.9017,0.0,2.5194,3.1646,3.9862,4.1626,4.3182,0.0,4.7114,0.0,0.0,0.0,0.0,0.0,0.0,0.0,5.1307,5.1307,5.2105,5.3889,5.3732,5.3606,5.3606,5.4336,5.4952,5.541,5.5539,5.589,5.6279,5.5121,5.5197,5.6081,5.4001,0.0,0.0,5.3149,5.156,5.0236,4.9743,4.8992,4.8356,4.8865,4.9224,4.9464,4.9314,4.9344,4.9464,4.9464,4.8686,4.7818,4.8327,4.8506,4.8506,4.8506,4.8865,4.9613,5.1095,5.2131,5.31,5.4369,5.4783,5.4668,5.4093,5.3991,5.3991,5.3991,5.3856,5.3754,5.3754,5.3619,5.3785,5.4471,5.4724,5.5133,5.5809,5.6042,5.5709,5.4533,5.3784,5.3684,5.4467,5.4962,5.566,5.6784,5.7997,5.821,5.7206,5.6118,5.3724,4.9878,4.7001,4.4729,4.2831,4.2179,4.2377,4.3314,4.4111,4.4483,3.983,4.2009,4.1885,4.0222,3.7935,3.2907,2.0866,0.0,-0.3964,-1.4099,-2.3274,-2.6366,-1.6407,-1.0788,-0.1521,1.7473,2.3585,2.9604,4.0217,4.3021,4.4602,4.6453,0.0,0.0,0.0,0.0,0.0,0.0,0.0,0.0,5.4155,5.4258,5.4631,5.548,5.5511,5.5441,5.5441,5.6183,5.6925,5.7628,5.8261,5.821,5.7548,5.6782,5.5936,5.5007,5.4171,0.0,0.0,5.2106,5.0585,4.8533,4.8473,4.8355,4.8297,4.8356,4.9134,5.0062,4.9464,4.9643,5.0152,5.0152,4.9673,4.9105,4.9164,4.9164,4.9164,4.9164,4.9224,4.9882,5.2618,5.3437,5.4002,5.6051,5.6052,5.5581,5.5513,5.5513,5.5513,5.5513,5.4972,5.4499,5.4499,5.3923,5.3721,5.45,5.5166,5.5878,5.6605,5.7329,5.7671,5.748,5.5879,5.475,5.4452,5.5056,5.6505,5.9021,5.8312,5.8292,5.9234,5.543,5.1947,4.9243,4.6036,4.3153,4.074,4.232,4.2884,4.2584,4.4248,4.5018,2.9957,3.6267,4.2236,4.08,3.8059,3.1663,1.5678,0.0,-0.5609,-1.9999,-2.7052,-2.8884,-2.3136,-1.443,-0.4019,0.8505,1.7426,2.6094,3.5692,3.7878,4.001,0.0,0.0,0.0,0.0,0.0,0.0,0.0,0.0,0.0,5.6562,5.575,5.5412,5.5716,5.6156,5.6359,5.6359,5.7543,5.849,5.9235,6.0013,6.0044,5.9414,5.8242,5.713,5.5936,5.483,0.0,0.0,5.2586,5.1506,5.038,4.9983,4.9667,4.9494,4.9912,5.0391,5.078,5.0541,5.0601,5.084,5.084,5.0661,5.0361,4.9972,4.9853,4.9853,4.9853,5.0421,5.1606,5.4242,5.5879,5.6811,5.6785,5.6596,5.6258,5.5818,5.5716,5.5716,5.5716,5.548,5.5277,5.5277,5.504,5.4938,5.5243,5.5859,5.6814,5.7949,5.8749,5.9315,5.9577,5.7069,5.5571,5.6027,5.5907,5.6172,5.728,5.7962,5.739,5.5217,5.3723,5.0964,4.6881,4.5045,4.3178,4.1003,4.1737,4.2076,4.2311,4.3384,4.404,2.1104,2.9005,3.6995,3.8836,3.519,2.6816,1.0159,0.0,-0.9267,-2.4635,-2.8919,-2.9257,-2.7231,-1.6937,-0.6059,0.2232,1.31,2.3689,3.2933,3.518,3.7682,0.0,0.0,0.0,0.0,0.0,0.0,0.0,0.0,0.0,0.0,5.6757,5.6461,5.6697,5.6968,5.7239,5.7442,5.849,5.937,6.0114,6.0689,6.0617,5.9894,5.8675,5.7312,5.5796,0.0,0.0,0.0,5.1999,5.139,5.1045,5.034,5.012,5.0301,5.075,5.105,5.1229,5.1229,5.1229,5.1229,5.1229,5.1229,5.1046,5.0164,5.0232,5.0541,5.0541,5.16,5.3099,5.4977,5.7135,5.8513,5.7197,5.7223,5.7273,5.6528,5.6359,5.6359,5.6359,5.6359,5.6359,5.6359,5.6359,5.6427,5.6664,5.7306,5.8321,5.981,6.0655,6.1335,6.1816,5.9231,5.7483,5.7441,5.6714,5.6423,5.6524,5.7055,5.5944,5.2749,5.1759,4.955,4.5684,4.4748,4.3547,4.2057,4.2233,4.2434,4.266,4.3212,4.3664,1.5749,2.0885,2.3661,3.3159,2.7773,1.7092,0.5156,-0.5425,-1.5835,-2.6576,-2.8652,-2.8129,-2.6771,-1.8824,-0.9196,0.1028,1.2016,2.29,3.3505,3.7157,0.0,0.0,0.0,0.0,0.0,0.0,0.0,0.0,0.0,0.0,0.0,5.7264,5.822,5.8964,5.8254,5.8254,5.8998,5.8998,5.937,6.0114,6.0114,5.951,5.8297,5.7687,5.6182,0.0,0.0,0.0,0.0,4.9614,4.9344,4.9284,4.8536,4.9075,5.0242,5.0242,5.0661,5.1229,5.1229,5.1229,5.1229,5.1229,5.1229,5.0917,4.965,5.0162,5.1199,5.1199,5.2459,5.4078,5.4699,5.6582,5.81,5.7376,5.8141,5.8795,5.8017,5.7881,5.7881,5.7881,5.7881,5.7881,5.7881,5.7881,5.8118,5.8863,5.9607,6.0622,6.2144,6.3024,6.3768,6.4512,6.2966,6.0836,5.827,5.7436,5.7384,5.7978,5.5412,5.3961,5.3734,4.9907,4.737,4.6652,4.5349,4.4317,4.379,4.4317,4.4317,4.379,4.4342,4.4618,-0.0376,0.6795,1.3665,1.6095,1.4227,0.8822,-0.273,-0.9289,-1.5239,-2.3389,-2.3864,-2.2924,-2.3423,-1.2827,-0.2461,0.2494,1.3195,2.3816,0.0,0.0,0.0,0.0,0.0,0.0,0.0,0.0,0.0,0.0,0.0,0.0,0.0,5.8477,5.8524,5.8254,5.8524,5.8524,5.8254,5.9235,5.9641,5.937,5.9877,5.9928,5.9477,5.8849,0.0,0.0,0.0,0.0,0.0,5.1352,5.0848,5.0541,4.9883,5.0152,5.09,5.09,5.105,5.1229,5.1229,5.1229,5.1011,5.0095,4.9873,4.9582,4.8239,4.8738,4.9853,4.9665,5.1678,5.3844,5.396,5.5934,5.7903,5.797,5.821,5.8652,5.9287,5.9404,5.9404,5.9404,5.9404,5.9573,6.0114,6.0216,6.0452,6.1197,6.1941,6.2956,6.4444,6.529,6.6271,6.7557,6.5521,6.2939,6.0297,5.8644,5.7242,5.5866,5.4623,5.2258,4.8578,4.6809,4.5203,4.3561,4.3114,4.3301,4.4367,4.4543,4.4744,4.497,4.5899,4.6125,-1.0339,-0.4312,0.208,0.5268,0.4023,-0.0187,-0.8383,-1.2906,-1.6317,-1.9727,-1.8488,-1.6465,-1.5388,-0.551,0.329,0.5444,1.4676,2.3854,0.0,0.0,0.0,0.0,0.0,0.0,0.0,0.0,0.0,0.0,0.0,0.0,0.0,5.8592,5.8355,5.7915,5.8355,5.849,5.8321,5.9235,5.9471,5.9032,5.9471,5.9539,5.9235,5.8795,0.0,0.0,0.0,0.0,0.0,5.2847,5.2281,5.1728,5.1061,5.0969,5.1229,5.1229,5.1379,5.1558,5.1319,5.1379,5.1434,5.0279,4.9259,4.8239,4.7402,4.7875,4.8776,4.8825,5.0521,5.2457,5.3157,5.4977,5.6832,5.7818,5.8445,5.8984,5.9886,6.0114,6.0114,6.0114,6.0554,6.1129,6.1637,6.2178,6.2787,6.3531,6.4275,6.5189,6.6373,6.7184,6.8064,6.9011,6.693,6.4668,6.2652,6.0475,5.8149,5.5724,5.3809,5.0797,4.6396,4.5176,4.3965,4.2756,4.3385,4.4154,4.5271,4.5472,4.5748,4.6125,4.7587,4.8179,0.0,-1.2735,-1.0527,-0.1379,-0.413,-0.9744,-1.2446,-1.648,0.0,-1.6118,-1.3124,-0.9457,-0.4634,0.2215,0.7785,0.9585,1.6504,0.0,0.0,0.0,0.0,0.0,0.0,0.0,0.0,0.0,0.0,0.0,0.0,0.0,0.0,5.7881,5.7881,5.7881,5.7881,5.822,5.893,5.8998,5.8998,5.893,5.893,5.8558,5.7881,5.7881,0.0,0.0,0.0,0.0,0.0,5.4049,5.3481,5.2927,5.2393,5.1874,5.1539,5.1539,5.1961,5.2442,5.181,5.1991,5.2352,5.1409,4.9328,4.7197,4.715,4.7383,4.7777,4.8431,4.9035,5.0103,5.2259,5.3759,5.5236,5.729,5.8604,5.9564,6.0223,6.0351,6.0351,6.0419,6.1569,6.255,6.2618,6.3802,6.5019,6.573,6.6474,6.7252,6.7963,6.8707,6.9214,6.9248,6.7454,6.598,6.5308,6.258,5.9753,5.6766,5.2998,4.9724,4.6928,4.4739,4.3654,4.3778,4.5453,4.6376,4.6426,4.705,4.7327,4.75,4.9489,5.0539,-1.9248,0.0,-2.0004,-1.8229,-1.8011,-1.8614,0.0,-2.1635,-2.1274,-1.5392,-1.112,0.0,0.0,0.3879,1.0773,1.3404,0.0,0.0,0.0,0.0,0.0,0.0,0.0,0.0,0.0,0.0,0.0,0.0,0.0,0.0,0.0,5.7881,5.7881,5.7881,5.7881,5.7983,5.8152,5.8727,5.8727,5.8152,5.8152,5.8051,5.7881,5.7881,0.0,0.0,0.0,0.0,5.5777,5.5614,5.5086,5.4137,5.3978,5.4274,5.4616,5.4616,5.5058,5.5715,5.5557,5.5272,5.448,5.1789,4.9802,4.8297,4.8005,4.6732,4.5423,4.5551,4.7188,4.912,5.0796,5.2345,5.4272,5.774,5.8735,5.9654,6.2186,6.2719,6.2888,6.3429,6.3835,6.4241,6.4816,6.5696,6.6542,6.7252,6.8064,6.8842,6.9553,6.9823,7.0161,7.0737,6.8469,6.6876,6.6716,6.2496,5.8663,5.5849,5.1857,4.8609,4.6432,4.3729,4.2903,4.4349,4.6044,4.7129,4.7531,4.8833,4.9819,5.0359,5.2025,5.276,-1.9901,-2.1812,-2.2877,-2.1062,-1.9951,-1.9306,-1.9641,-1.8865,-1.7033,-1.3266,-0.9342,0.0,0.0,0.0,0.0,0.0,0.0,0.0,0.0,0.0,0.0,0.0,0.0,0.0,0.0,0.0,0.0,0.0,0.0,0.0,0.0,5.7881,5.7881,5.7881,5.7881,5.7881,5.7881,5.8287,5.8287,5.7881,5.7881,5.7881,5.7881,5.7881,5.7881,0.0,0.0,0.0,5.6963,5.6963,5.6315,5.5296,5.5296,5.531,5.5197,5.5633,5.6178,5.6755,5.6755,5.6531,5.5997,5.4553,5.3006,5.1429,5.117,4.9634,4.7558,4.6394,4.7705,4.9734,5.0491,5.2288,5.4738,5.8401,5.9742,6.0815,6.3478,6.4005,6.414,6.4512,6.5155,6.573,6.6136,6.7117,6.8098,6.8842,6.9316,6.9857,7.0601,7.0703,7.0872,7.1278,6.883,6.6894,6.6143,6.1611,5.7969,5.5861,5.1988,4.867,4.6347,4.4477,4.4337,4.6061,4.696,4.8103,4.9477,5.0568,5.1816,5.3227,5.5026,5.587,-1.7995,-1.9827,-2.0227,-1.6664,-1.5139,-1.4292,-1.3769,-1.1868,-0.9914,-0.9143,-0.6616,-0.2113,0.0,1.0155,0.0,0.0,0.0,0.0,0.0,0.0,0.0,0.0,0.0,0.0,0.0,0.0,0.0,0.0,0.0,0.0,0.0,5.7814,5.7881,5.7881,5.7881,5.7881,5.7881,5.7881,5.7881,5.7881,5.7881,5.7881,5.7881,5.7881,5.7881,5.7881,0.0,0.0,5.7712,5.7848,5.723,5.6305,5.6404,5.602,5.5554,5.6168,5.6899,5.7618,5.7623,5.7821,5.7936,5.8243,5.7015,5.5443,5.5336,5.4192,5.2297,4.9912,4.9912,5.0823,5.1319,5.3192,5.5888,5.9497,6.1173,6.2543,6.4503,6.5019,6.5155,6.5256,6.6305,6.7151,6.7151,6.8335,6.9485,7.0094,7.0297,7.0635,7.1379,7.1379,7.1255,7.1142,6.8798,6.6416,6.4429,6.0461,5.7382,5.6101,5.2438,4.9084,4.6335,4.6213,4.6792,4.8159,4.8259,4.9387,5.1636,5.2359,5.385,5.6149,5.8172,5.9161,-1.3295,-1.2258,-1.0637,-1.2092,-0.8373,-0.4002,-0.2659,-0.4204,-0.472,-0.0547,0.0081,0.2672,1.1733,1.6656,2.109,0.0,0.0,0.0,0.0,0.0,0.0,0.0,0.0,0.0,0.0,0.0,0.0,0.0,0.0,0.0,0.0,5.7543,5.7881,5.7881,5.7881,5.7881,5.7881,5.7881,5.7881,5.7881,5.7881,5.7881,5.7881,5.7881,5.7881,5.7881,0.0,5.7543,5.7036,5.7645,5.7437,5.6785,5.7392,5.8328,5.9252,5.9386,6.0359,6.1654,6.1744,6.2226,6.2439,6.0251,5.9338,5.8919,5.8388,5.8069,5.7587,5.6506,5.3564,5.1428,5.4316,5.5394,5.6854,6.1329,6.2936,6.4121,6.6019,6.6948,6.759,6.8267,6.8605,6.8741,6.8741,6.9451,7.006,7.0161,7.0737,7.1413,7.2124,7.1684,7.1118,7.0557,6.8531,6.5996,6.3109,5.9944,5.7068,5.4959,5.1514,4.8636,4.6751,4.8567,4.9531,4.9339,4.9791,5.1151,5.3435,5.4894,5.6726,5.9033,6.0203,6.1035,-1.1033,-0.6941,-0.1628,-0.232,-0.03,0.2303,0.4031,0.3221,0.2104,0.2247,0.1974,0.4099,0.0,0.0,0.0,0.0,0.0,0.0,0.0,0.0,0.0,0.0,0.0,0.0,0.0,0.0,0.0,0.0,0.0,0.0,0.0,0.0,5.7137,5.6731,5.6697,5.6697,5.6697,5.6697,5.7103,5.7881,5.7103,5.6934,5.7306,5.7306,5.7103,5.6731,0.0,5.69,5.6258,5.6562,5.6765,5.6833,5.7171,5.7949,5.9038,5.9891,6.1218,6.2718,6.3697,6.4215,6.4336,6.3485,6.2879,6.2453,6.2049,6.1567,6.0955,6.0612,5.8465,5.6355,5.6762,5.8656,6.1158,6.4081,6.599,6.7522,6.9272,6.9906,7.0094,6.9976,7.0222,7.0362,6.9775,7.0297,7.0804,7.0804,7.1075,7.1582,7.2326,7.209,7.1497,7.0433,6.8752,6.6023,6.1556,5.921,5.6611,5.3498,5.1455,5.0014,4.9254,5.0323,5.077,5.0519,5.0745,5.2517,5.5681,5.6431,5.8532,6.2087,6.2106,6.251,-0.7914,-0.2262,0.529,0.6638,0.8207,1.0099,1.2829,1.2783,1.1408,0.9247,0.8076,0.9224,0.0,0.0,0.0,0.0,0.0,0.0,0.0,0.0,0.0,0.0,0.0,0.0,0.0,0.0,0.0,0.0,0.0,0.0,0.0,0.0,5.6292,5.575,5.5716,5.5716,5.5716,5.5547,5.6089,5.7374,5.6258,5.6021,5.6562,5.6562,5.6258,5.575,5.6325,5.6122,5.548,5.5818,5.619,5.6596,5.6934,5.7509,5.8332,5.9944,6.1568,6.3133,6.4627,6.5382,6.5625,6.5774,6.5478,6.504,6.471,6.407,6.3458,6.3458,6.2914,6.1886,5.9663,6.1885,6.5196,6.68,6.899,7.0912,7.2082,7.2507,7.2352,7.1305,7.155,7.167,7.0609,7.0636,7.0791,7.0791,7.0791,7.1127,7.2035,7.2312,7.1908,7.0436,6.9135,6.5903,6.0042,5.8216,5.5889,5.2438,5.19,5.1599,5.1473,5.1599,5.1599,5.1473,5.1724,5.3553,5.7031,5.7547,5.9853,6.3595,6.3503,6.3797,-0.1929,0.2624,0.8388,1.1013,1.6715,2.3004,2.8216,2.6516,2.4681,2.7738,2.5059,2.3677,0.0,0.0,0.0,0.0,0.0,0.0,0.0,0.0,0.0,0.0,0.0,0.0,0.0,0.0,0.0,0.0,0.0,0.0,0.0,0.0,0.0,5.5716,5.5716,5.5716,5.5716,5.5006,5.5074,5.5886,5.5784,5.575,5.5784,5.5784,5.5784,5.5716,5.5784,5.5378,5.4769,5.6156,5.6359,5.5919,5.7273,5.8254,5.9118,6.0758,6.2393,6.3953,6.493,6.626,6.723,6.559,6.5499,6.5829,6.4913,6.4971,6.5512,6.5512,6.5935,6.5899,6.3991,6.4853,6.6787,6.8818,7.1195,7.3003,7.311,7.3637,7.3864,7.287,7.2693,7.2429,7.1389,7.023,6.9313,6.9313,6.9313,6.9938,7.1358,7.1988,7.1866,7.0542,6.9125,6.5496,5.8731,5.6569,5.4782,5.2991,5.2829,5.2578,5.2076,5.2528,5.2578,5.2051,5.303,5.4474,5.6318,5.8549,6.0566,6.2476,6.4127,6.4904,-0.0481,0.5785,1.3699,1.4123,2.0481,2.7083,2.8741,2.929,2.9925,3.1542,3.1267,3.1778,0.0,0.0,0.0,0.0,0.0,0.0,0.0,0.0,0.0,0.0,0.0,0.0,0.0,0.0,0.0,0.0,0.0,0.0,0.0,0.0,0.0,5.4363,5.4329,5.4329,5.4329,5.4059,5.4059,5.4329,5.4329,5.4566,5.5006,5.5006,5.4769,5.4363,5.4837,5.46,5.3957,5.4532,5.5141,5.5852,5.7306,5.8051,5.8434,5.9561,6.1037,6.2533,6.3403,6.4699,6.5878,6.5091,6.5371,6.5882,6.5391,6.5797,6.6373,6.6373,6.7005,6.7376,6.6233,6.7532,6.9718,7.1552,7.3532,7.5146,7.5617,7.598,7.5891,7.483,7.4158,7.3412,7.2448,7.0532,6.9217,6.9217,6.8503,6.8363,6.9367,7.0033,6.9917,6.8516,6.6147,6.3089,5.8967,5.7004,5.533,5.3545,5.3105,5.2829,5.2628,5.313,5.3306,5.3105,5.3858,5.5204,5.7262,5.9476,6.166,6.4009,6.5512,6.646,0.4555,1.045,1.7787,1.8174,2.4012,2.9813,3.0333,3.1478,3.3091,3.5659,3.7213,3.8415,3.9539,0.0,0.0,0.0,0.0,0.0,0.0,0.0,0.0,0.0,0.0,0.0,0.0,0.0,0.0,0.0,0.0,0.0,0.0,0.0,0.0,0.0,5.3518,5.3348,5.3041,5.3348,5.3348,5.3041,5.3348,5.3754,5.4262,5.4262,5.3991,5.3551,5.4025,5.3957,5.3518,5.3754,5.4907,5.6542,5.7518,5.8235,5.8763,5.9323,6.0462,6.1919,6.2728,6.3902,6.5008,6.4841,6.5273,6.5918,6.5753,6.6203,6.6812,6.6812,6.738,6.8152,6.8293,6.9988,7.2116,7.3555,7.5243,7.6644,7.7194,7.7304,7.7019,7.6027,7.4976,7.4005,7.2962,7.0431,6.8601,6.8601,6.7368,6.6796,6.7525,6.8457,6.852,6.7318,6.4486,6.181,5.9506,5.7623,5.6008,5.4351,5.3909,5.3632,5.3457,5.3959,5.4235,5.4235,5.4963,5.6065,5.7655,5.9717,6.2117,6.4567,6.6049,6.7308,1.4297,1.7059,2.0185,2.3507,2.7842,3.2155,3.5289,3.4332,3.4807,4.2141,4.4171,4.4231,4.3008,0.0,0.0,0.0,0.0,0.0,0.0,0.0,0.0,0.0,0.0,0.0,0.0,0.0,0.0,0.0,0.0,0.0,0.0,0.0,0.0,0.0,5.3518,5.2939,5.1921,5.2939,5.2939,5.1921,5.3008,5.3518,5.3518,5.3518,5.3518,5.3518,5.3518,5.3518,5.3551,5.4296,5.5928,5.7939,5.7902,5.8866,6.0324,6.0324,6.1259,6.2683,6.3471,6.4296,6.4941,6.4841,6.5273,6.5842,6.5719,6.6203,6.6812,6.6812,6.732,6.8334,7.0402,7.2221,7.3724,7.4519,7.6081,7.7304,7.7304,7.7304,7.7019,7.6027,7.4976,7.4005,7.2962,6.9716,6.7196,6.7196,6.5973,6.539,6.6151,6.7407,6.798,6.7287,6.4902,6.231,5.9986,5.8107,5.6678,5.5509,5.539,5.5164,5.4612,5.5114,5.5415,5.5415,5.647,5.7047,5.7072,5.9445,6.1506,6.3446,6.5248,6.7188,1.4758,1.9263,0.0,2.5615,0.0,0.0,3.5967,3.6052,3.6645,3.9843,4.3486,4.5362,4.2935,0.0,0.0,0.0,0.0,0.0,0.0,0.0,0.0,0.0,0.0,0.0,0.0,0.0,0.0,0.0,0.0,0.0,0.0,0.0,0.0,0.0,5.3518,5.2939,5.1921,5.2939,5.2939,5.1921,5.3008,5.3518,5.3518,5.3518,5.3518,5.3518,5.3518,5.3518,5.3619,5.4871,5.606,5.7221,5.8259,5.8942,5.9473,5.9984,6.0802,6.1763,6.1953,6.2547,6.3124,6.3094,6.3972,6.488,6.4322,6.5392,6.6711,6.617,6.7052,6.8497,7.0279,7.1537,7.3009,7.5179,7.6496,7.7304,7.7304,7.7304,7.7019,7.6027,7.4976,7.4104,7.3656,7.0386,6.8124,6.8604,6.6567,6.5309,6.5974,6.6387,6.6747,6.6973,6.5169,6.3093,6.0754,5.9236,5.7666,5.6088,5.6344,5.6294,5.5742,5.6244,5.6545,5.6545,5.7273,5.8001,5.8755,6.0795,6.2577,6.3941,6.727,6.9135,1.9056,2.3148,0.0,2.8798,3.2185,3.5776,3.7411,0.0,0.0,0.0,4.5343,4.7585,4.5715,0.0,0.0,0.0,0.0,0.0,0.0,0.0,0.0,0.0,0.0,0.0,0.0,0.0,0.0,0.0,0.0,0.0,0.0,0.0,0.0,0.0,5.3518,5.2939,5.1921,5.2939,5.2939,5.1921,5.3008,5.3518,5.3518,5.3518,5.3518,5.3518,5.3849,5.4106,5.4494,5.6046,5.6943,5.7463,5.8939,5.972,5.9989,6.0435,6.1061,6.1738,6.1738,6.2009,6.2448,6.2753,6.3632,6.458,6.441,6.5527,6.6627,6.5697,6.6542,6.7928,6.8829,7.0196,7.2177,7.4785,7.5768,7.613,7.613,7.613,7.5959,7.5299,7.4385,7.3737,7.3851,7.0719,6.8508,6.918,6.6848,6.5173,6.5562,6.5862,6.6251,6.6909,6.4926,6.3131,6.1923,5.9827,5.8148,5.7474,5.7826,5.8052,5.8177,5.7876,5.7801,5.8001,5.8579,5.9282,6.0161,6.1352,6.2556,6.4128,6.6477,6.8368,2.5362,2.7679,3.0112,3.2493,3.5126,0.0,3.9636,4.3451,4.6529,4.6104,0.0,0.0,0.0,0.0,0.0,0.0,0.0,0.0,0.0,0.0,0.0,0.0,0.0,0.0,0.0,0.0,0.0,0.0,0.0,0.0,0.0,0.0,0.0,5.3518,5.3518,5.2939,5.1921,5.2939,5.2939,5.1921,5.3008,5.3518,5.3518,5.3518,5.3551,5.3685,5.4391,5.5189,5.6042,5.7494,5.8142,5.8341,5.9795,6.0774,6.1289,6.1367,6.1806,6.2381,6.2381,6.2381,6.2516,6.326,6.4005,6.4715,6.5392,6.6052,6.6406,6.5194,6.5699,6.6626,6.6522,6.8311,7.0852,7.3123,7.397,7.431,7.431,7.431,7.4234,7.4046,7.3182,7.2755,7.3413,7.053,6.832,6.9009,6.6959,6.5383,6.5383,6.5922,6.652,6.7119,6.4422,6.2811,6.3363,6.0049,5.8453,5.9433,5.9583,6.0111,6.114,5.9734,5.9156,5.9633,6.0136,6.0688,6.1266,6.1266,6.2165,6.3826,6.4133,6.6047,2.557,2.816,0.0,3.414,3.809,4.1714,4.4021,4.5742,4.5403,4.0304,0.0,0.0,0.0,0.0,0.0,0.0,0.0,0.0,0.0,0.0,0.0,0.0,0.0,0.0,0.0,0.0,0.0,0.0,0.0,0.0,0.0,0.0,0.0,5.3518,5.3518,5.2939,5.1921,5.2939,5.2939,0.0,5.3008,5.3518,5.3518,5.3518,5.3849,5.4356,5.5144,5.6258,5.76,5.7954,5.844,5.9064,6.06,6.0834,6.0551,6.1714,6.2245,6.2381,6.2381,6.2381,6.2516,6.326,6.4005,6.4647,6.4783,6.5076,6.516,6.4299,6.3909,6.4063,6.5125,6.6092,6.7081,6.8466,7.1559,7.431,7.431,7.431,7.378,7.1866,7.1265,7.103,7.037,6.8702,6.7528,6.8179,6.824,6.8136,6.8136,6.8286,6.8405,6.8555,6.5336,6.3253,6.3391,6.0753,5.9257,5.9483,6.0337,6.0939,6.1165,6.0839,6.0713,6.0814,6.0939,6.1266,6.1818,6.1818,6.2205,6.3067,6.4717,6.5914,2.6422,0.0,0.0,3.6709,0.0,4.2857,4.4752,4.5772,4.5217,0.0,0.0,0.0,0.0,0.0,0.0,0.0,0.0,0.0,0.0,0.0,0.0,0.0,0.0,0.0,0.0,0.0,0.0,0.0,0.0,0.0,0.0,5.3518,5.3518,5.3518,5.3518,5.3247,5.2627,5.3179,5.3179,5.2627,5.3247,5.3651,5.4042,5.4042,5.4606,5.5702,5.6095,5.7155,5.8664,5.9024,5.9624,6.0379,6.1516,6.171,6.14,6.2174,6.2381,6.2381,6.2381,6.2618,6.299,6.3396,6.4241,6.5121,6.5121,6.5039,6.4712,6.3681,6.3196,6.3028,6.284,6.4334,6.5644,6.5295,6.8438,7.142,7.1036,7.0914,7.0558,6.9301,6.9016,6.9059,6.923,6.8941,6.8557,6.8475,6.8764,6.9004,6.9004,6.9273,6.9572,6.9871,6.6793,6.4827,6.5103,6.2135,6.0412,6.0688,6.124,6.1692,6.1969,6.1969,6.1843,6.1592,6.1567,6.1843,6.2395,6.2395,6.2546,6.2822,6.3882,6.4949,2.7132,3.0251,3.3759,3.8822,4.1145,0.0,4.3299,4.4382,4.4665,0.0,0.0,0.0,0.0,0.0,0.0,0.0,0.0,0.0,0.0,0.0,0.0,0.0,0.0,0.0,0.0,0.0,0.0,0.0,0.0,0.0,5.3518,5.3518,5.3518,5.3518,5.3518,5.3518,5.3518,5.3518,5.3518,5.3518,5.3618,5.4042,5.4818,5.4939,5.5702,5.6912,5.7015,5.7996,5.9465,6.0126,6.0865,6.1692,6.2353,6.2525,6.2401,6.2377,6.2503,6.2584,6.2312,6.2704,6.3377,6.3198,6.407,6.5042,6.5176,6.4796,6.4105,6.2972,6.2567,6.2273,6.0806,6.2713,6.4707,6.3448,6.508,6.7068,6.7164,6.6926,6.6687,6.6479,6.611,6.6493,6.8123,6.9015,6.9458,6.916,6.9363,6.9482,6.9482,6.9794,7.0129,7.0634,6.772,6.5902,6.6395,6.3311,6.1517,6.1969,6.2094,6.2345,6.2822,6.2822,6.2621,6.2144,6.2144,6.237,6.2822,6.2822,6.2822,6.2822,6.2822,6.3746,2.678,0.0,3.5842,0.0,4.0098,4.1305,0.0,0.0,0.0,0.0,0.0,0.0,0.0,0.0,0.0,0.0,0.0,0.0,0.0,0.0,0.0,0.0,0.0,0.0,0.0,0.0,0.0,0.0,0.0,0.0,5.3518,5.3518,5.3518,5.3518,5.3518,5.3518,5.3518,5.3518,5.3518,5.3518,5.4171,5.4818,5.561,5.6259,5.6704,5.6912,5.7583,5.8747,6.0272,6.0382,6.0865,6.1676,6.2407,6.223,6.1639,6.2258,6.2836,6.3202,6.2082,6.2207,6.2727,6.2301,6.2256,6.2514,6.3127,6.2812,6.1995,6.1395,6.1033,6.0666,6.0416,6.1357,6.2401,6.2984,6.1969,6.1996,6.627,6.6007,6.4568,6.3477,6.187,6.1655,6.4493,6.6049,6.7506,6.9594,7.0799,7.1487,7.1487,7.0632,6.9916,7.0002,6.6579,6.4327,6.4406,6.2787,6.1918,6.1994,6.2446,6.2747,6.2822,6.2822,6.2797,6.2722,6.2722,6.2747,6.2822,6.2822,6.2822,6.2822,6.2822,6.2985,2.8202,3.165,3.4758,0.0,3.8722,3.9725,3.9638,0.0,0.0,0.0,0.0,0.0,0.0,0.0,0.0,0.0,0.0,0.0,0.0,0.0,0.0,0.0,0.0,0.0,0.0,0.0,0.0,0.0,0.0,5.3518,5.3518,5.3078,5.3044,5.3484,5.3078,5.2841,5.2841,5.3281,5.3447,5.3425,5.4251,5.503,5.5723,5.6949,5.7498,5.7498,5.7821,5.8657,5.9758,6.0236,6.114,6.2328,6.3088,6.3101,6.2816,6.3065,6.2847,6.2332,6.1758,6.1872,6.2275,6.2345,6.2485,6.2588,6.2908,6.2193,6.1395,6.1995,6.0746,5.9187,5.8203,5.9273,6.0316,5.9569,5.8509,5.855,6.1439,6.1381,6.0787,6.0495,6.0132,6.056,6.2781,6.4235,6.5799,6.7479,6.8532,6.9104,6.9104,6.8939,6.8731,6.8731,6.652,6.4949,6.4949,6.337,6.2471,6.2471,6.2697,6.2822,6.2822,6.2822,6.2822,6.2822,6.2822,6.2822,6.2822,6.2822,6.2822,6.2822,6.2822,6.2822,0.0,0.0,3.2684,3.5309,3.6748,3.7655,0.0,0.0,0.0,0.0,0.0,0.0,0.0,0.0,0.0,0.0,0.0,0.0,0.0,0.0,0.0,0.0,0.0,0.0,0.0,0.0,0.0,0.0,0.0,5.3416,5.3213,5.2638,5.2503,5.2909,5.2334,5.2029,5.2029,5.2638,5.3065,5.3402,5.4218,5.5098,5.6046,5.7386,5.7997,5.7997,5.7997,5.8474,5.9281,6.0089,6.1227,6.2558,6.3273,6.356,6.3458,6.3414,6.2741,6.185,6.147,6.1483,6.1662,6.179,6.1948,6.2027,6.2027,6.1325,6.0743,6.1728,6.0216,5.803,5.636,5.7561,5.8759,5.6726,5.6206,5.6337,5.7112,5.7478,5.7649,5.7725,5.8294,5.9589,6.1629,6.2774,6.4149,6.5816,6.6505,6.6946,6.7111,6.7216,6.7449,6.7449,6.6047,6.5082,6.5082,6.3746,6.2822,6.2822,6.2822,6.2822,6.2822,6.2822,6.2822,6.2822,6.2822,6.2822,6.2822,6.2822,6.2822,6.2822,6.2822,6.2822,0.0,2.8722,0.0,3.1971,3.3848,0.0,0.0,0.0,0.0,0.0,0.0,0.0,0.0,0.0,0.0,0.0,0.0,0.0,0.0,0.0,0.0,0.0,0.0,0.0,0.0,0.0,0.0,0.0,0.0,5.3179,5.2401,5.2334,5.1995,5.1352,5.1285,5.1285,5.1285,5.1319,5.2072,5.3463,5.4218,5.5384,5.684,5.7642,5.7997,5.7997,5.7997,5.8474,5.9281,6.0089,6.0896,6.1765,6.2476,6.2677,6.2646,6.2614,6.2639,6.2431,6.1165,6.0864,6.0856,5.9698,5.9255,5.9285,5.9285,5.9315,5.9207,5.9285,5.8726,5.7744,5.6335,5.7066,5.7751,5.6596,5.5814,5.5419,5.5551,5.6001,5.607,5.5064,5.5652,5.7295,6.0237,6.1239,6.2591,6.5671,6.6623,6.723,6.7838,6.663,6.5947,6.5947,6.4177,6.2985,6.2985,6.2822,6.2822,6.2822,6.2822,6.2822,6.2822,6.2822,6.2822,6.2822,6.2822,6.2822,6.2822,6.2822,6.2822,6.2822,6.2822,6.2822,0.0,0.0,0.0,3.0085,3.0969,3.186,0.0,0.0,0.0,0.0,0.0,0.0,0.0,0.0,0.0,0.0,0.0,0.0,0.0,0.0,0.0,0.0,0.0,0.0,0.0,0.0,0.0,0.0,0.0,0.0,5.1623,5.115,5.098,5.1217,5.0744,5.0744,5.1217,5.027,5.081,5.2735,5.3055,5.3958,5.5401,5.617,5.6491,5.658,5.7065,5.7729,5.8547,5.9869,6.0285,6.0264,6.2562,6.2826,6.1882,6.2066,6.1799,6.123,6.0012,5.9703,5.9683,5.9315,5.9099,5.9099,5.9099,5.9099,5.849,5.5895,5.6581,5.7632,5.4682,5.5129,5.5945,5.4459,5.3945,5.381,5.381,5.4244,5.4668,5.4577,5.5164,5.6435,5.8468,5.9613,6.0889,6.2611,6.3727,6.4403,6.4611,6.4209,6.3882,6.3882,6.3286,6.2822,6.2822,6.2822,6.2822,6.2822,6.2822,6.2822,6.2822,6.2822,6.2822,6.2822,6.2822,6.2822,6.2822,6.2822,6.3023,6.3375,6.3375,6.355,2.8157,0.0,0.0,0.0,0.0,3.0085,0.0,0.0,0.0,0.0,0.0,0.0,0.0,0.0,0.0,0.0,0.0,0.0,0.0,0.0,0.0,0.0,0.0,0.0,0.0,0.0,0.0,0.0,0.0,0.0,5.0845,5.0371,5.0304,5.0845,5.0101,5.0067,5.0845,4.9627,5.0127,5.232,5.2379,5.3311,5.4924,5.5476,5.5724,5.5724,5.6259,5.6917,5.7738,5.932,5.9667,5.9465,6.2032,6.2375,6.1394,6.1467,6.0975,6.0262,5.9305,5.8838,5.871,5.9009,5.9099,5.9279,6.0176,5.9817,5.8696,5.6812,5.8119,5.9457,5.6976,5.5446,5.4299,5.3179,5.3055,5.3181,5.3181,5.3607,5.411,5.4486,5.5465,5.6595,5.77,5.893,6.0085,6.104,6.1969,6.2621,6.2797,6.2822,6.2822,6.2822,6.2822,6.2822,6.2822,6.2822,6.2822,6.2822,6.2822,6.2822,6.2822,6.2822,6.2822,6.2822,6.2822,6.247,6.1598,6.247,6.3023,6.34,6.34,6.3701,0.0,0.0,0.0,0.0,0.0,0.0,3.1616,0.0,0.0,0.0,0.0,0.0,0.0,0.0,0.0,0.0,0.0,0.0,0.0,0.0,0.0,0.0,0.0,0.0,0.0,0.0,0.0,0.0,0.0,5.0845,5.0101,5.0067,5.0101,5.0101,4.939,4.939,5.0067,4.939,5.0161,5.2379,5.2414,5.3533,5.5667,5.5667,5.5667,5.5667,5.5667,5.6091,5.6834,5.8482,5.9194,5.9329,6.0804,6.1397,6.1321,6.0765,6.0272,5.9812,5.9051,5.8369,5.7992,5.883,5.9099,5.9578,6.2181,6.1224,5.9757,6.2361,6.3079,6.3079,6.3079,5.8005,5.2929,5.2955,5.3331,5.3708,5.3733,5.421,5.4612,5.4612,5.6369,5.7876,5.7775,5.9257,6.0512,6.1115,6.1667,6.222,6.2772,6.2822,6.2822,6.2822,6.2822,6.2822,6.2822,6.2822,6.2822,6.2822,6.2822,6.2822,6.2822,6.2822,6.2822,6.2822,6.2822,6.1598,5.9307,6.1598,6.2659,6.2684,6.2898,6.3199,2.8622,0.0,0.0,0.0,0.0,0.0,2.9054,2.9593,0.0,0.0,0.0,0.0,0.0,0.0,0.0,0.0,0.0,0.0,0.0,0.0,0.0,0.0,0.0,0.0,0.0,0.0,0.0,0.0,4.879,4.9526,4.9323,4.9796,5.0101,5.0101,4.9898,4.9898,5.0101,4.9898,5.0362,5.1566,5.2077,5.299,5.4106,5.4106,5.4106,5.4106,5.4634,5.5022,5.5403,5.7504,5.8694,5.9273,6.0843,6.1349,6.1181,5.9801,6.0388,6.1491,5.8646,5.8098,5.877,5.9009,5.9099,5.9249,5.9967,6.1044,6.2121,6.2869,6.3079,6.3079,6.3079,5.8005,5.3055,5.3582,5.3708,5.3934,5.4737,5.5365,5.5281,5.3738,5.546,5.7174,5.6745,5.8772,6.0663,6.1642,6.2245,6.2647,6.2822,6.2822,6.2822,6.2822,6.2822,6.2822,6.2822,6.2822,6.2822,6.2822,6.2822,6.2822,6.2822,6.2822,6.2822,6.2822,6.2822,6.1598,5.9307,6.0003,6.0579,6.099,6.3533,6.4906,0.0,0.0,0.0,0.0,0.0,0.0,2.8876,2.9278,0.0,0.0,0.0,0.0,0.0,0.0,0.0,0.0,0.0,0.0,0.0,0.0,0.0,0.0,0.0,0.0,0.0,0.0,0.0,4.7046,4.8283,4.9018,4.9018,4.9695,5.0255,5.053,5.0561,5.073,5.1008,5.073,5.0947,5.1657,5.2097,5.2739,5.3518,5.3518,5.3518,5.3518,5.4254,5.4768,5.5177,5.6871,5.7973,5.877,6.0244,6.1081,6.1133,5.9984,6.0674,6.1983,5.9533,5.9083,5.9588,5.9165,5.9099,5.9308,6.0416,6.3472,6.6079,6.3706,6.3079,6.3079,6.3079,5.8005,5.3105,5.3833,5.421,5.4662,5.5541,5.6344,5.6525,5.4863,5.6424,5.7897,5.7702,5.9524,6.124,6.1893,6.2471,6.2822,6.2822,6.2822,6.2822,6.2822,6.2822,6.2822,6.2822,6.2822,6.2822,6.2822,6.2822,6.2822,6.2822,6.2822,6.2822,6.2822,6.2822,6.1242,5.7949,5.8799,5.9473,5.9976,6.3345,6.5107,0.0,0.0,0.0,0.0,0.0,0.0,2.9754,3.0198,3.1044,0.0,0.0,0.0,0.0,0.0,0.0,0.0,0.0,0.0,0.0,0.0,0.0,0.0,0.0,0.0,0.0,4.3611,4.5365,4.6453,4.8048,4.9018,4.9018,4.9763,5.0481,5.1173,5.1293,5.1605,5.2278,5.1668,5.1657,5.23,5.2401,5.2807,5.3518,5.3518,5.3416,5.3382,5.4023,5.4732,5.5474,5.6217,5.7167,5.8254,5.9573,6.0655,6.1346,6.0804,6.1198,6.1956,6.1128,6.0931,6.0854,6.0058,5.9894,6.0439,6.2837,6.699,6.976,6.4512,6.3079,6.3023,6.2411,5.7798,5.3306,5.4084,5.4838,5.5566,5.6269,5.7248,5.7876,5.7474,5.8529,5.9558,5.9398,6.0906,6.2094,6.2094,6.2571,6.2898,6.2847,6.2822,6.2822,6.2822,6.2822,6.2822,6.2822,6.2898,6.2923,6.2923,6.2923,6.2923,6.2923,6.2873,6.2822,6.2822,6.2495,6.0218,5.5879,5.7583,5.8653,5.9063,6.2539,6.4312,0.0,0.0,0.0,0.0,0.0,0.0,2.8062,2.8312,2.9355,0.0,0.0,0.0,0.0,0.0,0.0,0.0,0.0,0.0,0.0,0.0,0.0,0.0,0.0,0.0,0.0,4.2322,4.4366,4.6419,4.8077,4.9018,4.9018,5.027,5.1044,5.1235,5.1756,5.2128,5.2323,5.2162,5.2164,5.23,5.2976,5.3348,5.3518,5.3518,5.3041,5.2241,5.2373,5.2837,5.3566,5.4295,5.6646,5.9708,5.9979,6.096,6.2099,6.1003,6.2066,6.3735,6.1653,6.2608,6.485,6.4545,6.4996,6.5767,6.6266,6.7164,6.7298,6.4015,6.3079,6.2262,5.8535,5.597,5.4511,5.5541,5.5591,5.5792,5.7248,5.8102,5.878,5.9533,5.9583,5.9416,5.8886,6.0932,6.2672,6.2672,6.3149,6.335,6.2898,6.2822,6.2822,6.2822,6.2822,6.2822,6.2822,6.3249,6.3525,6.3525,6.3525,6.3525,6.3525,6.3073,6.2822,6.2822,6.0886,5.863,5.5879,5.4477,5.5005,5.7315,6.0246,6.291,0.0,0.0,0.0,2.769,0.0,0.0,0.0,2.8771,2.957,0.0,0.0,0.0,0.0,0.0,0.0,0.0,0.0,0.0,0.0,0.0,0.0,0.0,0.0,0.0,0.0,4.1186,4.3613,4.6386,4.7742,4.8612,4.8984,5.0405,5.1206,5.1172,5.2292,5.287,5.2848,5.287,5.2909,5.2909,5.3315,5.3518,5.3518,5.3518,5.3179,5.2731,5.2534,5.2844,5.3568,5.4402,5.6525,5.9354,5.9928,6.1028,6.2336,6.2078,6.3113,6.4518,6.4022,6.5216,6.6879,6.6499,6.6772,6.7167,6.7213,6.6259,6.4813,6.3478,6.3079,6.202,5.7369,5.5792,5.5516,5.6068,5.6219,5.652,5.765,5.8755,5.9759,6.0588,6.0738,6.0672,6.0311,6.1769,6.2923,6.3224,6.3249,6.3249,6.3249,6.2998,6.2822,6.2822,6.2822,6.2822,6.2822,6.335,6.3701,6.3701,6.3927,6.3952,6.3701,6.3425,6.3124,6.2847,6.0528,5.8799,5.7606,5.5333,5.4939,5.639,6.0453,6.3295,0.0,0.0,0.0,0.0,0.0,2.8793,0.0,0.0,0.0,0.0,0.0,0.0,0.0,0.0,0.0,0.0,0.0,0.0,0.0,0.0,0.0,0.0,0.0,0.0,0.0,4.0539,4.31,4.593,4.7002,4.7881,4.8617,4.9923,5.0784,5.1089,5.2433,5.3279,5.3432,5.3477,5.3518,5.3518,5.3518,5.3518,5.3518,5.3518,5.3416,5.3144,5.3075,5.3371,5.4128,5.4962,5.6702,5.8927,5.9775,6.1129,6.2685,6.3294,6.4174,6.5189,6.612,6.7079,6.7825,6.7126,6.6613,6.6177,6.5954,6.4106,6.2175,6.2175,6.1906,6.1012,5.7747,5.6598,5.634,5.6479,5.6839,5.7223,5.7901,5.9257,6.0512,6.1215,6.1793,6.2169,6.2169,6.2621,6.3124,6.3475,6.3224,6.3124,6.3475,6.3124,6.2822,6.2822,6.2822,6.2822,6.2822,6.335,6.3701,6.3701,6.4078,6.4128,6.3701,6.3576,6.3299,6.2847,6.0886,5.9835,5.9307,5.7949,5.6919,5.655,6.1063,6.3694,0.0,0.0,0.0,0.0,2.8537,0.0,0.0,0.0,0.0,0.0,0.0,0.0,0.0,0.0,0.0,0.0,0.0,0.0,0.0,0.0,0.0,0.0,0.0,0.0,0.0,4.0857,4.3169,4.4289,4.5649,4.6647,4.7387,4.816,4.9343,5.0817,5.1673,5.2491,5.3482,5.3517,5.3518,5.3518,5.3518,5.3518,5.3518,5.3518,5.2939,5.2131,5.2752,5.3371,5.4128,5.4962,5.712,5.9928,6.0005,6.1434,6.3396,6.3497,6.4816,6.6407,6.5404,6.6311,6.7838,6.6577,6.4808,6.2875,6.1321,5.9737,5.8634,5.8634,5.7839,5.728,5.8779,5.7747,5.6504,5.7458,5.7354,5.7323,5.8403,5.9508,6.0638,6.1692,6.2345,6.2747,6.2747,6.3199,6.345,6.2998,6.3299,6.3425,6.2973,6.2873,6.2822,6.2822,6.2822,6.2822,6.2822,6.335,6.3701,6.3701,6.3751,6.3751,6.3701,6.3199,6.2898,6.2822,6.2495,6.1408,5.9307,6.1076,6.091,5.8992,6.0524,6.2446,0.0,0.0,0.0,0.0,0.0,0.0,0.0,0.0,3.0068,0.0,0.0,0.0,0.0,0.0,0.0,0.0,0.0,0.0,0.0,0.0,0.0,0.0,0.0,0.0,0.0,0.0,0.0,0.0,4.5047,4.5682,4.7338,4.6285,4.6296,4.7722,4.8456,4.9425,5.0528,5.0528,5.0725,5.1152,5.1152,5.1277,5.1704,5.2312,5.2312,5.1954,5.2679,5.3371,5.4128,5.5391,5.7255,5.9343,6.0829,6.2279,6.3565,6.4005,6.4539,6.5126,6.5816,6.5512,6.4736,6.4195,6.2102,5.97,5.8286,5.7514,5.6726,5.5472,5.556,5.659,5.8,5.9862,6.0816,5.8871,5.8772,5.9282,6.0231,6.1141,6.2174,6.3,6.362,6.3818,6.291,6.3023,6.3224,6.3324,6.3249,6.3224,6.3324,6.3048,6.2822,6.2822,6.2822,6.2822,6.2822,6.335,6.3701,6.3701,6.3701,6.3701,6.3701,6.3149,6.2822,6.2822,6.2822,6.2306,6.1242,6.2306,6.2306,6.1267,6.1899,6.2968,3.1501,0.0,0.0,0.0,0.0,0.0,0.0,0.0,0.0,0.0,0.0,0.0,0.0,0.0,0.0,0.0,0.0,0.0,0.0,0.0,0.0,0.0,0.0,0.0,0.0,0.0,0.0,4.4658,4.4198,4.4529,4.6083,4.4351,4.3874,4.4843,4.5471,4.6329,4.7423,4.7423,4.7643,4.8148,4.8338,4.8825,4.9628,5.0585,5.1164,5.1516,5.2473,5.3344,5.4194,5.5952,5.7529,5.9172,6.1537,6.2797,6.3348,6.4086,6.398,6.3635,6.4803,6.3703,6.1609,6.0969,5.9277,5.724,5.5841,5.534,5.4968,5.3316,5.4084,5.5918,5.8794,6.2179,6.4024,6.0213,6.0402,6.138,6.1503,6.2857,6.4167,6.4727,6.4884,6.4508,6.3575,6.3022,6.2973,6.34,6.3099,6.2973,6.34,6.3099,6.2822,6.2822,6.2822,6.2822,6.2822,6.3224,6.345,6.345,6.345,6.345,6.345,6.3048,6.2822,6.2822,6.2822,6.2822,6.2822,6.2672,6.2672,6.2822,6.2998,6.35,0.0,0.0,0.0,3.276,0.0,0.0,0.0,0.0,3.097,0.0,0.0,0.0,0.0,0.0,0.0,3.4453,0.0,0.0,0.0,0.0,0.0,0.0,0.0,0.0,0.0,0.0,0.0,4.1697,4.2838,4.3229,4.2541,4.2334,4.2614,4.3427,4.3485,4.4019,4.5022,4.5022,4.5052,4.5082,4.5552,4.6488,4.7746,4.8351,4.9236,5.057,5.1916,5.3078,5.4227,5.6435,5.8419,6.0173,6.1772,6.2546,6.2826,6.3518,6.3259,6.2403,6.1086,6.0266,5.9447,5.7213,5.6466,5.5972,5.37,5.3067,5.3067,5.2929,5.298,5.4795,6.2738,6.4875,6.4272,6.1231,6.1957,6.3027,6.1794,6.3857,6.6174,6.6634,6.577,6.4844,6.487,6.3684,6.2847,6.2847,6.2847,6.2847,6.2847,6.2847,6.2822,6.2822,6.2822,6.2822,6.2822,6.2847,6.2847,6.2847,6.2847,6.2847,6.2847,6.2847,6.2822,6.2822,6.2822,6.2822,6.2822,6.2295,6.2295,6.2847,6.34,6.3676,0.0,0.0,3.282,3.441,0.0,0.0,0.0,0.0,0.0,0.0,0.0,0.0,0.0,0.0,0.0,3.5052,3.6113,0.0,0.0,0.0,0.0,0.0,0.0,0.0,0.0,0.0,0.0,4.3355,4.297,4.262,4.2351,4.0305,3.9312,3.9857,3.9912,4.0415,4.1596,4.1596,4.1796,4.2167,4.2395,4.3111,4.4413,4.6142,4.7341,4.8193,5.0738,5.2298,5.3161,5.4924,5.6481,5.8083,6.001,6.0516,6.0487,6.2892,6.2362,6.0106,5.7479,5.6981,5.7112,5.4835,5.4081,5.3945,5.3179,5.2929,5.2929,5.2929,5.4593,5.7201,6.1347,6.4264,6.5729,6.3522,6.4141,6.5227,6.5165,6.6367,6.7605,6.8089,6.6913,6.5559,6.4995,6.3509,6.2395,6.2772,6.2822,6.2822,6.2822,6.2822,6.2822,6.2822,6.2822,6.2822,6.2822,6.2822,6.2822,6.2822,6.2822,6.2822,6.2822,6.2822,6.2822,6.2822,6.2822,6.2647,6.2295,6.2094,6.1918,6.1743,6.3664,6.492,3.1759,3.2484,0.0,3.6127,3.4061,0.0,3.443,0.0,0.0,0.0,0.0,0.0,0.0,0.0,0.0,3.4904,3.6555,3.7965,0.0,3.9409,0.0,0.0,0.0,0.0,0.0,0.0,4.3063,4.359,4.2621,4.1947,0.0,0.0,3.8524,3.8774,3.8738,3.8917,3.9271,3.9271,3.9392,3.9505,3.9719,4.0614,4.2031,4.3777,4.5169,4.6519,4.8729,5.0559,5.2005,5.3481,5.5134,5.6893,5.8838,5.9286,5.9228,6.2141,6.1227,5.8145,5.5013,5.4389,5.4835,5.3427,5.2929,5.2929,5.2929,5.2929,5.2929,5.2929,5.5101,5.8226,6.1499,6.4504,6.6183,6.448,6.5477,6.6824,6.6805,6.787,6.894,6.9553,6.8307,6.6691,6.5571,6.3804,6.272,6.286,6.2822,6.2822,6.2822,6.2822,6.2822,6.2822,6.2822,6.3123,6.3882,6.3882,6.4203,6.4949,6.4949,6.4657,6.3882,6.3882,6.3686,6.3124,6.2923,6.2647,6.2295,6.1893,6.1642,6.1466,6.3727,6.5754]}]]